[[{"header":{"parameterUnit":"m.s-1","parameterCategory":1,"la1":30.6,"la2":28.766,"lo1":-90.7593,"lo2":-88.6598,"dx":0.0162,"dy":0.0183,"nx":116,"ny":114,"refTime":"2022-11-09T18:00:00:Z","depth":0,"parameterNumber":2,"parameterNumberName":"U-component_of_WINDS"},"data":[0.0,0.0,0.0,0.0,0.0,0.0,0.0,0.0,0.0,0.0,0.0,0.0,0.0,0.0,0.0,0.0,0.0,0.0,0.0,0.0,0.0,0.0,0.0,0.0,0.0,0.0,0.0,0.0,0.0,0.0,0.0,0.0,0.0,0.0,0.0,0.0,0.0,0.0,0.0,0.0,0.0,0.0,0.0,0.0,0.0,0.0,0.0,0.0,0.0,0.0,0.0,0.0,0.0,0.0,0.0,0.0,0.0,0.0,0.0,0.0,0.0,0.0,0.0,0.0,0.0,0.0,0.0,0.0,0.0,0.0,0.0,0.0,0.0,0.0,0.0,0.0,0.0,0.0,0.0,0.0,0.0,0.0,0.0,0.0,0.0,0.0,0.0,0.0,0.0,0.0,0.0,0.0,0.0,0.0,0.0,0.0,0.0,0.0,0.0,0.0,0.0,0.0,0.0,0.0,0.0,0.0,0.0,0.0,0.0,0.0,0.0,0.0,0.0,0.0,0.0,0.0,0.0,0.0,0.0,0.0,0.0,0.0,0.0,0.0,0.0,0.0,0.0,0.0,0.0,0.0,0.0,0.0,0.0,0.0,0.0,0.0,0.0,0.0,0.0,0.0,0.0,0.0,0.0,0.0,0.0,0.0,0.0,0.0,0.0,0.0,0.0,0.0,0.0,0.0,0.0,0.0,0.0,0.0,0.0,0.0,0.0,0.0,0.0,0.0,0.0,0.0,0.0,0.0,0.0,0.0,0.0,0.0,0.0,0.0,0.0,0.0,0.0,0.0,0.0,0.0,0.0,0.0,0.0,0.0,0.0,0.0,0.0,0.0,0.0,0.0,0.0,0.0,0.0,0.0,0.0,0.0,0.0,0.0,0.0,0.0,0.0,0.0,0.0,0.0,0.0,0.0,0.0,0.0,0.0,0.0,0.0,0.0,0.0,0.0,0.0,0.0,0.0,0.0,0.0,0.0,0.0,0.0,0.0,0.0,0.0,0.0,0.0,0.0,0.0,0.0,0.0,0.0,0.0,0.0,0.0,0.0,0.0,0.0,0.0,0.0,0.0,0.0,0.0,0.0,0.0,0.0,0.0,0.0,0.0,0.0,0.0,0.0,0.0,0.0,0.0,0.0,0.0,0.0,0.0,0.0,0.0,0.0,0.0,0.0,0.0,0.0,0.0,0.0,0.0,0.0,0.0,0.0,0.0,0.0,0.0,0.0,0.0,0.0,0.0,0.0,0.0,0.0,0.0,0.0,0.0,0.0,0.0,0.0,0.0,0.0,0.0,0.0,0.0,0.0,0.0,0.0,0.0,0.0,0.0,0.0,0.0,0.0,0.0,0.0,0.0,0.0,0.0,0.0,0.0,0.0,0.0,0.0,0.0,0.0,0.0,0.0,0.0,0.0,0.0,0.0,0.0,0.0,0.0,0.0,0.0,0.0,0.0,0.0,0.0,0.0,0.0,0.0,0.0,0.0,0.0,0.0,0.0,0.0,0.0,0.0,0.0,0.0,0.0,0.0,0.0,0.0,0.0,0.0,0.0,0.0,0.0,0.0,0.0,0.0,0.0,0.0,0.0,0.0,0.0,0.0,0.0,0.0,0.0,0.0,0.0,0.0,0.0,0.0,0.0,0.0,0.0,0.0,0.0,0.0,0.0,0.0,0.0,0.0,0.0,0.0,0.0,0.0,0.0,0.0,0.0,0.0,0.0,0.0,0.0,0.0,0.0,0.0,0.0,0.0,0.0,0.0,0.0,0.0,0.0,0.0,0.0,0.0,0.0,0.0,0.0,0.0,0.0,0.0,0.0,0.0,0.0,0.0,0.0,0.0,0.0,0.0,0.0,0.0,0.0,0.0,0.0,0.0,0.0,0.0,0.0,0.0,0.0,0.0,0.0,0.0,0.0,0.0,0.0,0.0,0.0,0.0,0.0,0.0,0.0,0.0,0.0,0.0,0.0,0.0,0.0,0.0,0.0,0.0,0.0,0.0,0.0,0.0,0.0,0.0,0.0,0.0,0.0,0.0,0.0,0.0,0.0,0.0,0.0,0.0,0.0,0.0,0.0,0.0,0.0,0.0,0.0,0.0,0.0,0.0,0.0,0.0,0.0,0.0,0.0,0.0,0.0,0.0,0.0,0.0,0.0,0.0,0.0,0.0,0.0,0.0,0.0,0.0,0.0,0.0,0.0,0.0,0.0,0.0,0.0,0.0,0.0,0.0,0.0,0.0,0.0,0.0,0.0,0.0,0.0,0.0,0.0,0.0,0.0,0.0,0.0,0.0,0.0,0.0,0.0,0.0,0.0,0.0,0.0,0.0,0.0,0.0,0.0,0.0,0.0,0.0,0.0,0.0,0.0,0.0,0.0,0.0,0.0,0.0,0.0,0.0,0.0,0.0,0.0,0.0,0.0,0.0,0.0,0.0,0.0,0.0,0.0,0.0,0.0,0.0,0.0,0.0,0.0,0.0,0.0,0.0,0.0,0.0,0.0,0.0,0.0,0.0,0.0,0.0,0.0,0.0,0.0,0.0,0.0,0.0,0.0,0.0,0.0,0.0,0.0,0.0,0.0,0.0,0.0,0.0,0.0,0.0,0.0,0.0,0.0,0.0,0.0,0.0,0.0,0.0,0.0,0.0,0.0,0.0,0.0,0.0,0.0,0.0,0.0,0.0,0.0,0.0,0.0,0.0,0.0,0.0,0.0,0.0,0.0,0.0,0.0,0.0,0.0,0.0,0.0,0.0,0.0,0.0,0.0,0.0,0.0,0.0,0.0,0.0,0.0,0.0,0.0,0.0,0.0,0.0,0.0,0.0,0.0,0.0,0.0,0.0,0.0,0.0,0.0,0.0,0.0,0.0,0.0,0.0,0.0,0.0,0.0,0.0,0.0,0.0,0.0,0.0,0.0,0.0,0.0,0.0,0.0,0.0,0.0,0.0,0.0,0.0,0.0,0.0,0.0,0.0,0.0,0.0,0.0,0.0,0.0,0.0,0.0,0.0,0.0,0.0,0.0,0.0,0.0,0.0,0.0,0.0,0.0,0.0,0.0,0.0,0.0,0.0,0.0,0.0,0.0,0.0,0.0,0.0,0.0,0.0,0.0,0.0,0.0,0.0,0.0,0.0,0.0,0.0,0.0,0.0,0.0,0.0,0.0,0.0,0.0,0.0,0.0,0.0,0.0,0.0,0.0,0.0,0.0,0.0,0.0,0.0,0.0,0.0,0.0,0.0,0.0,0.0,0.0,0.0,0.0,0.0,0.0,0.0,0.0,0.0,0.0,0.0,0.0,0.0,0.0,0.0,0.0,0.0,0.0,0.0,0.0,0.0,0.0,0.0,0.0,0.0,0.0,0.0,0.0,0.0,0.0,0.0,0.0,0.0,0.0,0.0,0.0,0.0,0.0,0.0,0.0,0.0,0.0,0.0,0.0,0.0,0.0,0.0,0.0,0.0,0.0,0.0,0.0,0.0,0.0,0.0,0.0,0.0,0.0,0.0,0.0,0.0,0.0,0.0,0.0,0.0,0.0,0.0,0.0,0.0,0.0,0.0,0.0,0.0,0.0,0.0,0.0,0.0,0.0,0.0,0.0,0.0,0.0,0.0,0.0,0.0,0.0,0.0,0.0,0.0,0.0,0.0,0.0,0.0,0.0,0.0,0.0,0.0,0.0,0.0,0.0,0.0,0.0,0.0,0.0,0.0,0.0,0.0,0.0,0.0,0.0,0.0,0.0,0.0,0.0,0.0,0.0,0.0,0.0,0.0,0.0,0.0,0.0,0.0,0.0,0.0,0.0,0.0,0.0,0.0,0.0,0.0,0.0,0.0,0.0,0.0,0.0,0.0,0.0,0.0,0.0,0.0,0.0,0.0,0.0,0.0,0.0,0.0,0.0,0.0,0.0,0.0,0.0,0.0,0.0,0.0,0.0,0.0,0.0,0.0,0.0,0.0,0.0,0.0,0.0,0.0,0.0,0.0,0.0,0.0,0.0,0.0,0.0,0.0,0.0,0.0,0.0,0.0,0.0,0.0,0.0,0.0,0.0,0.0,0.0,0.0,0.0,0.0,0.0,0.0,0.0,0.0,0.0,0.0,0.0,0.0,0.0,0.0,0.0,0.0,0.0,0.0,0.0,0.0,0.0,0.0,0.0,0.0,0.0,0.0,0.0,0.0,0.0,0.0,0.0,0.0,0.0,0.0,0.0,0.0,0.0,0.0,0.0,0.0,0.0,0.0,0.0,0.0,0.0,0.0,0.0,0.0,0.0,0.0,0.0,0.0,0.0,0.0,0.0,0.0,0.0,0.0,0.0,0.0,0.0,0.0,0.0,0.0,0.0,0.0,0.0,0.0,0.0,0.0,0.0,0.0,0.0,0.0,0.0,0.0,0.0,0.0,0.0,0.0,0.0,0.0,0.0,0.0,0.0,0.0,0.0,0.0,0.0,0.0,0.0,0.0,0.0,0.0,0.0,0.0,0.0,0.0,0.0,0.0,0.0,0.0,0.0,0.0,0.0,0.0,0.0,0.0,0.0,0.0,0.0,0.0,0.0,0.0,0.0,0.0,0.0,0.0,0.0,0.0,0.0,0.0,0.0,0.0,0.0,0.0,0.0,0.0,0.0,0.0,0.0,0.0,0.0,0.0,0.0,0.0,0.0,0.0,0.0,0.0,0.0,0.0,0.0,0.0,0.0,0.0,0.0,0.0,0.0,0.0,0.0,0.0,0.0,0.0,0.0,0.0,0.0,0.0,0.0,0.0,0.0,0.0,0.0,0.0,0.0,0.0,0.0,0.0,0.0,0.0,0.0,0.0,0.0,0.0,0.0,0.0,0.0,0.0,0.0,0.0,0.0,0.0,0.0,0.0,0.0,0.0,0.0,0.0,0.0,0.0,0.0,0.0,0.0,0.0,0.0,0.0,0.0,0.0,0.0,0.0,0.0,0.0,0.0,0.0,0.0,0.0,0.0,0.0,0.0,0.0,0.0,0.0,0.0,0.0,0.0,0.0,0.0,0.0,0.0,0.0,0.0,0.0,0.0,0.0,0.0,0.0,0.0,0.0,0.0,0.0,0.0,0.0,0.0,0.0,0.0,0.0,0.0,0.0,0.0,0.0,0.0,0.0,0.0,0.0,0.0,0.0,0.0,0.0,0.0,0.0,0.0,0.0,0.0,0.0,0.0,0.0,0.0,0.0,0.0,0.0,0.0,0.0,0.0,0.0,0.0,0.0,0.0,0.0,0.0,0.0,0.0,0.0,0.0,0.0,0.0,0.0,0.0,0.0,0.0,0.0,0.0,0.0,0.0,0.0,0.0,0.0,0.0,0.0,0.0,0.0,0.0,0.0,0.0,0.0,0.0,0.0,0.0,0.0,0.0,0.0,0.0,0.0,0.0,0.0,0.0,0.0,0.0,0.0,0.0,0.0,0.0,0.0,0.0,0.0,0.0,0.0,0.0,0.0,0.0,0.0,0.0,0.0,0.0,0.0,0.0,0.0,0.0,0.0,0.0,0.0,0.0,0.0,0.0,0.0,0.0,0.0,0.0,0.0,0.0,0.0,0.0,0.0,0.0,0.0,0.0,0.0,0.0,0.0,0.0,0.0,0.0,0.0,0.0,0.0,0.0,0.0,0.0,0.0,0.0,0.0,0.0,0.0,0.0,0.0,0.0,0.0,0.0,0.0,0.0,0.0,0.0,0.0,0.0,0.0,0.0,0.0,0.0,0.0,0.0,0.0,0.0,0.0,0.0,0.0,0.0,0.0,0.0,0.0,0.0,0.0,0.0,0.0,0.0,0.0,0.0,0.0,0.0,0.0,0.0,0.0,0.0,0.0,0.0,0.0,0.0,0.0,0.0,0.0,0.0,0.0,0.0,0.0,0.0,0.0,0.0,0.0,0.0,0.0,0.0,0.0,0.0,0.0,0.0,0.0,0.0,0.0,0.0,0.0,0.0,0.0,0.0,0.0,0.0,0.0,0.0,0.0,0.0,0.0,0.0,0.0,0.0,0.0,0.0,0.0,0.0,0.0,0.0,0.0,0.0,0.0,0.0,0.0,0.0,0.0,0.0,0.0,0.0,0.0,0.0,0.0,0.0,0.0,0.0,0.0,0.0,0.0,2.8536,2.8166,0.0,0.0,0.0,0.0,0.0,0.0,0.0,0.0,0.0,0.0,0.0,0.0,0.0,0.0,0.0,0.0,0.0,0.0,0.0,0.0,0.0,0.0,0.0,0.9511,0.9592,1.0562,0.9875,0.9242,0.8889,0.0,0.0,0.0,0.0,0.0,0.3705,0.3663,0.3451,0.2989,0.3007,0.3722,0.5154,0.7249,0.9012,1.0369,0.0,0.0,0.0,0.0,0.0,0.0,0.0,0.0,0.0,0.0,0.0,0.0,0.0,0.0,0.0,0.0,0.0,0.0,0.0,0.0,0.0,0.0,0.0,0.0,0.0,0.0,0.0,0.0,0.0,0.0,0.0,0.0,0.0,0.0,0.0,0.0,0.0,0.0,0.0,0.0,0.0,0.0,0.0,0.0,0.0,0.0,0.0,0.0,0.0,0.0,0.0,0.0,0.0,0.0,0.0,0.0,0.0,0.0,0.0,0.0,0.0,0.0,0.0,0.0,0.0,0.0,0.0,0.0,0.0,0.0,2.9687,2.9199,0.0,0.0,0.0,0.0,0.0,0.0,0.0,0.0,0.0,0.0,0.0,0.0,0.0,0.0,0.0,0.0,0.0,0.0,0.0,0.0,0.0,0.5432,0.6835,0.7016,0.7627,0.9155,0.8852,0.8338,0.7754,0.7482,0.0,0.0,0.4578,0.4046,0.2859,0.2838,0.2869,0.2932,0.3452,0.4271,0.5365,0.6715,0.8947,1.1739,1.0215,0.0,0.0,0.0,0.0,0.0,0.0,0.0,0.0,0.0,0.0,0.0,0.0,0.0,0.0,0.0,0.0,0.0,0.0,0.0,0.0,0.0,0.0,0.0,0.0,0.0,0.0,0.0,0.0,0.0,0.0,0.0,0.0,0.0,0.0,0.0,0.0,0.0,0.0,0.0,0.0,0.0,0.0,0.0,0.0,0.0,0.0,0.0,0.0,0.0,0.0,0.0,0.0,0.0,0.0,0.0,0.0,0.0,0.0,0.0,0.0,0.0,0.0,0.0,3.082,3.0996,3.0996,3.0996,3.123,3.1582,3.0859,3.0488,3.0371,2.964,0.0,0.0,0.0,0.0,0.0,0.0,0.0,0.0,0.0,0.0,0.0,0.0,0.0,0.0,0.0,0.0,0.0,0.0,0.0,0.2538,0.4733,0.414,0.4659,0.7373,0.5494,0.4616,0.5699,0.4632,0.3766,0.3348,0.3345,0.2859,0.1818,0.1796,0.1972,0.2308,0.4834,0.6144,0.6335,0.7674,0.9141,1.0584,0.9375,0.9628,1.0974,0.0,0.0,0.0,0.0,0.0,0.0,0.0,0.0,0.0,0.0,0.0,0.0,0.0,0.0,0.0,0.0,0.0,0.0,0.0,0.0,0.0,0.0,0.0,0.0,0.0,0.0,0.0,0.0,0.0,0.0,0.0,0.0,0.0,0.0,0.0,0.0,0.0,0.0,0.0,0.0,0.0,1.651,1.6961,0.0,0.0,0.0,0.0,0.0,0.0,0.0,0.0,0.0,0.0,0.0,0.0,0.0,2.7492,3.0703,3.1133,3.1318,3.1318,3.1406,3.1426,3.1426,3.1426,3.168,3.2101,3.1983,0.0,3.1328,3.1201,0.0,0.0,0.0,0.0,0.0,0.0,0.0,0.0,0.0,0.0,0.0,0.0,0.0,0.0,0.0,0.0,0.0,0.0,0.0,0.0,0.0,0.112,0.2024,0.3932,0.447,0.4942,0.5474,0.4996,0.434,0.3519,0.2777,0.1854,0.0719,0.0704,0.1196,0.2191,0.509,0.6499,0.6526,0.787,0.8793,0.9313,0.8805,0.9554,1.1182,1.06,0.0,0.0,0.0,0.0,0.0,0.0,0.0,0.0,0.0,0.0,0.0,0.0,0.0,0.0,0.0,0.0,0.0,0.0,0.0,0.0,0.0,0.0,0.0,0.0,0.0,0.0,0.0,0.0,0.0,0.0,0.0,0.0,0.0,0.0,0.0,0.0,0.0,0.0,0.0,1.2982,1.4686,1.6674,1.7601,1.8402,0.0,0.0,0.0,0.0,0.0,0.0,0.0,0.0,0.0,2.4421,2.5106,2.638,2.8341,2.9775,3.0597,3.076,3.1981,3.2547,3.2547,3.2547,3.2695,3.2871,3.2871,3.2754,3.2508,3.1816,3.1623,3.1759,0.0,0.0,0.0,0.0,3.4063,3.5442,0.0,0.0,0.0,0.0,0.0,0.0,0.0,0.0,0.0,0.0,0.0,0.0,-0.2517,-0.1248,0.0121,0.1563,0.3642,0.4977,0.5181,0.5324,0.4789,0.34,0.2389,0.1259,0.0024,0.0801,0.1933,0.3451,0.5992,0.724,0.7267,0.8272,0.8736,0.8736,0.8696,0.9678,1.1278,1.0099,0.9976,1.0489,0.0,0.0,0.0,0.0,0.0,0.0,0.0,0.0,0.0,0.0,0.0,0.0,0.0,0.0,0.0,0.0,0.0,0.0,0.0,0.0,0.0,0.0,0.0,0.0,0.0,0.0,0.0,0.0,0.0,0.0,0.0,0.0,0.0,0.0,0.0,0.0,0.0,1.229,1.3806,1.6265,1.7369,1.8423,0.0,0.0,0.0,0.0,0.0,0.0,2.1203,2.2015,2.2914,2.3964,2.4796,2.5774,2.6862,2.849,2.9671,3.037,3.1878,3.2801,3.323,3.277,3.2833,3.323,3.2885,3.3065,3.3516,3.2441,3.1934,3.1816,3.1504,3.1387,3.1633,3.357,3.5114,3.6663,0.0,0.0,0.0,0.0,0.0,0.0,0.0,0.0,0.0,0.0,0.0,-0.4629,-0.3633,-0.2427,-0.0712,0.1767,0.2216,0.2864,0.4017,0.4196,0.3627,0.2159,0.2032,0.1368,0.0026,0.2923,0.5258,0.6855,0.8478,0.9247,0.9247,0.9334,0.9362,0.9356,0.9213,0.966,1.0466,1.038,1.0239,1.0128,1.098,0.0,0.0,0.0,0.0,0.0,0.0,0.0,0.0,0.0,0.0,0.0,0.0,0.0,0.0,0.0,0.0,0.0,0.0,0.0,0.0,0.0,0.0,0.0,0.0,0.0,0.0,0.0,0.0,0.0,0.0,0.0,0.0,0.0,0.0,0.0,0.0,0.0,0.0,1.537,1.842,0.0,0.0,0.0,0.0,2.1042,2.0828,2.0953,2.1529,2.1338,2.2354,2.4919,2.5065,2.6071,2.8081,2.8213,2.9097,3.0767,3.0488,3.1226,3.277,3.1132,3.1258,3.2758,3.1458,3.2123,3.4036,3.3516,3.3086,3.2734,3.2715,3.2695,3.2951,3.5096,3.7115,3.9153,0.0,0.0,0.0,-0.3182,-0.3188,-0.3237,-0.368,-0.3815,-0.4061,-0.4586,-0.4354,-0.4033,-0.3761,-0.2578,-0.1048,0.0805,0.2714,0.4366,0.566,0.5781,0.5088,0.3491,0.2499,0.188,0.1605,0.4665,0.6028,0.5549,0.7069,0.7264,0.6239,0.6239,0.6239,0.6235,0.6199,0.635,0.6733,0.8541,0.968,1.0188,0.9526,0.9148,0.0,0.0,0.0,0.0,0.0,0.0,0.0,0.0,0.0,0.0,0.0,0.0,0.0,0.0,0.0,0.0,0.0,0.0,0.0,0.0,0.0,0.0,0.0,0.0,0.0,0.0,0.0,0.0,0.0,0.0,0.0,0.0,0.0,0.0,0.0,0.0,0.0,1.7343,1.8629,0.0,2.0854,2.1154,2.1395,2.1657,2.175,2.1977,2.2412,2.2111,2.2382,2.3328,2.3362,2.3803,2.4791,2.6132,2.7786,2.9781,3.0809,3.225,3.3991,3.3372,3.3437,3.3991,3.3526,3.3745,3.4473,3.4316,3.416,3.4023,3.4023,3.472,3.5777,3.6551,3.8662,4.1061,0.0,0.0,0.0,-0.206,-0.211,-0.2189,-0.2589,-0.2744,-0.2981,-0.346,-0.3217,-0.2836,-0.2422,-0.1154,0.0254,0.1782,0.4132,0.5824,0.6576,0.6671,0.5927,0.4196,0.2884,0.2785,0.4114,0.5594,0.6123,0.5627,0.6013,0.5687,0.4647,0.4647,0.4647,0.4644,0.4591,0.4578,0.4686,0.6525,0.7721,0.8399,0.8249,0.8441,0.8794,0.0,0.0,0.0,0.0,0.0,0.0,0.0,0.0,0.0,0.0,0.0,0.0,0.0,0.0,0.0,0.0,0.0,0.0,0.0,0.0,0.0,0.0,0.0,0.0,0.0,0.0,0.0,0.0,0.0,0.0,0.0,0.0,0.0,0.0,1.583,1.7417,1.8585,1.9374,2.0239,2.1307,2.1703,2.1997,2.2291,2.2458,2.2699,2.3041,2.2832,2.2766,2.2873,2.2873,2.3262,2.4128,2.552,2.7539,3.0191,3.1409,3.2933,3.4674,3.4096,3.4162,3.4674,3.423,3.4373,3.4941,3.5078,3.5156,3.5117,3.4805,3.5856,3.755,3.8156,3.9882,4.1769,0.0,0.0,0.0,0.0,0.0,-0.0395,-0.1564,-0.1749,-0.2218,-0.3514,-0.2496,-0.1111,0.0313,0.1714,0.323,0.4845,0.6278,0.6932,0.6545,0.6634,0.5907,0.4103,0.3129,0.413,0.7333,0.581,0.5746,0.7337,0.5655,0.4797,0.4739,0.4739,0.4739,0.4735,0.4603,0.4544,0.4537,0.4408,0.435,0.4604,0.7368,0.7651,0.6712,0.0,0.0,0.0,0.0,0.0,0.0,0.0,0.0,0.0,0.0,0.0,0.0,0.0,0.0,0.0,0.0,0.0,0.0,0.0,0.0,0.0,0.0,0.0,0.0,0.0,0.0,0.0,0.0,0.0,0.0,0.0,0.0,0.0,1.6536,1.812,1.9211,1.8884,2.0733,2.2031,2.2031,2.2285,2.2579,2.2907,2.292,2.302,2.3292,2.3375,2.3544,2.379,2.3924,2.484,2.6608,2.6693,2.8549,3.2134,3.2134,3.3055,3.468,3.297,3.3136,3.4667,3.3378,3.3786,3.5449,3.5859,3.5982,3.5937,3.5078,3.6045,3.812,3.9831,4.0723,4.1117,0.0,0.0,0.0,0.0,0.0,-0.0114,-0.0435,-0.05,-0.0619,-0.0999,0.0322,0.1482,0.1886,0.331,0.4913,0.6568,0.7085,0.7199,0.6939,0.6879,0.6098,0.4431,0.5462,0.6473,0.7366,0.696,0.6359,0.5582,0.3969,0.255,0.1338,0.1338,0.1338,0.1337,0.13,0.1298,0.1297,0.126,0.1226,0.1503,0.445,0.5392,0.5249,0.0,0.0,0.0,0.0,0.0,0.0,0.0,0.0,0.0,0.0,0.0,0.0,0.0,0.0,0.0,0.0,0.0,0.0,0.0,0.0,0.0,0.0,0.0,0.0,0.0,0.0,0.0,0.0,0.0,0.0,0.0,1.7902,1.9345,1.9125,2.0708,2.193,2.2025,2.2572,2.2953,2.2953,2.322,2.3469,2.3549,2.3549,2.3589,2.3647,2.4932,2.5115,2.3839,2.6672,2.7784,2.6903,2.8475,3.0503,3.2914,3.2914,3.3858,3.563,3.5138,3.5206,3.563,3.5254,3.5379,3.5859,3.5942,3.5982,3.5962,3.5742,3.679,3.8474,3.8966,3.9193,3.9322,0.1592,0.1627,0.1682,0.1682,0.1216,0.0845,0.0828,0.0964,0.1059,0.104,0.2474,0.3781,0.4469,0.5392,0.6626,0.8276,0.8404,0.8021,0.7079,0.63,0.5839,0.5714,0.685,0.7825,0.8585,0.7988,0.7212,0.6323,0.3878,0.2179,0.1181,0.0394,0.0,0.0,0.0,0.0,0.0,0.0,0.0,0.0164,0.1894,0.3044,0.3834,0.5376,0.5903,0.5967,0.6739,0.7477,0.8053,0.7975,0.0,0.0,0.0,0.0,0.0,0.0,0.0,0.0,0.0,0.0,0.0,0.0,0.0,0.0,0.0,0.0,0.0,0.0,0.0,0.0,0.0,0.0,0.0,0.0,1.9704,2.1013,2.1725,2.2649,2.326,2.3292,2.3434,2.3514,2.3514,2.371,2.3803,2.3803,2.3888,2.43,2.5079,2.6316,2.6475,2.5397,2.8436,2.9539,2.8373,3.0458,3.249,3.4383,3.4383,3.5047,3.6289,3.6289,3.6387,3.6562,3.6562,3.6562,3.6562,3.6562,3.6562,3.6523,0.0,0.0,0.0,0.0,3.9151,3.9051,0.3873,0.393,0.4003,0.4003,0.3033,0.2264,0.2282,0.2547,0.2764,0.2764,0.4185,0.5734,0.7246,0.7576,0.8252,0.967,0.9633,0.8708,0.6833,0.5562,0.5638,0.7408,0.7764,0.8675,1.0292,0.8815,0.8136,0.8289,0.4669,0.2896,0.2868,0.0912,0.0,0.0,0.0,0.0,0.0,0.0,0.0,0.0,0.0,0.089,0.2379,0.402,0.4571,0.4488,0.467,0.5552,0.672,0.6941,0.0,0.0,0.0,0.0,0.0,0.0,0.0,0.0,0.0,0.0,0.0,0.0,0.0,0.0,0.0,0.0,0.0,0.0,0.0,0.0,0.0,0.0,0.0,0.0,2.098,2.221,2.3951,2.4008,2.3754,2.3425,2.3661,2.3857,2.3857,2.3884,2.391,2.391,2.4102,2.5055,2.6971,2.7542,0.0,0.0,0.0,3.0924,3.0781,3.2684,3.4514,3.6172,3.6172,3.6367,3.6773,3.6773,3.6953,3.7305,3.7305,3.7305,3.7305,3.7305,3.7324,3.7285,3.6484,3.7305,3.9044,3.946,3.9605,3.9385,0.4385,0.3974,0.4013,0.4013,0.3865,0.3826,0.3999,0.4159,0.4321,0.4425,0.5877,0.704,0.7378,0.8556,0.9451,0.9761,0.8617,0.7164,0.5544,0.6518,0.7375,0.7857,0.9215,1.0149,1.0596,0.9059,0.8256,0.8309,0.4669,0.2884,0.2847,0.0904,0.0,0.0,0.0,0.0,0.0,0.0,0.0,0.0,0.0,0.0205,0.0664,0.2321,0.2952,0.3101,0.4389,0.505,0.5532,0.7101,0.7712,0.8118,0.9708,1.0114,0.0,0.0,0.0,0.0,0.0,0.0,0.0,0.0,0.0,0.0,0.0,0.0,0.0,0.0,0.0,0.0,0.0,0.0,0.0,2.09,2.2636,2.3993,2.4186,2.4356,2.4319,2.4062,2.4088,2.4115,2.4115,2.4329,2.4439,2.4439,2.4479,2.5373,2.7292,2.8904,2.9907,3.0323,3.3674,3.4878,3.3714,3.555,3.6681,3.7051,3.7051,0.0,3.7168,3.7168,3.7226,3.7305,3.7305,3.7305,3.7305,3.7305,3.75,3.7718,3.7246,3.73,3.7693,3.7773,3.7792,3.7742,0.6493,0.6265,0.6265,0.6265,0.5746,0.5417,0.5567,0.5776,0.5972,0.6142,0.7573,0.8612,0.8611,0.9265,0.971,0.9785,0.8464,0.7269,0.6503,0.7448,0.8454,0.9303,1.0207,1.0826,1.105,1.0326,1.0039,1.0203,0.7402,0.6058,0.6025,0.4068,0.3163,0.3163,0.3163,0.3163,0.309,0.2002,0.1566,0.1456,0.0401,0.0,0.0107,0.093,0.124,0.1349,0.2169,0.2994,0.3863,0.4832,0.5646,0.6599,0.8536,0.9098,0.9246,0.0,0.0,0.0,0.0,0.0,0.0,0.0,0.0,0.0,0.0,0.0,0.0,0.0,0.0,1.905,1.9989,0.0,2.2589,2.2669,2.3758,2.4546,2.4399,2.4506,2.4492,2.4235,2.4329,2.4386,2.4386,2.4519,2.4599,2.4599,2.5704,2.7196,2.9131,3.1258,3.2502,3.2728,3.551,3.6208,3.4522,3.6382,3.7305,3.7305,3.7305,3.7402,3.7617,3.7832,3.8047,3.8262,3.8496,3.8594,3.8594,3.8594,3.873,3.8887,3.8691,3.8457,3.8281,3.8516,3.8594,3.8594,0.854,0.8574,0.8554,0.8519,0.763,0.6974,0.7116,0.7381,0.761,0.7803,0.8968,0.9792,0.9792,0.972,0.9543,0.9347,0.8729,0.8188,0.7863,0.8513,0.9502,1.0826,1.1002,1.1212,1.1518,1.164,1.1823,1.2098,1.0168,0.9185,0.9147,0.7194,0.6292,0.6292,0.6292,0.6292,0.618,0.4452,0.3738,0.3587,0.189,0.121,0.1242,0.1215,0.0965,0.0607,0.0607,0.147,0.2608,0.2572,0.3684,0.5399,0.7319,0.8225,0.8839,1.0415,1.0785,0.0,0.0,0.0,0.0,0.0,0.0,0.0,0.0,1.8868,2.0093,2.0242,2.0869,2.1811,2.3205,2.3892,2.4302,2.4369,2.4569,2.4706,2.4759,2.4773,2.4679,2.4489,2.4609,2.4706,2.4759,2.4773,2.4773,2.4773,2.6512,2.8612,3.0953,3.2886,3.4306,3.5117,3.6715,3.6882,3.5428,3.7,3.7793,3.7793,3.7793,3.7988,3.8284,3.8672,3.9023,3.9355,3.9726,3.9902,3.9902,3.9902,3.9941,4.0019,4.0019,3.9883,3.9726,3.9844,3.9902,3.9902,0.8831,0.8858,0.8777,0.8526,0.8488,0.8493,0.8631,0.8944,0.9182,0.9347,0.9613,0.9792,0.9792,0.9778,0.9219,0.7789,0.9222,0.9579,0.8074,0.9893,1.1199,1.1475,1.1617,1.1809,1.2023,1.2043,1.2064,1.2098,1.0168,0.9185,0.9147,0.7194,0.6292,0.6292,0.6292,0.6292,0.6292,0.6029,0.5954,0.5917,0.5691,0.5578,0.5613,0.5612,0.4403,0.2744,0.2744,0.2867,0.2979,0.2767,0.4023,0.6033,0.7831,0.9674,1.1226,1.1446,1.1409,1.1267,1.12,1.1212,1.226,1.624,1.6307,1.6312,0.0,2.0769,2.0995,2.084,2.24,2.3872,2.4066,2.4332,2.4639,2.4943,2.501,2.5117,2.5384,2.5411,2.5398,2.5371,2.517,2.513,2.5384,2.5411,2.5411,2.5411,2.5628,2.7418,3.115,3.1586,3.3526,3.7383,3.8114,3.854,3.867,3.9283,3.9609,3.9609,3.9609,3.9629,3.9668,3.9726,3.9766,3.9824,3.9883,3.9902,3.9902,3.9902,4.0117,4.0411,4.0411,4.0879,4.1387,4.0293,3.9902,3.9902,0.9203,0.8967,0.8872,0.8743,0.877,0.8865,0.9042,0.9274,0.9435,0.9591,0.9704,0.9792,0.9792,0.9792,0.9115,0.7361,0.9297,0.9957,0.8395,1.0391,1.1714,1.187,1.1932,1.2033,1.2189,1.2234,1.2237,1.2318,1.1505,1.1117,1.1117,1.0309,0.9922,0.9922,0.9922,0.9922,0.9845,0.8617,0.8119,0.8004,0.6777,0.6316,0.6431,0.7659,0.7557,0.6584,0.525,0.4791,0.0,0.4674,0.5192,0.6253,0.8264,0.9358,1.0185,1.1494,1.1647,1.1436,1.1669,1.2838,1.4638,1.7527,1.8663,1.9774,2.2472,2.3106,2.3143,2.307,2.3938,2.4716,2.4716,2.4943,2.5184,2.5304,2.5331,2.5371,2.5491,2.5518,2.5571,2.5784,2.5703,2.561,2.5518,2.5518,2.5585,2.5797,2.7014,2.8582,3.0437,3.3011,3.5259,3.7091,3.8587,3.9434,3.9609,3.9805,3.9902,3.9902,3.9902,3.9902,3.9902,4.0156,4.0527,4.0996,4.0996,4.1133,4.1367,4.1367,4.1426,4.1601,4.1601,4.1816,4.207,4.1289,4.1152,4.1328,0.9314,0.8981,0.8912,0.8912,0.8912,0.8946,0.9104,0.9247,0.939,0.9469,0.9612,0.9713,0.9724,0.9731,0.9245,0.7946,0.9564,1.022,0.9171,1.0796,1.1898,1.2091,1.2179,1.2275,1.2345,1.2345,1.24,1.2501,1.2501,1.2501,1.2501,1.2501,1.2501,1.2501,1.2501,1.2501,1.2385,1.0895,1.0275,1.0114,0.8566,0.7972,0.8122,0.9603,1.0114,0.9769,0.7601,0.6817,0.6693,0.6058,0.6203,0.6946,0.8519,0.926,0.9887,1.1608,1.2297,1.2583,1.3058,1.4857,1.7102,1.9264,2.0919,2.2562,2.4534,2.4997,2.4983,2.4853,2.505,2.5197,2.5197,2.5371,2.5545,2.5625,2.5638,2.5665,2.5745,2.5758,2.5865,2.6159,2.6238,2.6146,2.6012,2.5919,2.5999,2.6332,2.7889,2.9168,2.9982,3.3077,3.5374,3.6569,3.8289,3.947,4.0078,4.0312,4.043,4.043,4.0547,4.0586,4.0605,4.0879,4.1387,4.1973,4.1973,4.2148,4.2382,4.2382,4.2323,4.2206,4.2206,4.2284,4.2343,4.1953,4.1992,4.2207,0.8986,0.8811,0.8912,0.8912,0.8912,0.8912,0.8919,0.9069,0.9221,0.9221,0.9328,0.9449,0.9598,0.9618,0.9636,0.9711,1.0204,1.0529,1.0618,1.1381,1.1898,1.2091,1.2338,1.2488,1.2494,1.2494,1.2501,1.2501,1.2501,1.2501,1.2501,1.2501,1.2501,1.2501,1.2501,1.2501,1.2501,1.2424,1.2424,1.2372,1.2199,1.2101,1.2126,1.2053,1.1905,1.146,0.9521,0.8805,0.8472,0.6184,0.6745,0.8446,0.8492,0.999,1.174,1.2013,1.3551,1.5265,1.5769,1.7157,1.9181,2.205,2.2717,2.324,2.5478,2.5957,2.5877,2.5545,2.5491,2.5504,2.5504,2.5504,2.5611,2.5931,2.5984,2.6078,2.6319,2.636,2.6466,2.672,2.68,2.6907,2.7229,2.6947,2.6907,2.7242,2.731,2.8232,3.0165,3.042,3.2356,3.6492,3.7102,3.8389,4.0469,4.1328,4.1738,4.1758,4.2148,4.2304,4.2304,4.2323,4.2343,4.2362,4.2362,4.2382,4.2382,4.2382,4.2187,4.1816,4.1816,4.207,4.2343,4.1953,4.1816,4.1816,0.9659,1.0064,1.0498,0.9432,0.9232,0.9232,0.9232,0.9213,0.922,0.9322,0.9517,0.0,0.0,0.0,0.0,0.0,1.0148,1.046,1.0704,1.1293,1.1803,1.2091,1.2345,1.2501,1.2501,1.3791,1.4475,1.4475,1.4475,1.4475,1.4475,1.3112,1.2501,1.2501,1.2501,1.2447,1.2359,1.2359,1.2305,1.2241,1.2193,1.2179,1.2173,1.2118,1.1965,1.17,0.0,1.0563,1.0437,0.9662,0.9847,1.0452,1.0631,1.1134,1.1989,1.359,1.5946,1.8067,1.8396,2.0061,2.2037,2.3112,2.4135,2.5075,2.5842,2.5837,2.5638,2.5531,2.5665,2.585,2.585,2.5959,2.6186,2.648,2.6533,2.6627,2.6974,2.7015,2.7041,2.7108,2.7121,2.7228,2.7522,2.7295,2.7241,2.7535,2.7549,2.796,2.8841,3.1889,3.427,3.5702,3.8933,4.1046,4.1738,4.203,4.2207,4.2207,4.2363,4.2382,4.2382,4.2382,4.2578,4.2851,4.2851,4.2851,4.2851,4.2851,4.2773,4.2656,4.2656,4.291,4.3262,4.3105,4.2891,4.2558,1.1481,1.1874,1.2289,1.1257,1.1093,0.0,0.0,0.0,0.0,0.0,0.0,0.0,0.0,0.0,0.0,0.0,0.0,1.1202,1.1526,1.2555,1.3291,1.3672,1.3927,1.4038,1.4038,1.5291,1.6025,1.6134,1.6243,1.6352,1.6415,1.5104,1.4503,1.4495,1.4394,1.3937,1.3244,1.3244,1.278,1.2091,1.1982,1.1904,1.1891,1.1819,1.1647,0.0,1.1266,1.1199,1.1151,1.1151,1.1628,1.2296,1.2468,1.3116,1.4139,1.6026,1.8457,2.0593,2.0917,2.2623,2.4356,2.4548,2.5292,2.6024,2.6131,2.5959,2.5825,2.5825,2.5972,2.6145,2.6145,2.6346,2.6573,2.6653,2.6747,2.6894,2.7081,2.7108,2.7188,2.7443,2.7415,2.7575,2.7989,2.7856,2.7829,2.8003,2.8016,2.8516,2.9691,3.2617,3.5063,3.6614,3.9652,4.162,4.2382,4.2578,4.2734,4.285,4.285,4.285,4.285,4.3047,4.3281,4.3555,4.3555,4.3555,4.3535,4.3359,4.3223,4.3127,4.3127,4.3242,4.3457,4.3301,4.3183,4.3029,1.4193,1.4091,1.4207,0.0,0.0,0.0,0.0,0.0,0.0,0.0,0.0,0.0,0.0,0.0,0.0,0.0,0.0,0.0,1.3146,1.4866,1.6084,1.6535,1.6688,1.6771,1.6742,1.6847,1.7052,1.7368,1.7615,1.7862,1.8148,1.8047,1.801,1.801,1.7736,1.6579,1.4866,1.4866,1.3769,1.203,1.1708,1.1563,1.1572,1.1322,1.109,1.0934,1.0934,1.0907,1.0871,1.0871,1.2278,1.4041,1.405,1.5848,1.8104,1.9081,2.0946,2.2829,2.3409,2.4782,2.6105,2.6346,2.6238,2.6091,2.6333,2.6386,2.6386,2.6386,2.6386,2.6386,2.6386,2.6627,2.6734,2.648,2.668,2.6827,2.6894,2.6867,2.708,2.7682,2.7762,2.7989,2.8577,2.8717,2.8802,2.8816,2.8802,2.9883,3.2351,3.2765,3.4809,3.9104,3.9368,4.0384,4.246,4.291,4.3301,4.3672,4.3691,4.3711,4.375,4.4199,4.4394,4.4394,4.4394,4.4375,4.4297,4.3848,4.3437,4.3127,4.3127,4.3127,4.3066,4.2637,4.2754,4.3105,0.0,0.0,0.0,0.0,0.0,0.0,0.0,0.0,0.0,0.0,0.0,0.0,0.0,0.0,0.0,0.0,0.0,0.0,1.4358,1.5246,1.5761,1.5771,1.6225,1.6294,1.5827,1.7304,1.8106,1.8206,1.8261,1.845,1.8729,1.7178,1.6574,1.6836,1.6742,1.581,1.4223,1.4223,1.3134,1.1417,1.1342,1.1348,1.1443,1.1362,1.1307,1.128,1.128,1.2104,1.3172,1.3265,1.503,1.719,1.7322,1.9111,2.1138,2.125,2.3222,2.5426,2.5569,2.6122,2.6613,2.6694,2.6493,2.6346,2.6373,2.6386,2.6386,2.6386,2.6386,2.6386,2.6386,2.6627,2.6867,2.7055,2.7281,2.7549,2.7817,2.8003,2.8203,2.835,2.8564,2.8708,2.8868,3.048,3.1581,3.1786,3.1625,3.1822,3.2451,3.5946,3.8445,3.9584,4.1545,4.2826,4.3379,4.3496,4.3437,4.3242,4.3555,4.3887,4.4219,4.4355,4.4394,4.4394,4.4394,4.4023,4.3398,4.3281,4.3183,4.3127,4.3127,4.3262,4.3535,4.3418,4.3457,4.3555,0.0,0.0,0.0,0.0,0.0,0.0,0.0,0.0,0.0,0.0,0.0,0.0,0.0,0.0,0.0,0.0,0.0,0.0,0.0,1.673,1.7332,1.7403,1.7716,1.7742,1.7386,1.8395,1.9018,1.9252,1.9252,1.948,1.9895,1.875,1.7929,1.7417,1.7417,1.6126,1.3916,1.3916,1.2845,0.0,0.0,1.1158,1.128,1.1219,1.1747,1.2534,1.2534,1.4527,1.7197,1.7531,1.8488,1.9795,2.1195,2.249,2.3618,2.3979,2.5217,2.6413,2.6547,2.6694,2.6747,2.6667,2.6507,2.6386,2.6386,2.6386,2.6386,2.6386,2.6386,2.6426,2.656,2.6814,2.7068,2.7282,2.7657,2.7991,2.8165,2.8417,2.8657,2.8778,2.8895,2.9379,3.0334,3.0765,3.1798,3.3875,3.3959,3.4435,3.5551,3.8031,3.9979,4.123,4.2666,4.3516,4.3711,4.3711,4.3594,4.3359,4.3594,4.3848,4.4101,4.4316,4.4394,4.4394,4.4394,4.4121,4.3633,4.3437,4.3359,4.3359,4.3359,4.3496,4.3711,4.3711,4.3711,4.3711,0.0,0.0,0.0,0.0,0.0,0.0,0.0,0.0,0.0,1.5618,1.5233,1.5233,0.0,0.0,0.0,0.0,0.0,0.0,0.0,0.0,1.9428,1.9613,1.9666,1.9653,1.9573,1.9319,1.9439,1.9917,1.9917,2.0197,2.0762,2.0762,2.0057,1.8775,1.8585,1.6808,1.3982,1.3785,1.2823,1.1432,1.1002,1.1254,1.1797,0.0,1.2546,1.4404,1.4722,1.7609,2.1341,2.2152,2.2177,2.235,2.4835,2.5478,2.5504,2.648,2.6587,2.644,2.6694,2.676,2.6707,2.6453,2.6386,2.6386,2.6386,2.6386,2.6386,2.6386,2.6386,2.6466,2.672,2.7041,2.7309,2.7309,2.7831,2.8245,2.8245,2.8511,2.8818,2.9028,2.9303,3.0288,3.2256,3.0923,3.1669,3.5814,3.62,3.7237,3.9461,3.964,4.0704,4.3104,4.3164,4.3301,4.3613,4.3672,4.3672,4.3633,4.3672,4.373,4.3808,4.4219,4.4394,4.4394,4.4394,4.4394,4.4355,4.3887,4.373,4.3789,4.373,4.3711,4.3711,4.3711,4.3711,4.3711,0.0,0.0,0.0,0.0,0.0,0.0,0.0,0.0,0.0,0.0,1.8561,1.8561,0.0,0.0,0.0,0.0,0.0,0.0,0.0,0.0,0.0,1.8731,1.8945,1.8823,1.8329,1.8276,1.8303,1.8368,1.8368,1.8569,1.8945,1.8945,1.9055,1.921,1.7899,1.6448,1.4966,1.3745,1.3058,1.2637,1.1163,1.2462,1.5091,1.3476,0.0,0.0,1.8635,2.0234,2.1702,2.3839,2.4979,2.5569,2.6094,2.636,2.652,2.648,2.6426,2.64,2.6453,2.6466,2.6453,2.64,2.6386,2.6386,2.6386,2.6386,2.6386,2.6386,2.6386,2.64,2.6453,2.6907,2.7309,2.7309,2.7976,2.8524,2.8524,2.8991,2.9352,2.9406,3.0988,3.2367,3.3142,3.4271,3.6217,3.925,3.9134,3.9116,3.9562,4.1699,4.3084,4.3594,4.3594,4.3457,4.3183,4.3535,4.3535,4.3183,4.3535,4.3906,4.4277,4.4355,4.4394,4.4394,4.4394,4.4394,4.4355,4.3887,4.3926,4.4238,4.3848,4.3711,4.3711,4.3711,4.3711,4.3711,0.0,0.0,0.0,0.0,0.0,0.0,0.0,1.9615,1.9639,1.98,1.9813,1.9706,1.9428,1.9267,1.9092,0.0,0.0,0.0,0.0,0.0,0.0,1.8236,1.8369,1.8303,1.7995,1.7862,1.7862,1.7995,0.0,1.7956,1.8236,1.8236,1.8033,1.7656,1.7033,1.6128,1.5002,1.4473,1.4278,1.4285,1.3422,1.4308,1.5995,1.4927,0.0,0.0,2.1322,2.2595,2.3273,2.4618,2.561,2.6252,2.652,2.66,2.66,2.6613,2.6507,2.6386,2.6386,2.6386,2.6386,2.6386,2.6386,2.6386,2.6386,2.6386,2.6386,2.6386,2.6386,2.644,2.6587,2.6974,2.7362,2.751,2.8243,2.8831,2.8831,2.9339,2.9713,2.9713,3.0756,3.2382,3.4631,3.4804,3.6595,4.1066,4.0327,4.0203,4.1372,4.2669,4.3379,4.3379,4.3594,4.3613,4.3398,4.3594,4.3594,4.3398,4.3613,4.3828,4.4043,4.4043,4.4043,4.4043,4.4043,4.4043,4.4023,4.3789,4.3828,4.4023,4.3789,4.3711,4.3711,4.3711,4.3711,4.3711,0.0,0.0,0.0,0.0,0.0,0.0,2.0176,2.0305,2.031,2.0217,2.05,2.0416,1.9578,1.9428,1.9281,0.0,0.0,0.0,0.0,0.0,0.0,0.0,0.0,1.7916,1.7916,0.0,0.0,1.7916,1.7702,0.0,0.0,0.0,0.0,0.0,1.6466,1.5988,1.5255,1.5289,1.5576,0.0,0.0,1.625,1.7151,0.0,0.0,0.0,0.0,2.4008,2.4516,2.4943,2.5422,2.5904,2.6373,2.6466,2.6426,2.6667,2.6573,2.6386,2.6386,2.6386,2.6386,2.6386,2.6386,2.6386,2.6386,2.6386,2.6386,2.6386,2.6386,2.648,2.6774,2.7068,2.7416,2.7736,2.8497,2.9015,2.9081,2.9646,2.998,2.9927,3.0565,3.2214,3.5296,3.4619,3.5987,4.0849,4.0414,4.0888,4.3121,4.3223,4.3223,4.3223,4.3535,4.3711,4.3711,4.3711,4.3711,4.3711,4.3711,4.3711,4.3711,4.3711,4.3711,4.3711,4.3711,4.3769,4.3848,4.375,4.3769,4.3848,4.375,4.3711,4.3711,4.3711,4.3711,4.3711,0.0,0.0,0.0,0.0,0.0,0.0,2.1569,2.189,2.1554,2.0369,2.1541,2.1785,1.9964,1.9562,1.9281,0.0,0.0,0.0,0.0,0.0,0.0,0.0,0.0,0.0,0.0,0.0,0.0,1.7648,1.7622,0.0,0.0,0.0,0.0,0.0,0.0,1.6372,1.6737,1.5718,0.0,0.0,0.0,0.0,0.0,0.0,0.0,0.0,0.0,2.3567,2.4017,2.481,2.5155,2.5211,2.5531,2.5985,2.6386,2.6426,2.6413,2.6386,2.6386,2.6386,2.6386,2.6386,2.6386,2.6386,2.6386,2.6386,2.6386,2.6386,2.6386,2.648,2.6774,2.7068,2.7496,2.8058,2.8631,2.9095,2.9406,2.9953,3.0221,2.9953,3.1685,3.3146,3.3598,3.5043,3.6306,3.7272,3.9155,4.123,4.3509,4.3652,4.3652,4.3652,4.3691,4.3711,4.3711,4.3711,4.3711,4.3711,4.3711,4.3711,4.3711,4.3711,4.3711,4.3711,4.3711,4.3945,4.4297,4.3887,4.3945,4.4297,4.3867,4.3711,4.3711,4.3711,4.3711,4.3711,0.0,0.0,0.0,0.0,0.0,0.0,2.0545,2.1467,2.1715,2.0642,2.1715,2.1932,2.0217,1.98,1.9439,1.893,0.0,0.0,0.0,0.0,0.0,0.0,0.0,0.0,0.0,0.0,1.7836,1.7836,1.8036,0.0,0.0,0.0,0.0,0.0,0.0,1.8317,1.8682,1.8355,0.0,0.0,0.0,0.0,0.0,0.0,0.0,0.0,0.0,0.0,2.4115,2.4636,2.481,2.4836,2.4906,2.5264,2.5703,2.6065,2.6172,2.6198,2.6346,2.6386,2.6386,2.6386,2.6305,2.6212,2.6346,2.6292,2.6225,2.636,2.6533,2.668,2.676,2.7201,2.7697,2.8125,2.8644,2.9095,2.9446,3.0038,3.0293,2.9953,3.1021,3.2202,3.3293,3.4216,3.5901,3.8715,3.9776,4.1286,4.3567,4.3711,4.3711,4.3711,4.3711,4.3711,4.3711,4.3711,4.3711,4.3711,4.3711,4.3711,4.3711,4.3711,4.3711,4.3711,4.3711,4.3965,4.4355,4.3887,4.3984,4.4355,4.3887,4.3711,4.3711,4.3711,4.3711,4.3711,0.0,0.0,0.0,0.0,0.0,2.0441,2.1584,2.2717,2.2888,2.1432,2.2319,2.2334,2.0304,1.984,1.9697,1.9692,1.8956,0.0,0.0,0.0,0.0,0.0,0.0,0.0,0.0,0.0,1.8156,1.8156,1.8384,1.849,0.0,0.0,0.0,0.0,0.0,0.0,0.0,0.0,0.0,0.0,0.0,0.0,0.0,0.0,0.0,0.0,0.0,0.0,0.0,0.0,0.0,2.4599,2.4599,2.5178,2.5809,2.5736,2.5864,2.6065,2.6306,2.6453,2.6533,2.6627,2.6399,2.6198,2.6453,2.6265,2.6078,2.6333,2.6613,2.6854,2.6934,2.7362,2.7856,2.8379,2.8764,2.9121,2.9553,3.0114,3.0381,3.0087,3.0488,3.1268,3.2406,3.322,3.5235,3.8988,3.9903,4.0992,4.2617,4.3319,4.3711,4.3711,4.3711,4.3711,4.3711,4.3711,4.3711,4.3711,4.3711,4.3711,4.3711,4.3711,4.3711,4.3711,4.3711,4.3965,4.4355,4.3887,4.3984,4.4355,4.4043,4.3906,4.3926,4.4043,4.4101,4.4101,0.0,0.0,0.0,0.0,0.0,0.0,2.5916,2.6547,2.5656,2.2854,2.366,2.3294,2.0155,1.9575,1.9982,2.1443,1.9696,0.0,0.0,0.0,0.0,0.0,0.0,0.0,0.0,0.0,1.849,1.849,1.849,1.849,1.849,1.849,1.8839,1.9388,0.0,0.0,0.0,0.0,0.0,0.0,0.0,0.0,2.2345,0.0,0.0,0.0,0.0,0.0,0.0,0.0,0.0,0.0,0.0,2.5932,2.7144,2.5581,2.5543,2.6065,2.6306,2.66,2.6894,2.7229,2.6854,2.6466,2.6747,2.6373,2.6078,2.6333,2.6613,2.6907,2.7242,2.7495,2.7989,2.8841,2.8988,2.9202,2.9833,3.0421,3.0675,3.044,3.0621,3.0675,3.0472,3.2228,3.4345,3.6658,3.897,4.0301,4.0343,4.2451,4.3711,4.3711,4.3711,4.3711,4.3711,4.3711,4.3711,4.3711,4.3711,4.3711,4.3711,4.3711,4.3711,4.3711,4.3711,4.3965,4.4355,4.3887,4.3984,4.4394,4.4394,4.4394,4.4433,4.4863,4.4977,4.4977,0.0,0.0,0.0,0.0,0.0,0.0,2.4126,2.515,2.4748,2.1796,2.2703,2.2567,1.9829,1.9455,2.0094,2.1871,2.0966,0.0,0.0,0.0,0.0,0.0,0.0,0.0,0.0,1.8731,1.912,1.912,1.9492,1.965,1.965,1.9893,1.9973,1.996,2.0204,2.0391,0.0,0.0,0.0,0.0,0.0,2.2458,2.2746,0.0,0.0,0.0,0.0,0.0,0.0,0.0,0.0,0.0,0.0,0.0,0.0,2.6874,2.7023,2.7074,2.6051,2.5865,2.5999,2.6332,2.6118,2.5919,2.6413,2.6265,2.6078,2.6333,2.6787,2.7148,2.7282,2.771,2.8272,2.8881,2.9001,2.9268,3.0114,3.0426,3.0507,3.0413,3.0261,3.0154,3.006,3.2054,3.3688,3.4417,3.6615,3.863,4.0216,4.0992,4.2099,4.365,4.3711,4.3711,4.3711,4.3711,4.3711,4.3711,4.3711,4.3711,4.3711,4.3711,4.3711,4.373,4.4043,4.4433,4.4824,4.4668,4.4863,4.5234,4.4941,4.4824,4.4844,4.4938,4.4977,4.4977,0.0,0.0,0.0,0.0,0.0,0.0,2.4861,2.5085,2.4367,2.1912,2.2049,2.16,1.9459,1.9334,2.0121,2.1976,2.169,0.0,0.0,0.0,0.0,0.0,0.0,0.0,1.8343,1.9132,1.9669,1.9896,2.0227,2.0401,2.0401,2.0588,2.0575,2.0401,2.0601,2.0766,0.0,0.0,0.0,0.0,2.2418,2.2699,2.2893,0.0,0.0,0.0,0.0,0.0,0.0,0.0,0.0,0.0,0.0,0.0,0.0,0.0,2.7122,2.7726,2.6838,2.6241,2.5945,2.6386,2.6226,2.6132,2.6613,2.6453,2.6212,2.636,2.6894,2.7309,2.7309,2.7791,2.8379,2.8895,2.9001,2.9646,3.1502,3.1072,3.0574,3.0574,3.1048,3.1352,3.1226,3.3292,3.4679,3.4679,3.683,3.8758,4.0216,4.1118,4.2243,4.367,4.3711,4.3711,4.3711,4.3711,4.3711,4.3711,4.3711,4.3711,4.3711,4.3887,4.3965,4.3984,4.4433,4.4883,0.0,4.5098,4.5273,4.5688,4.5371,4.5273,4.5293,4.5449,4.5508,4.5508,0.0,0.0,0.0,0.0,0.0,0.0,0.0,2.612,2.442,2.2842,2.1698,2.0521,1.9019,1.9172,2.0106,2.1904,0.0,0.0,0.0,0.0,0.0,0.0,0.0,0.0,1.8916,1.9546,2.0134,2.0712,2.0726,2.0739,2.0739,2.0739,2.0739,2.0739,2.0739,2.0855,2.1149,2.1737,2.1991,2.2031,2.2653,2.2893,0.0,0.0,0.0,0.0,0.0,0.0,0.0,0.0,0.0,0.0,0.0,0.0,0.0,0.0,0.0,0.0,0.0,2.7385,2.6453,2.7041,2.6947,2.6841,2.7175,2.6841,0.0,2.6386,2.6921,2.7336,2.7309,2.7791,2.8379,2.8868,2.8988,3.0115,3.3294,3.2043,3.0901,3.0985,3.2687,3.3606,3.3205,3.536,3.6658,3.6313,3.863,4.003,4.003,4.2243,4.3526,4.3711,4.3711,4.3711,4.3711,4.373,4.373,4.3711,4.3769,4.3789,4.3769,4.4238,4.4433,4.4473,4.4883,4.5312,4.5688,4.5273,4.5351,4.5723,4.5723,4.5723,4.5805,4.6152,4.6308,4.6308,0.0,0.0,0.0,0.0,0.0,0.0,0.0,0.0,0.0,0.0,2.1172,2.0104,1.8751,1.908,2.0261,0.0,0.0,0.0,0.0,0.0,0.0,0.0,0.0,0.0,1.9294,2.0054,2.0565,2.0712,2.0895,2.1002,2.1002,2.1002,2.1002,2.1002,2.1002,2.1042,2.1149,2.1737,2.1991,2.2031,2.2653,2.2893,0.0,0.0,0.0,0.0,2.314,2.3313,0.0,0.0,0.0,0.0,0.0,0.0,0.0,0.0,2.7482,2.7984,2.8312,0.0,2.5745,2.5892,2.6039,2.6279,0.0,2.6667,2.6653,2.644,2.7028,2.7522,2.7349,2.7791,2.8312,2.8644,2.8855,2.9515,3.1021,3.115,3.1637,3.3078,3.3561,3.2997,3.0897,3.4417,3.5316,3.1776,3.5316,3.7604,3.7604,3.9818,4.189,4.3628,4.3711,4.3711,4.3711,4.4062,4.4062,4.3711,4.4394,4.4551,4.4258,4.4687,4.4883,4.4902,4.5332,4.5586,4.5746,4.5918,4.6074,4.6152,4.6152,4.6152,4.6172,4.6269,4.6308,4.6308,0.0,0.0,0.0,0.0,0.0,0.0,0.0,0.0,0.0,0.0,0.0,1.9137,1.856,1.904,0.0,0.0,0.0,0.0,0.0,0.0,0.0,0.0,0.0,1.9626,1.976,2.0391,2.0846,2.1114,2.1376,2.1443,2.1309,2.1456,2.1363,2.1109,2.1109,2.1189,2.1368,2.1823,2.2058,2.2231,2.2719,0.0,0.0,0.0,0.0,0.0,2.322,2.342,0.0,2.4048,2.4289,2.4449,0.0,0.0,0.0,0.0,2.6918,2.7074,2.7245,2.6609,2.5945,2.6079,2.6333,2.6667,2.6921,2.7001,2.7014,2.7001,2.7468,2.7898,2.7737,2.8192,2.8604,2.8778,2.9121,2.97,3.0448,3.2629,3.4051,3.3903,3.3739,3.3486,3.3102,3.4373,3.4635,3.316,3.5403,3.7261,3.8331,4.0596,4.2504,4.3982,4.4023,4.4023,4.4023,4.4277,4.4375,4.4316,4.4743,4.4902,4.4707,4.5137,4.5312,4.5351,4.5976,4.6152,4.5996,4.6426,4.6484,4.6308,4.6308,4.6308,4.6308,4.6308,4.6308,4.6308,0.0,0.0,0.0,0.0,0.0,0.0,0.0,0.0,0.0,0.0,0.0,0.0,0.0,0.0,0.0,0.0,0.0,0.0,0.0,0.0,0.0,0.0,1.9438,1.9649,1.9855,2.0465,2.102,2.1515,2.181,2.1823,2.1582,2.1836,2.163,2.1109,2.1109,2.1269,2.1609,2.189,2.2151,2.2445,2.2773,0.0,0.0,0.0,0.0,0.0,0.0,0.0,0.0,2.4168,2.4462,2.4743,2.4997,0.0,0.0,0.0,0.0,0.0,2.6158,2.6412,2.6627,2.6787,2.7081,2.7429,2.7589,2.7509,2.7496,2.7655,2.8018,2.8259,2.8259,2.8631,2.9092,2.955,3.0492,3.1336,3.1904,3.4951,3.6423,3.4647,3.3871,3.404,3.5593,3.4329,3.4198,3.614,3.6615,3.7818,4.0156,4.2508,4.3984,4.4394,4.4453,4.4531,4.459,4.459,4.4746,4.4977,4.5113,4.5195,4.5137,4.5566,4.5781,4.582,4.6523,4.6641,4.6328,4.668,4.6621,4.6308,4.6308,4.6308,4.6308,4.6308,4.6308,4.6308,0.0,0.0,0.0,0.0,0.0,0.0,0.0,0.0,0.0,0.0,0.0,0.0,0.0,0.0,0.0,0.0,0.0,0.0,0.0,0.0,0.0,1.6509,1.7685,1.8373,1.8421,2.0148,2.1082,2.1176,2.1502,2.1622,2.1582,2.1636,2.1475,2.1109,2.1109,2.1269,2.1609,2.189,2.2151,2.2445,2.2773,0.0,0.0,0.0,0.0,0.0,0.0,0.0,0.0,2.4439,2.477,2.5024,2.5064,0.0,0.0,0.0,0.0,0.0,2.6907,2.7322,2.7388,2.6934,2.7228,2.7575,2.7416,2.7724,2.7991,2.7736,2.815,2.8537,2.8537,2.8617,2.9508,3.2046,3.494,3.6954,3.7266,3.6168,3.5847,3.7294,3.5271,3.2983,3.1151,3.244,3.3556,3.3907,3.5707,3.7818,4.0156,4.2854,4.4316,4.4394,4.4746,4.5098,4.5488,4.5488,4.5332,4.4996,4.5762,4.5918,4.5586,4.6016,4.6211,4.6211,4.6348,4.6367,4.6308,4.6367,4.6367,4.6308,4.6308,4.6308,4.6308,4.6308,4.6308,4.6308,0.0,0.0,0.0,0.0,0.0,0.0,0.0,0.0,0.0,0.0,0.0,0.0,0.0,0.0,0.0,0.0,0.0,0.0,0.0,0.0,1.4916,1.5848,1.6562,1.7339,1.8304,2.0317,2.1381,2.1381,2.1804,2.197,2.181,2.1662,2.1422,2.1122,2.1269,2.1542,2.1836,2.2098,2.2392,2.2672,0.0,0.0,0.0,0.0,0.0,0.0,0.0,0.0,0.0,0.0,2.5197,2.5344,2.5543,0.0,0.0,0.0,0.0,0.0,2.7108,2.763,2.7951,2.7816,2.7989,2.8243,2.8417,2.8551,2.8671,2.8858,2.9125,2.9312,2.9312,2.9446,3.0086,3.1601,3.4037,3.5382,3.4292,3.5189,3.5848,3.5602,3.4403,3.3589,3.3615,3.3468,3.446,3.6943,3.8118,3.9798,4.2373,4.3713,4.4609,4.5078,4.5273,4.5586,4.6016,4.6016,4.5918,4.5723,4.6113,4.6191,4.6016,4.6211,4.6308,4.6308,4.6543,4.6504,4.6328,4.6543,4.6504,4.6308,4.6308,4.6308,4.6308,4.6308,4.6445,4.6641,0.0,0.0,0.0,0.0,0.0,0.0,0.0,0.0,0.0,0.0,0.0,0.0,0.0,0.0,0.0,0.0,0.0,0.0,0.0,1.4009,1.4068,1.5816,1.6302,1.7141,1.848,2.0541,2.1582,2.1582,2.2138,2.2298,2.2084,2.1823,2.1569,2.1323,2.1515,2.1783,2.2098,2.2325,2.2592,2.2893,0.0,0.0,0.0,0.0,0.0,0.0,0.0,0.0,0.0,0.0,0.0,0.0,0.0,0.0,0.0,2.6319,2.6386,2.6533,2.7229,2.7684,2.8098,2.8577,2.8711,2.8818,2.9272,2.9161,2.9148,2.9713,2.9873,2.9913,2.9913,3.1073,3.1757,3.0832,3.3918,3.5211,3.183,3.4579,3.6313,3.4584,3.3777,3.4301,3.6572,3.5245,3.588,3.9987,4.0391,4.1582,4.4249,4.459,4.5,4.5688,4.5781,4.5976,4.6289,4.6308,4.6308,4.6308,4.6308,4.6308,4.6308,4.6308,4.6308,4.6328,4.6641,4.6601,4.6328,4.6641,4.6601,4.6308,4.6308,4.6367,4.6445,4.6445,4.6719,4.709,0.0,0.0,0.0,0.0,0.0,0.0,0.0,0.0,0.0,0.0,0.0,0.0,0.0,0.0,0.0,0.0,0.0,0.0,1.3311,1.3288,1.4068,1.5816,1.7441,1.8372,1.8512,2.0541,2.1582,2.1582,2.2138,2.2371,2.2378,2.2084,2.197,2.1943,2.1703,2.189,2.2358,2.2371,2.2592,2.2893,2.2893,0.0,0.0,0.0,0.0,0.0,0.0,0.0,0.0,0.0,0.0,0.0,0.0,0.0,2.636,2.6386,2.6386,2.6573,2.7428,2.7495,2.7643,2.8681,2.8961,2.8975,2.9015,2.9015,2.9081,2.9446,2.9726,2.9913,2.9913,3.3782,3.5545,3.114,3.8156,4.1821,3.5073,3.6013,3.7386,3.7211,3.4968,3.4301,3.6572,3.6658,3.7604,4.0114,4.0644,4.1896,4.4269,4.5156,4.5648,4.5727,4.6055,4.6269,4.6308,4.6308,4.6308,4.6308,4.6308,4.6308,4.6308,4.6308,4.6308,4.6308,4.6328,4.6328,4.6308,4.6328,4.6328,4.6308,4.6308,4.6543,4.6831,4.6831,4.7168,4.7539,0.0,0.0,0.0,0.0,0.0,0.0,0.0,0.0,0.0,0.0,0.0,0.0,0.0,0.0,0.0,0.0,0.0,0.0,1.4531,1.4793,1.5686,1.7441,1.8148,1.9024,2.01,2.124,2.1943,2.2084,2.2498,2.2605,2.2418,2.2311,2.2164,2.1991,2.2058,2.2218,2.2398,2.2619,2.2786,2.2893,2.2893,2.2893,0.0,0.0,0.0,0.0,0.0,0.0,0.0,0.0,2.6132,2.6265,2.6265,2.6306,2.6386,2.6386,2.6386,2.6547,2.7282,2.7762,2.8203,2.8657,2.9179,2.9535,2.9535,2.9726,2.99,3.0052,3.0408,3.102,3.2011,3.4157,3.4953,3.2537,3.547,3.6523,3.2204,3.3516,3.4397,3.2955,3.4406,3.5837,3.6701,3.834,3.968,4.051,4.0973,4.1705,4.2846,4.323,4.4203,4.6011,4.6211,4.6308,4.6308,4.6308,4.6308,4.6308,4.6308,4.6308,4.6308,4.6308,4.6308,4.6308,4.6308,4.6308,4.6308,4.6308,4.6308,4.6328,4.6582,4.6797,4.6928,4.7226,4.7598,4.7969,0.0,0.0,0.0,0.0,0.0,0.0,0.0,0.0,0.0,0.0,0.0,0.0,0.0,0.0,0.0,0.0,0.0,0.0,1.6139,1.6552,1.7506,1.9259,1.9323,1.9915,2.1211,2.1643,2.2024,2.2285,2.2706,2.2786,2.2552,2.2458,2.2418,2.2405,2.2418,2.2525,2.2678,2.2853,2.2893,2.2907,2.3,2.3041,0.0,0.0,0.0,0.0,0.0,0.0,0.0,0.0,2.6386,2.6386,2.6386,2.6386,2.6386,2.6386,2.652,2.6774,2.7309,2.7856,2.839,2.8671,2.9125,2.9579,2.986,3.0074,3.0319,3.0507,3.0662,3.1188,3.2475,3.3482,3.3694,3.2349,3.3619,3.359,3.0375,3.1909,3.2778,3.1226,3.4417,3.7139,3.8031,3.9751,4.084,4.0923,4.1344,4.173,4.1982,4.285,4.426,4.6245,4.6308,4.6308,4.6308,4.6308,4.6308,4.6308,4.6308,4.6308,4.6308,4.6308,4.6308,4.6308,4.6308,4.6308,4.6308,4.6445,4.6582,4.6738,4.7012,4.7207,4.7363,4.7676,4.8047,4.8418,0.0,0.0,0.0,0.0,0.0,0.0,0.0,0.0,0.0,0.0,0.0,0.0,0.0,0.0,0.0,0.0,0.0,0.0,1.7841,1.8282,1.9279,2.1014,2.1109,2.1243,2.1569,2.1582,2.1729,2.1991,2.2612,2.2893,2.2893,2.2565,2.2718,2.3265,2.2665,2.2732,2.3265,2.2993,2.2893,2.292,2.3207,2.3292,2.3359,0.0,0.0,0.0,0.0,0.0,0.0,0.0,2.6386,2.6386,2.6386,2.6386,2.64,2.6386,2.6841,2.7376,2.7615,2.7696,2.7923,2.8775,2.8831,2.8858,2.9726,2.9927,3.0087,3.0675,3.0327,3.01,3.0734,3.1946,3.2237,3.0262,3.3775,3.5142,3.0571,3.1923,3.3351,3.3351,3.5375,3.7842,4.0579,4.0743,4.088,4.1319,4.174,4.1974,4.1974,4.4705,4.6265,4.6308,4.6308,4.6308,4.6308,4.6308,4.6308,4.6308,4.6308,4.6308,4.6308,4.6308,4.6308,4.6308,4.6308,4.6308,4.6348,4.6714,4.7187,4.7578,4.7578,4.7851,4.8203,4.8223,4.8476,4.8913,0.0,0.0,0.0,0.0,0.0,0.0,0.0,0.0,0.0,0.0,0.0,0.0,0.0,0.0,0.0,0.0,0.0,0.0,1.9424,1.964,2.005,2.0802,2.0802,2.0935,2.1229,2.1643,2.2004,2.2285,2.2706,2.2893,2.2893,2.2993,2.3033,2.3041,2.3046,2.3033,2.2993,2.2934,2.2893,2.292,2.3207,2.3292,2.3359,0.0,0.0,0.0,0.0,0.0,0.0,0.0,0.0,0.0,2.6386,2.668,2.6961,2.6507,2.6947,2.7549,2.7469,2.8003,2.8668,2.8935,2.9593,3.0207,3.0474,3.0381,3.0394,3.0982,3.0955,3.1215,3.252,3.3351,3.3368,3.2061,3.3318,3.3336,3.0348,3.0704,3.1277,3.1277,3.3486,3.5291,3.6098,3.7881,3.8346,3.6799,3.8675,3.9869,3.9869,4.23,4.4517,4.6265,4.6308,4.6308,4.6308,4.6308,4.6308,4.6308,4.6308,4.6308,4.6308,4.6308,4.6308,4.6328,4.6621,4.6738,4.6777,4.7207,4.7461,4.7617,4.791,4.8105,4.8242,4.8555,4.8796,4.8913,0.0,0.0,0.0,0.0,0.0,0.0,0.0,0.0,0.0,0.0,1.6933,1.7238,0.0,0.0,0.0,0.0,0.0,0.0,2.015,2.0317,2.0494,2.0699,2.0927,2.1194,2.1456,2.1924,2.2245,2.2385,2.2746,2.296,2.3081,2.3354,2.346,2.3442,2.3594,2.3567,2.3429,2.3308,2.3322,2.3407,2.3594,2.3821,2.4075,0.0,0.0,0.0,0.0,0.0,0.0,0.0,0.0,0.0,2.6386,2.664,2.6934,2.6774,2.7362,2.807,2.8136,2.8845,2.9593,2.9713,3.0274,3.0822,3.0942,3.0915,3.0988,3.1183,3.1036,3.1183,3.2149,3.2337,3.2182,3.1665,3.1839,3.1566,3.0299,3.0293,3.0453,3.056,3.2722,3.4276,3.444,3.5941,3.6339,3.5024,3.7446,3.8993,3.8993,4.2219,4.4738,4.6245,4.6308,4.6308,4.6308,4.6308,4.6308,4.6308,4.6308,4.6387,4.6543,4.6367,4.6387,4.6582,4.7012,4.7285,4.7461,4.7715,4.793,4.8151,4.8359,4.8476,4.8496,4.8815,4.8913,4.8913,0.0,0.0,1.7434,0.0,0.0,0.0,0.0,0.0,0.0,1.9441,1.9933,2.0344,0.0,0.0,0.0,2.0686,2.0646,2.0481,2.0184,2.0454,2.0646,2.0699,2.1301,2.1756,2.2017,2.2285,2.2445,2.2465,2.28,2.3046,2.3305,2.3661,2.3941,2.4168,2.4195,2.4195,2.4155,2.395,2.3968,2.4209,2.4262,2.4596,2.5117,2.5438,0.0,0.0,0.0,0.0,0.0,0.0,0.0,0.0,2.6426,2.6466,2.6613,2.7162,2.7923,2.8751,2.9259,2.9891,3.044,3.0715,3.0835,3.0929,3.1169,3.1436,3.1543,3.1249,3.0768,3.044,3.0413,2.9972,2.9646,2.9913,2.9953,3.006,3.04,3.0467,3.0587,3.0795,3.2679,3.4151,3.4584,3.4491,3.4655,3.5262,3.762,3.913,3.9312,4.3771,4.6308,4.6308,4.6308,4.6308,4.6308,4.6308,4.6328,4.6367,4.6367,4.6582,4.6928,4.6562,4.6621,4.7026,4.7461,4.7871,4.8262,4.8262,4.8496,4.8913,4.8913,4.8913,4.8913,4.8913,4.8913,4.8913,0.0,0.0,1.7862,1.7969,0.0,0.0,0.0,0.0,1.972,1.9983,2.0361,2.0601,2.0699,2.0766,0.0,2.0361,2.012,1.996,1.9893,1.9947,2.0187,2.0686,2.1489,2.2031,2.2311,2.2392,2.2611,2.3092,2.3193,2.3225,2.3305,2.3861,2.4022,2.391,2.4102,2.4075,2.391,2.4035,2.4142,2.4249,2.4703,2.497,2.5181,2.5703,2.5944,0.0,0.0,0.0,0.0,0.0,0.0,0.0,2.6653,2.7041,2.7402,2.7336,2.807,2.8881,2.8818,2.9392,3.014,3.0662,3.1142,3.1436,3.1263,3.1276,3.1236,3.0942,3.0782,3.0635,3.0453,3.0306,3.0239,3.0293,3.0306,3.0413,3.0662,3.0902,3.1062,3.1129,3.1799,3.2277,3.2393,3.2359,3.3159,3.5137,3.762,3.9857,4.1708,4.4693,4.6308,4.6308,4.6308,4.6308,4.6308,4.6308,4.6465,4.6753,4.6753,4.7012,4.7422,4.6992,4.7207,4.7949,4.8027,4.832,4.8757,4.8757,4.8815,4.8913,4.8913,4.8913,4.8913,4.8913,4.8913,4.8913,0.0,0.0,0.0,0.0,0.0,0.0,0.0,0.0,1.9853,1.997,2.0281,2.0521,2.0686,2.0548,0.0,0.0,1.993,1.98,1.98,1.9933,2.0401,2.1269,2.1871,2.2325,2.2619,2.2632,2.2859,2.3292,2.3474,2.3607,2.3754,2.4159,2.4329,2.4195,2.4489,2.4462,2.4209,2.4502,2.4703,2.4863,2.517,2.5451,2.5718,2.5931,2.6078,2.6225,2.6333,0.0,0.0,0.0,0.0,0.0,0.0,0.0,2.7308,2.7428,2.8123,2.8855,2.9165,2.9766,3.0474,3.1062,3.1497,3.1955,3.2925,3.2036,3.1293,3.2299,3.1473,3.0547,3.0207,3.0306,3.04,3.04,3.052,3.0675,3.0955,3.1129,3.1276,3.1423,3.157,3.1711,3.1711,3.2772,3.3966,3.5184,3.8657,4.1259,4.2532,4.4958,4.6308,4.6308,4.6308,4.6308,4.6308,4.6504,4.6719,4.6889,4.7148,4.7461,4.7871,4.7637,4.7773,4.8223,4.8418,4.8698,4.8913,4.8913,4.8913,4.8913,4.8913,4.8913,4.8913,4.8913,4.8913,4.8913,0.0,0.0,0.0,0.0,0.0,0.0,0.0,0.0,0.0,1.988,2.0104,2.0388,2.0575,2.0334,2.0104,0.0,0.0,0.0,1.972,2.0104,2.0869,2.1937,2.2311,2.2605,2.2893,2.2893,2.3081,2.3407,2.3647,2.3941,2.4289,2.4492,2.4599,2.4613,2.489,2.4863,2.4626,2.501,2.5291,2.5518,2.5625,2.5959,2.636,2.6158,2.6225,2.6386,2.6386,2.6386,2.6386,2.6386,0.0,0.0,0.0,0.0,2.6934,2.7468,2.8056,2.8698,2.9486,3.0234,3.0929,3.1577,3.1684,3.2218,3.4586,3.2856,3.1409,3.3751,3.2118,3.0266,3.0034,3.0194,3.044,3.0533,3.0715,3.0969,3.1263,3.1303,3.1524,3.2239,3.2313,3.2502,3.2913,3.4373,3.5649,3.6514,3.9523,4.1905,4.3175,4.4782,4.5851,4.6308,4.6308,4.6308,4.6308,4.6641,4.685,4.7051,4.7558,4.7988,4.832,4.832,4.832,4.834,4.8757,4.8913,4.8913,4.8913,4.8913,4.8913,4.8913,4.8913,4.8913,4.8913,4.8913,4.8913,0.0,0.0,0.0,0.0,0.0,0.0,0.0,0.0,0.0,0.0,2.0428,2.0535,2.0277,2.0027,1.976,1.9535,1.9481,1.9455,1.9455,0.0,0.0,2.1951,2.2546,2.2853,2.2893,2.2893,2.3174,2.375,2.379,2.4048,2.4546,2.4586,2.4599,2.4599,2.4639,2.4639,2.4639,2.5224,2.5478,2.5558,2.6066,2.6319,2.6386,2.6346,2.636,2.6386,2.6386,2.6386,2.6386,2.6386,2.6386,0.0,0.0,0.0,2.6894,2.7228,2.7791,2.8326,2.8671,2.9766,3.0929,3.1577,3.1476,3.1803,3.3877,3.2344,3.1053,3.3102,3.1608,3.0047,3.0306,3.0386,3.0574,3.1022,3.1142,3.1276,3.157,3.161,3.2447,3.4592,3.4826,3.5649,3.7803,3.6375,3.7067,4.1304,3.8291,3.9068,4.548,4.41,4.41,4.6201,4.6308,4.6308,4.6308,4.6367,4.6758,4.75,4.8346,4.8757,4.8815,4.8815,4.8815,4.8815,4.8874,4.8913,4.8913,4.8913,4.8913,4.8913,4.8913,4.8913,4.8913,4.8913,4.8913,4.8913,0.0,0.0,0.0,0.0,0.0,0.0,0.0,0.0,0.0,0.0,0.0,2.0344,2.0224,1.9973,1.9679,1.9428,1.9401,1.9535,1.9826,2.0494,2.1203,2.1984,2.2392,2.2733,2.2893,2.2893,2.3201,2.3803,2.3803,2.4062,2.4599,2.4599,2.4599,2.4599,2.4599,2.4599,2.4639,2.5226,2.5518,2.5558,2.6146,2.6587,2.6867,2.6372,2.6493,2.6841,2.6132,2.5999,2.6185,2.6185,2.6185,2.6238,2.6493,0.0,0.0,0.0,2.7229,2.7911,2.8831,2.9927,3.0929,3.1577,3.145,3.1776,3.4071,3.3388,3.3008,3.5504,3.5054,3.3398,3.0872,3.0621,3.0929,3.1183,3.137,3.1517,3.1698,3.1711,3.2077,3.3182,3.3276,3.3685,3.4779,3.5152,3.619,3.8337,3.7787,3.8794,4.204,4.2443,4.3086,4.4188,4.5568,4.6308,4.6308,4.6777,4.7441,4.8346,4.8718,4.8913,4.8913,4.8913,4.8913,4.8913,4.8913,4.8913,4.8913,4.8913,4.8913,4.8913,4.8913,4.8913,4.8913,4.8913,4.8913,4.8913,0.0,0.0,0.0,0.0,0.0,0.0,0.0,0.0,0.0,0.0,0.0,2.0197,2.0197,0.0,0.0,0.0,1.9401,1.9615,2.0064,2.0401,2.0922,2.1724,2.2111,2.2445,2.2773,2.2853,2.3201,2.3803,2.3803,2.4062,2.4599,2.4599,2.4639,2.4706,2.4639,2.4639,2.4746,2.5291,2.5558,2.5678,2.6346,2.6921,2.7255,2.6747,2.6961,2.7389,2.6239,2.5985,2.6185,2.5957,2.5877,2.5917,2.6092,2.6715,0.0,0.0,0.0,2.9192,3.0524,3.1054,3.1464,3.2104,3.1684,3.188,3.4893,3.4683,3.4736,3.8119,3.8167,3.6351,3.2291,3.1872,3.197,3.141,3.153,3.1711,3.1711,3.1711,3.1948,3.2536,3.263,3.2866,3.3497,3.4592,3.5556,3.619,3.6791,3.7712,3.8947,4.013,4.1304,4.2577,4.4365,4.5714,4.6465,4.7305,4.8066,4.8737,4.8855,4.8913,4.8913,4.8913,4.8913,4.8913,4.8913,4.8913,4.8913,4.8913,4.8913,4.8913,4.8913,4.8913,4.8913,4.8913,4.8913,4.8913,0.0,0.0,0.0,0.0,0.0,0.0,0.0,0.0,0.0,0.0,0.0,2.0197,2.0197,1.9973,1.9679,1.9428,1.9401,1.9522,1.98,2.0064,2.049,2.1122,2.171,0.0,2.2432,2.2746,2.3201,2.3803,2.3803,2.4062,2.4599,2.4599,2.4783,2.5037,2.4719,2.4796,2.5077,2.5384,2.5678,2.6051,2.6907,2.7282,2.7362,2.7871,2.8098,2.8018,2.7081,2.672,2.6614,2.5812,2.5531,2.5545,2.5558,2.7062,2.89,0.0,0.0,0.0,3.4375,3.3615,3.2807,3.3677,3.2345,3.2024,3.6527,3.5618,3.5103,3.9798,3.9208,3.7229,3.5045,3.4692,3.4042,3.2009,3.1711,3.1711,3.1711,3.1711,3.2536,3.4826,3.5106,3.6066,3.8399,3.6606,3.6282,3.8628,3.4654,3.4093,3.8765,3.6883,3.7787,4.2443,4.2711,4.409,4.685,4.7754,4.8203,4.8242,4.8718,4.8913,4.8913,4.8913,4.8913,4.8913,4.8913,4.8913,4.8913,4.8913,4.8913,4.8913,4.8913,4.8913,4.8913,4.8913,4.8913,4.8913,0.0,0.0,0.0,0.0,0.0,0.0,0.0,0.0,0.0,0.0,0.0,0.0,0.0,2.0104,1.988,1.9441,1.9401,1.9602,2.001,2.0144,2.0637,2.163,2.1871,2.2251,2.2733,2.3006,2.3367,2.3803,2.3955,2.4249,2.4599,2.4599,2.4653,2.4759,2.4653,2.4866,2.5371,2.5464,2.5678,2.6078,2.6948,2.7657,2.811,2.7923,2.8457,2.9112,0.0,0.0,0.0,2.6747,2.6266,0.0,0.0,2.8242,2.9539,3.0864,3.2161,3.3384,3.435,3.4387,3.4387,3.5668,3.5451,3.5469,3.7366,3.8334,3.9372,4.1314,4.2367,4.1822,3.8184,3.6252,3.4429,3.2063,3.1711,3.1711,3.1711,3.1711,3.2043,3.2913,3.2994,3.3323,3.4233,3.3497,3.4132,3.6869,3.3752,3.3266,3.6885,3.5956,3.6837,4.0175,4.2091,4.4453,4.7344,4.7656,4.793,4.8223,4.8698,4.8913,4.8913,4.8913,4.8913,4.8913,4.8913,4.8913,4.8913,4.8913,4.8913,4.8913,4.8913,4.8913,4.8913,4.8913,4.8913,4.8913,0.0,0.0,0.0,0.0,0.0,2.1074,2.1229,2.0922,2.0748,2.098,0.0,0.0,0.0,0.0,2.0187,1.9693,1.9653,1.9826,2.0184,2.029,2.0775,2.1657,2.1884,2.2218,2.2699,2.2913,2.3273,2.3803,2.3861,2.4155,2.4599,2.4599,2.4653,2.4783,2.4783,2.5064,2.5518,2.5625,2.5838,2.6238,2.7322,2.7829,2.8016,2.811,2.8577,2.9045,0.0,0.0,0.0,0.0,0.0,0.0,0.0,3.0653,3.1755,3.3891,3.4769,3.5166,3.5896,3.596,3.6136,3.7386,3.7358,3.7413,3.8774,4.036,4.1898,4.3148,4.394,4.3352,3.9699,3.6975,3.4499,3.2077,3.1711,3.1711,3.1711,3.1711,3.1711,3.1711,3.1711,3.1711,3.1711,3.1711,3.249,3.4395,3.2788,3.2537,3.4443,3.4255,3.5602,3.8902,4.2737,4.5656,4.7578,4.7916,4.819,4.8437,4.8776,4.8913,4.8913,4.8913,4.8913,4.8913,4.8913,4.8913,4.8913,4.8913,4.8913,4.8913,4.8913,4.8913,4.8913,4.8913,4.8913,4.8913,0.0,0.0,0.0,0.0,2.1609,2.1596,2.1609,2.1609,2.1596,2.1596,0.0,0.0,0.0,0.0,0.0,2.025,2.0237,2.0237,2.0237,2.0561,2.0886,2.1136,2.171,2.2151,2.2432,2.2411,2.2873,2.3803,2.35,2.3772,2.4613,2.4626,2.4823,2.509,2.5104,2.5264,2.5545,2.5877,2.6158,2.652,2.7976,2.7896,2.7,2.8454,2.8537,0.0,2.7886,2.8102,0.0,0.0,0.0,0.0,0.0,3.4299,3.5632,3.7909,3.8867,3.918,0.0,0.0,0.0,3.8671,3.7814,3.7583,4.0757,4.1474,4.2289,4.5135,4.3722,4.14,3.9382,3.6975,3.4499,3.2077,3.1711,3.1711,3.1711,3.1711,3.1711,3.1711,3.1711,3.1711,3.1711,3.1711,3.1724,3.1819,3.1772,3.1724,3.1819,3.1853,3.4154,3.8947,4.4567,4.7514,4.7578,4.8372,4.8782,4.8894,4.8894,4.8913,4.8913,4.8913,4.8913,4.8913,4.8913,4.8913,4.8913,4.8913,4.8913,4.8913,4.8913,4.8913,4.8913,4.8913,4.8913,4.8913,0.0,0.0,0.0,2.2178,2.2004,2.1937,2.2151,2.2004,2.1903,0.0,0.0,0.0,2.1502,2.1162,2.0962,2.0882,2.1069,2.1221,2.1221,2.1657,2.1977,2.2058,2.2418,2.2693,2.2773,2.2966,2.33,2.3803,2.4102,2.4502,2.4957,2.517,2.5317,2.5398,2.5663,2.5797,2.5877,2.5957,2.6158,2.6466,2.7295,2.7949,0.0,0.0,0.0,0.0,0.0,3.2689,3.2763,0.0,3.4911,3.3687,0.0,3.5925,3.734,3.8292,3.8689,3.8809,3.9121,0.0,0.0,0.0,0.0,0.0,4.2268,4.3102,4.3983,4.5422,4.3722,4.14,3.9382,3.6975,3.4499,3.2077,3.1711,3.1711,3.1711,3.1711,3.1711,3.1711,3.1711,3.1711,3.1711,3.1711,3.2537,3.466,3.2896,3.2585,3.4708,3.6204,3.8559,4.1996,4.3561,4.5393,4.7578,4.6312,4.6575,4.8398,4.8757,4.8913,4.8913,4.8913,4.8913,4.8913,4.8913,4.8913,4.8913,4.8913,4.8913,4.8913,4.8913,4.8913,4.8913,4.8913,4.8913,4.8913,0.0,0.0,2.2979,2.2979,2.2846,2.2792,2.2953,2.2846,2.276,0.0,0.0,0.0,2.2184,2.197,2.1844,2.1844,2.2037,2.2131,2.2131,2.2418,2.2605,2.2605,2.28,2.296,2.3046,2.31,2.3407,2.3991,2.4289,2.4663,2.5128,2.5371,2.5518,2.5531,2.5864,2.5998,2.5998,2.6131,2.6279,2.648,2.7562,0.0,0.0,3.0845,3.2129,0.0,0.0,0.0,3.5229,3.8619,3.8303,0.0,0.0,0.0,3.738,3.8316,3.8884,3.9141,3.918,3.9473,3.9922,4.0625,0.0,0.0,4.3359,4.4023,4.4372,4.4407,4.2474,4.0055,3.7847,3.5463,3.3323,3.1948,3.177,3.181,3.1738,3.1711,3.1764,3.1837,3.1791,3.1764,3.1837,3.1791,3.2381,3.4083,3.2646,3.2841,3.5561,3.8772,4.0821,4.15,4.2698,4.4234,4.6057,4.5132,4.5937,4.8476,4.8776,4.8913,4.8913,4.8913,4.8913,4.8913,4.8913,4.8913,4.8913,4.8913,4.8913,4.8913,4.8913,4.8913,4.8913,4.8913,4.8913,4.8913,0.0,0.0,2.3803,2.3803,2.3803,2.3803,2.3803,2.3803,2.3803,0.0,2.3567,2.334,2.3161,2.3121,2.3094,2.3094,2.3094,2.3081,2.3054,2.3081,2.3054,2.296,2.3014,2.3113,2.3292,2.3086,2.3402,2.4209,2.4275,2.4583,2.513,2.5464,2.5611,2.5625,2.5917,2.6038,2.6065,2.6475,2.6755,2.7092,2.8624,3.0153,0.0,0.0,3.4787,3.5975,3.7015,3.6632,3.6309,4.0552,4.0715,0.0,0.0,0.0,0.0,3.763,3.8609,3.9203,3.8984,3.9504,4.0221,4.0899,4.1348,0.0,4.3672,4.4082,4.3845,4.2872,4.0756,3.8383,3.5975,3.3585,3.1928,3.1678,3.1837,3.1971,3.1744,3.1791,3.1912,3.2118,3.1965,3.1864,3.2131,3.1891,3.1764,3.1764,3.1738,3.2866,3.5556,3.9841,4.1501,3.9908,4.2348,4.3922,4.4389,4.4792,4.6336,4.8913,4.8913,4.8913,4.8913,4.8913,4.8913,4.8913,4.8913,4.8913,4.8913,4.8913,4.8913,4.8913,4.8913,4.8913,4.8913,4.8913,4.8913,4.8913,2.3621,2.3763,2.3803,2.3803,2.3803,2.3803,2.3803,2.3803,2.3803,2.3803,2.3928,2.4195,2.4609,2.4436,2.4252,2.4252,2.4252,2.4195,2.3955,2.4155,2.3981,2.326,2.3688,2.3754,2.3305,2.35,2.3794,2.4209,2.4676,2.509,2.5438,2.5972,2.6213,2.6226,2.6279,2.6306,2.6411,2.7738,2.9125,3.0457,3.0803,3.2448,3.4904,3.6334,3.6257,3.5713,3.785,3.7262,3.5683,0.0,3.7889,3.727,0.0,0.0,0.0,3.4592,3.4823,3.5583,3.6796,3.7223,0.0,0.0,0.0,0.0,4.1641,4.207,4.2438,4.29,4.1315,3.9296,3.7287,3.5394,3.3415,3.132,3.141,3.1824,3.1998,3.2273,3.2447,3.25,3.246,3.2447,3.25,3.2198,3.2024,3.2024,3.1797,3.3638,3.8033,3.9159,4.1444,4.5229,4.4261,4.4893,4.7319,4.5797,4.6336,4.8913,4.8913,4.8913,4.8913,4.8913,4.8913,4.8913,4.8913,4.8913,4.8913,4.8913,4.8913,4.8913,4.8913,4.8913,4.8913,4.8913,4.8913,4.8913,2.3955,2.4102,2.4209,2.4209,2.4209,2.4209,2.4209,2.4329,2.4459,2.4459,2.4676,2.497,2.5264,2.5157,2.5039,2.5039,2.5039,2.4973,2.4863,2.4863,2.4663,2.4222,2.4342,2.4356,2.4209,2.4342,2.4569,2.4863,2.5304,2.5623,2.5745,2.6186,2.6627,2.7014,2.644,2.6533,2.7068,2.7298,2.8554,3.0559,3.2473,0.0,3.6837,3.7931,3.7837,3.7298,3.8536,3.8216,3.6956,3.5667,3.5303,0.0,0.0,3.3777,3.373,0.0,3.5063,3.6546,0.0,0.0,0.0,4.0511,0.0,0.0,0.0,4.2109,4.2023,4.1669,4.0969,3.9766,3.7604,3.6479,3.5616,3.4713,3.4737,3.5078,3.5648,3.3771,3.2487,3.2768,3.2688,3.2648,3.2795,3.2541,3.2367,3.2367,3.3221,3.5343,3.9027,4.0215,4.2128,4.501,4.4206,4.4563,4.6387,4.546,4.6336,4.8913,4.8913,4.8913,4.8913,4.8913,4.8913,4.8913,4.8913,4.8913,4.8913,4.8913,4.8913,4.8913,4.8913,4.8913,4.8913,4.8913,4.8913,4.8913,2.4289,2.4439,2.4599,2.4599,2.4653,2.4679,2.4679,2.497,2.5184,2.5275,2.5504,2.5705,2.5758,2.5865,2.5905,2.5852,2.5905,2.5838,2.5611,2.5438,2.5302,2.5128,2.4903,2.4917,2.5157,2.5157,2.5277,2.5518,2.585,2.5998,2.5998,2.6238,2.668,2.7335,2.66,2.668,2.7349,2.6957,2.8057,3.032,0.0,3.5891,3.7182,3.8318,3.8453,3.8016,3.7678,3.7574,3.711,3.3961,3.2995,3.3102,3.276,3.2705,0.0,0.0,0.0,0.0,0.0,0.0,0.0,0.0,0.0,4.1543,0.0,0.0,0.0,4.0662,4.0764,4.0335,3.8028,3.7618,3.7764,3.7991,3.7961,3.8195,3.8988,3.537,3.2886,3.3535,3.3021,3.2688,3.2929,3.31,3.3242,3.3346,3.4851,3.7071,3.9983,4.1311,4.2604,4.3958,4.4297,4.4664,4.5178,4.5563,4.6784,4.8776,4.8855,4.8913,4.8913,4.8913,4.8913,4.8913,4.8913,4.8913,4.8913,4.8913,4.8913,4.8913,4.8913,4.8913,4.8913,4.8913,4.8913,4.8913,2.4546,2.4572,2.4599,2.4599,2.485,2.5024,2.5024,2.5277,2.5558,2.5864,2.6145,2.6386,2.664,2.7134,2.7348,2.7135,2.7308,2.7014,2.6011,2.6158,2.5892,2.5117,2.5291,2.5424,2.5464,2.5464,2.5478,2.5518,2.585,2.5998,2.5998,2.6024,2.6091,2.6225,2.6867,2.68,2.6356,2.8679,3.0673,3.2471,3.4336,3.4981,0.0,3.7065,3.6499,3.4367,3.3028,3.2536,3.2406,0.0,3.1245,3.1305,0.0,3.2117,3.4247,3.2577,0.0,0.0,0.0,0.0,0.0,0.0,4.1758,0.0,0.0,0.0,4.1406,4.1577,0.0,0.0,0.0,0.0,0.0,3.7255,3.7118,3.7375,3.7813,3.6067,3.5026,3.5769,3.3928,3.2607,3.2648,3.4349,3.5584,3.596,3.5869,3.7865,4.2627,4.0914,4.1828,4.6337,4.6921,4.7173,4.7276,4.8071,4.8422,4.8281,4.8718,4.8913,4.8913,4.8913,4.8913,4.8913,4.8913,4.8913,4.8913,4.8913,4.8913,4.8913,4.8913,4.8913,4.8913,4.8913,4.8913,4.8913,2.4599,2.4599,2.4653,2.4863,2.4997,2.5144,2.5304,2.5585,2.5917,2.6212,2.6198,2.6225,2.6306,2.6386,2.6587,0.0,0.0,2.6974,0.0,0.0,2.6426,2.5371,2.5772,2.5945,2.5772,2.5932,2.6026,2.6026,2.6146,2.6252,2.6252,2.6252,2.6519,2.7015,2.7215,2.7442,2.7777,2.8427,2.9243,3.017,0.0,3.0996,0.0,3.4908,3.4802,3.2571,3.1941,3.1711,3.1684,0.0,3.206,0.0,0.0,0.0,0.0,0.0,0.0,0.0,0.0,0.0,0.0,0.0,0.0,0.0,4.1641,0.0,4.1289,0.0,0.0,0.0,0.0,0.0,0.0,0.0,4.085,0.0,0.0,0.0,3.8449,3.7692,0.0,3.4913,3.631,3.7475,3.826,3.8419,3.8339,3.9835,4.3331,4.2323,4.3416,4.7215,4.748,4.7695,4.7949,4.86,4.8815,4.864,4.8815,4.8913,4.8913,4.8913,4.8913,4.8913,4.8913,4.8913,4.8913,4.8913,4.8913,4.8913,4.8913,4.8913,4.8913,4.8913,4.8913,4.8913,2.4756,2.4756,2.4823,2.5037,2.5248,2.5462,2.5705,2.5932,2.6185,2.636,2.6279,2.6198,2.6118,2.6253,0.0,0.0,2.7362,2.7415,0.0,0.0,2.7001,2.6266,2.6253,0.0,2.6466,2.64,2.6346,2.6266,2.6346,2.6386,2.6386,2.6306,2.6653,2.7335,2.7322,2.7789,2.8601,2.8243,2.8337,2.8794,2.8794,2.936,3.0411,3.2976,3.3004,3.1806,3.2455,3.2677,3.2791,3.3266,3.431,0.0,3.5821,0.0,3.8605,0.0,0.0,0.0,4.0657,0.0,0.0,0.0,0.0,0.0,0.0,0.0,0.0,0.0,0.0,0.0,0.0,0.0,0.0,0.0,0.0,4.3457,0.0,0.0,0.0,0.0,0.0,0.0,0.0,3.9853,4.0469,4.0921,4.0946,4.2111,4.4801,4.407,4.4752,4.7357,4.7754,4.791,4.7851,4.8652,4.8926,4.8718,4.8855,4.8913,4.8913,4.8913,4.8913,4.8913,4.8913,4.8913,4.8913,4.8913,4.8913,4.8913,4.8913,4.8913,4.8913,4.8913,4.8913,4.8913,2.5064,2.5064,2.5101,2.5115,2.5583,2.6065,2.6319,2.6373,2.6373,2.6386,2.6627,2.6694,0.0,0.0,0.0,0.0,0.0,2.8911,2.7749,0.0,2.755,0.0,0.0,2.6533,0.0,2.6814,2.6253,2.6011,2.6253,2.6386,2.6386,2.6145,2.6172,2.6453,2.7055,2.7442,2.7802,2.8601,2.9499,3.0333,3.0333,3.2225,3.4744,0.0,3.1021,3.1995,3.4373,0.0,0.0,3.7273,3.8106,0.0,0.0,0.0,0.0,0.0,0.0,0.0,0.0,0.0,0.0,4.2713,0.0,0.0,0.0,0.0,4.1894,0.0,0.0,0.0,0.0,0.0,0.0,0.0,0.0,0.0,0.0,0.0,0.0,0.0,0.0,0.0,0.0,4.0364,4.1949,0.0,4.3223,4.4461,4.7852,4.5705,4.515,4.6884,4.8164,4.8223,4.6928,4.8606,4.9082,4.8223,4.8698,4.8913,4.8913,4.8913,4.8913,4.8913,4.8913,4.8913,4.8913,4.8913,4.8913,4.8913,4.8913,4.8913,4.8913,4.8913,4.8913,4.8913,2.2951,2.2261,2.2288,2.5177,2.4674,2.3459,2.2387,2.2147,2.2225,0.0,2.2355,0.0,0.0,2.282,2.3137,0.0,0.0,2.6379,2.5873,2.7288,0.0,0.0,0.0,2.672,0.0,2.664,2.6346,2.6239,2.6346,2.6386,2.6386,2.6332,2.6293,2.6426,2.7201,2.7936,2.8575,2.9125,2.9847,0.0,0.0,3.3625,3.4376,0.0,3.487,3.6668,3.7482,3.7757,0.0,3.8469,3.9626,4.0833,4.0922,4.2364,4.4081,4.4081,4.4615,4.5156,4.4707,0.0,4.4922,4.3613,0.0,0.0,0.0,0.0,0.0,0.0,0.0,0.0,0.0,0.0,0.0,0.0,0.0,0.0,0.0,0.0,0.0,0.0,0.0,0.0,0.0,0.0,0.0,0.0,4.6067,0.0,4.8138,4.7388,4.7163,4.7728,4.793,4.793,4.7773,4.8359,4.8789,4.9036,4.9219,4.9297,4.9297,4.9297,4.9141,4.8913,4.8913,4.8913,4.8913,4.8913,4.8913,4.8913,4.8913,4.8913,4.8913,4.8913,4.8913,4.8913,2.1022,2.0469,2.0788,2.4227,2.3143,2.1424,2.0332,2.0177,0.0,0.0,2.0428,0.0,2.0576,0.0,2.086,0.0,2.3831,2.5257,2.5088,2.7195,0.0,2.8217,2.7615,0.0,0.0,0.0,2.7068,2.6854,2.6747,2.6653,2.6547,2.6547,2.6547,2.6573,2.7241,2.8163,2.9161,2.9285,2.9953,0.0,0.0,3.5239,0.0,0.0,3.7854,3.8493,0.0,4.0061,4.0196,4.1067,4.2351,4.357,4.383,4.4641,4.5527,4.582,4.5703,4.5449,4.5293,4.5469,0.0,4.4238,4.418,0.0,4.2773,0.0,0.0,0.0,0.0,0.0,0.0,0.0,0.0,0.0,0.0,0.0,0.0,0.0,0.0,0.0,0.0,0.0,0.0,0.0,0.0,0.0,0.0,0.0,0.0,4.8359,4.8301,4.7988,4.8164,4.832,4.8437,4.875,4.9199,4.9766,4.9562,4.9484,4.9531,4.9355,4.9141,4.8913,4.8913,4.8913,4.8913,4.8913,4.8913,4.8913,4.8913,4.8913,4.8913,4.8913,4.8913,4.8913,1.9364,1.9703,2.0528,2.2333,2.1154,1.9939,1.998,2.0131,2.0357,0.0,2.0515,2.0458,2.0356,2.0969,2.1314,2.1097,2.3896,2.5593,2.5436,2.7225,0.0,0.0,2.8874,2.8781,2.9887,0.0,0.0,0.0,2.7443,2.7108,2.68,2.6774,2.6814,2.6854,2.7297,2.8293,2.968,2.9498,3.0213,3.1743,3.3773,3.7265,4.137,4.1511,3.9835,3.7818,4.1019,4.2158,4.251,4.4871,4.5918,4.6269,4.6269,4.6308,4.6328,4.6328,4.6348,4.6289,4.5922,4.5805,4.5566,4.4707,4.4492,0.0,0.0,0.0,4.4453,0.0,0.0,0.0,0.0,0.0,0.0,0.0,0.0,0.0,0.0,0.0,0.0,0.0,0.0,0.0,0.0,0.0,0.0,0.0,0.0,0.0,0.0,4.8659,4.8503,4.7676,4.8828,4.9277,4.8913,4.9734,5.0184,5.0176,4.9766,4.9504,4.9504,4.9101,4.8933,4.8913,4.8913,4.8913,4.8913,4.8933,4.8933,4.8913,4.8933,4.8933,4.8913,4.8913,4.8913,4.8913,1.7379,1.7783,1.8707,2.1263,1.9606,1.7323,1.5728,1.5739,0.0,0.0,1.6348,1.6552,1.6708,1.69,1.7717,1.9465,2.2047,0.0,0.0,0.0,0.0,3.0266,2.9584,2.9379,2.99,2.8831,0.0,2.8072,2.7295,2.7014,2.7148,2.6707,2.6734,2.7229,2.9039,3.0685,3.2309,3.4164,3.5539,3.6654,3.8718,3.9922,4.0723,0.0,4.3035,4.1801,4.3604,4.4257,4.4343,4.4962,4.5469,4.584,4.584,4.6269,4.6777,4.6777,4.6992,4.7226,4.7109,4.709,4.6894,4.6035,4.582,4.5527,0.0,0.0,0.0,0.0,0.0,0.0,0.0,0.0,0.0,0.0,0.0,0.0,0.0,0.0,0.0,0.0,0.0,0.0,0.0,0.0,0.0,0.0,0.0,0.0,0.0,0.0,4.8418,4.8581,4.8535,4.8652,4.8913,4.9128,4.9578,5.0176,5.0058,5.0019,5.0,4.9551,4.918,4.8913,4.8913,4.8913,4.8933,4.9219,4.916,4.8933,4.9219,4.916,4.8913,4.8913,4.8913,4.8913,1.7037,1.8308,1.9504,2.1215,1.9312,1.7066,1.5815,1.5867,1.5696,1.4829,1.6712,0.0,1.7198,1.8081,1.9334,2.0867,2.3255,0.0,2.6326,0.0,0.0,3.0587,3.0354,3.0381,3.0675,2.99,0.0,2.8955,0.0,2.7482,2.7296,2.7899,2.8323,2.8629,3.1249,3.3107,3.4348,3.6307,3.7936,3.9303,4.0456,4.1226,0.0,4.3736,4.3984,4.3476,4.4414,4.4746,4.4785,4.4918,4.543,4.5957,4.5957,4.6523,4.7187,4.6948,4.7246,4.7578,4.7578,4.7578,4.7422,4.6738,4.6582,4.6348,4.543,4.5605,4.582,0.0,4.5469,0.0,0.0,0.0,0.0,0.0,0.0,0.0,0.0,0.0,0.0,0.0,0.0,0.0,0.0,0.0,0.0,0.0,0.0,0.0,0.0,0.0,4.8125,4.8555,4.8164,4.832,4.9141,4.9011,4.9343,5.0176,4.998,4.9902,4.9883,4.9433,4.9101,4.8913,4.8913,4.9011,4.918,4.9414,4.9375,4.916,4.9219,4.9082,4.8913,4.8913,4.8913,4.8913,1.8005,2.0177,2.1795,2.2571,2.041,1.8697,1.9035,1.8647,1.7729,1.6182,0.0,2.1614,2.0026,2.1761,2.3291,2.3863,0.0,2.7143,2.7241,2.9497,3.0849,3.0849,3.1129,3.1396,3.1711,3.1343,0.0,0.0,0.0,2.8585,2.7894,2.9943,3.0858,3.0825,3.3838,3.5753,3.6802,3.7757,3.9191,4.0855,4.0782,4.1969,4.3789,4.3789,4.3828,4.3926,4.4336,4.4433,4.4453,4.484,4.5586,4.6308,4.6308,4.6933,4.7598,4.7207,4.7402,4.7754,4.7754,4.7715,4.7558,4.7129,4.6973,4.6772,4.6406,4.6308,4.6308,4.6308,4.6016,4.5987,0.0,0.0,0.0,0.0,0.0,0.0,0.0,0.0,0.0,0.0,0.0,0.0,0.0,0.0,0.0,0.0,0.0,0.0,0.0,0.0,4.7676,4.8281,4.7891,4.8203,4.9289,4.9082,4.9382,5.0098,4.9707,4.9504,4.959,4.9082,4.8913,4.8913,4.8913,4.9082,4.9453,4.9465,4.9484,4.9492,4.907,4.8913,4.8913,4.8913,4.8913,4.8913,2.0618,2.195,2.3528,2.7454,2.4487,2.2252,2.4439,2.1363,1.9372,2.0962,2.2271,2.292,2.2718,2.3068,2.4161,2.628,2.6853,0.0,0.0,0.0,0.0,3.1156,3.1436,3.1623,3.1711,3.1142,3.0555,0.0,0.0,3.1049,3.0733,3.2427,3.3462,3.4008,3.6435,3.9274,4.2283,4.2512,4.2987,4.3633,4.3247,4.3593,4.4277,4.4277,4.4492,4.4762,4.4883,4.4687,4.4453,4.484,4.5586,4.6308,4.6308,4.7129,4.8086,4.8008,4.8301,4.8679,4.8679,4.8379,4.7988,4.7578,4.7187,4.6772,4.6406,4.6308,4.6308,4.6308,4.625,4.5502,4.3247,0.0,0.0,0.0,0.0,0.0,0.0,0.0,0.0,0.0,0.0,0.0,0.0,0.0,0.0,0.0,0.0,0.0,0.0,0.0,4.7207,0.0,4.832,4.8203,0.0,0.0,4.9492,4.9648,4.9523,4.9707,5.0039,4.9265,4.8913,4.8913,4.8913,4.8952,4.905,4.9375,4.9484,4.9492,4.907,4.8913,4.8913,4.8913,4.8913,4.8913,2.2291,2.4706,2.7137,2.9541,2.6825,2.5264,2.7967,2.542,2.3087,2.2908,2.5258,2.6562,2.5508,2.6641,2.8017,2.9353,2.9507,2.999,3.1203,3.1383,3.1383,3.1236,3.1517,0.0,3.1436,3.1316,3.0889,3.014,0.0,3.0893,3.1433,3.3186,3.4756,3.6261,3.9096,4.148,4.3398,4.3613,4.3828,4.4023,4.3789,4.3984,4.4394,4.4394,4.4805,4.5391,4.5605,4.5703,4.5703,4.5683,4.6113,4.666,4.6894,4.7695,4.8496,4.8281,4.8516,4.8855,4.8574,4.8359,4.8047,4.7402,4.709,4.6772,4.6406,4.5285,4.4365,4.4365,4.3415,4.1978,4.0218,3.9679,0.0,0.0,0.0,0.0,0.0,0.0,0.0,0.0,0.0,0.0,0.0,0.0,0.0,0.0,0.0,0.0,0.0,0.0,4.709,0.0,0.0,0.0,4.8535,0.0,4.8965,4.918,4.918,4.9297,4.9519,4.9089,4.8913,4.8913,4.8913,4.9167,4.9597,4.9766,4.9726,4.9465,4.9297,4.9062,4.8933,4.9121,4.9062,4.8913,2.3931,2.7369,3.0247,3.0467,2.8676,2.7917,3.0214,2.9073,2.7238,2.5155,2.8226,2.9991,2.8411,3.0067,3.141,3.1698,3.1711,3.1711,3.1711,3.1711,3.157,3.133,3.149,3.1463,3.1236,3.145,3.1183,0.0,0.0,3.0706,3.1643,3.3451,3.5509,3.7843,4.0483,4.2212,4.3105,4.3437,4.3691,4.3848,4.3848,4.418,4.4687,4.4766,4.5273,4.5996,4.6426,4.6777,4.7031,4.6777,4.6933,4.7266,4.7598,4.8288,4.8815,4.834,4.8457,4.8679,4.8203,4.8008,4.7638,4.6446,4.6062,4.5776,4.4946,4.3237,4.1843,4.1843,3.9954,3.8412,3.8846,3.869,0.0,0.0,0.0,0.0,0.0,0.0,0.0,0.0,0.0,0.0,0.0,0.0,0.0,0.0,0.0,0.0,4.7246,0.0,0.0,0.0,0.0,4.7955,4.862,0.0,4.8574,4.905,4.8952,4.9011,4.9187,4.8991,4.8913,4.8913,4.8913,4.9304,4.9902,4.9902,4.9687,4.9394,4.9492,4.9316,4.9089,4.9394,4.9297,4.9031,2.6325,2.9102,3.1036,3.0795,3.0544,3.0518,3.1056,3.0922,3.0735,3.0475,3.0849,3.1156,3.1259,3.1515,3.1684,3.1711,3.1711,3.1711,3.1711,3.1711,3.1711,3.1623,3.1396,3.1203,3.1176,3.1249,3.0969,0.0,0.0,3.2644,3.2231,3.3907,3.5999,3.8423,3.9033,4.0733,4.3127,4.3166,4.3594,4.4336,4.4336,4.4824,4.5605,4.5976,4.6406,4.6875,4.7305,4.748,4.7578,4.791,4.8047,4.8105,4.8144,4.8476,4.8815,4.834,4.8242,4.8183,4.7754,4.7344,4.6478,4.422,4.3324,4.2407,4.0175,3.9477,3.9358,3.9358,3.7597,3.7241,4.0973,4.096,4.068,0.0,0.0,0.0,0.0,0.0,0.0,0.0,0.0,0.0,0.0,0.0,0.0,0.0,4.5508,0.0,0.0,0.0,0.0,4.8223,4.7812,4.7617,4.774,4.8464,4.9023,4.9453,4.9043,4.9324,5.0019,4.9265,4.8913,4.8913,4.8913,4.8952,4.9031,4.9031,4.9011,4.9011,4.9375,4.9492,4.9473,4.9512,4.9492,4.9414,2.7367,2.9485,3.1249,3.1303,3.1169,3.1156,3.145,3.149,3.149,3.149,3.149,3.153,3.1698,3.1711,3.1711,3.1711,3.1711,3.1711,3.1711,3.1503,3.133,3.1156,3.1022,3.0889,3.0715,3.1049,3.1022,0.0,0.0,0.0,3.2846,3.3137,3.5352,3.9194,3.9316,4.1031,4.3867,4.3867,4.4219,4.4746,4.4492,4.4746,4.5332,4.5762,4.6191,4.6641,4.7324,4.7578,4.7598,4.7773,4.7988,4.8203,4.8203,4.832,4.8085,4.6188,4.5599,4.5232,4.3331,4.2643,4.2238,4.0993,4.0595,4.0175,3.9221,3.7849,3.6791,3.6791,3.6232,3.6351,3.8266,3.9244,4.0137,4.1276,0.0,0.0,0.0,0.0,0.0,0.0,0.0,0.0,0.0,0.0,0.0,0.0,0.0,0.0,0.0,0.0,0.0,4.7793,0.0,4.7949,4.7949,4.8828,4.9355,4.9484,4.9336,4.9433,4.9766,4.9187,4.8913,4.8913,4.9141,4.9101,4.8933,4.9141,4.9101,4.8952,4.9355,4.9484,4.9484,4.9484,4.9484,4.9453,2.8799,3.0234,3.1423,3.1684,3.149,3.1423,3.1684,3.1711,3.1711,3.1711,3.1711,3.1711,3.1711,3.1711,3.1711,3.1711,3.1711,3.1684,3.1543,3.1343,3.1089,3.0808,3.0715,0.0,3.0533,3.0808,3.0915,3.0795,3.0421,0.0,3.2204,3.17,3.4045,3.8645,3.8726,4.0798,4.4199,4.4199,4.4433,4.472,4.3756,4.3637,4.3971,4.3834,4.3946,4.43,4.5167,4.5448,4.5448,4.5448,4.5653,4.597,4.674,4.6447,4.5463,4.3281,4.2651,4.2196,4.0008,3.9402,3.9152,3.8173,3.7895,3.7712,3.7021,3.5509,3.4452,3.5137,3.6063,3.7071,3.8197,3.9534,4.0926,4.2446,0.0,0.0,0.0,0.0,0.0,0.0,0.0,0.0,0.0,0.0,0.0,0.0,0.0,0.0,0.0,0.0,0.0,0.0,0.0,0.0,4.8203,4.9036,4.959,4.9707,4.959,4.959,4.9707,4.9167,4.8913,4.8913,4.9199,4.9141,4.8933,4.9199,4.9141,4.8952,4.9492,4.9648,4.9504,4.9668,4.9648,4.9453,3.1141,3.1664,3.1711,3.1711,3.1711,3.1711,3.1711,3.1711,3.1711,3.1711,3.1711,3.1711,3.1711,3.1711,3.1711,3.1711,3.1711,3.1543,3.1249,3.1176,3.1089,0.0,0.0,3.0547,3.0782,3.056,3.056,3.0795,0.0,0.0,2.9958,2.9664,3.2004,3.6446,3.6708,3.9395,4.3711,4.3711,4.3984,4.4185,4.189,4.1192,4.147,3.9886,3.9295,3.9395,4.0128,4.0394,4.0394,4.0394,4.0394,4.0814,4.3196,4.2319,4.0281,3.9822,3.966,3.9577,3.9138,3.8993,3.8445,3.5974,3.5323,3.4733,3.2313,3.1758,3.2408,3.4826,3.7252,3.9839,4.2692,4.3235,4.3919,4.5884,0.0,0.0,0.0,0.0,0.0,0.0,0.0,0.0,0.0,0.0,0.0,0.0,0.0,0.0,0.0,0.0,0.0,4.8164,4.8203,0.0,4.8203,4.9036,4.9746,5.0176,4.9726,4.9746,5.0137,4.9304,4.8913,4.8913,4.8913,4.8913,4.8913,4.8913,4.8913,4.8991,4.9824,4.9902,4.959,5.0019,4.9902,4.9453,3.1521,3.1711,3.1711,3.1711,3.1711,3.1711,3.1711,3.1711,3.1711,3.1711,3.1711,3.1597,3.1383,3.1543,3.1583,3.1383,3.137,3.1249,3.0942,3.0742,3.0641,3.0547,3.0221,3.01,3.0194,3.0346,3.0453,3.0547,3.0314,3.0114,2.9913,2.982,3.1413,3.4349,3.4458,3.6313,3.9458,3.9458,3.9729,4.0018,3.9001,3.8773,3.9076,3.8791,3.8659,3.8712,3.9514,3.963,3.9415,3.9415,3.8262,3.7025,3.7799,3.8841,3.9389,3.7288,3.6668,3.6281,3.4496,3.4013,3.4233,3.5106,3.5277,3.5556,3.6483,3.6652,3.6883,3.7666,3.975,4.1832,4.3054,4.4651,4.6063,4.7015,4.7519,0.0,0.0,0.0,0.0,0.0,0.0,0.0,0.0,4.7212,0.0,0.0,0.0,0.0,0.0,0.0,0.0,0.0,4.8066,0.0,4.8203,4.9375,5.0039,5.0176,5.0039,4.9726,4.9324,4.9031,4.8913,4.8913,4.8913,4.8913,4.8913,4.8913,4.8913,4.8952,4.9512,4.9824,4.9961,4.9785,4.9844,4.9863,3.0258,3.1033,3.1711,3.1711,3.1711,3.1711,3.1711,3.1711,3.1711,3.1711,3.157,3.1476,3.1396,3.1356,3.1263,3.1076,3.1062,3.0942,3.0648,3.0507,3.036,3.0194,3.002,2.9967,3.0074,3.0154,3.0247,3.04,3.0247,3.01,2.9913,2.9913,3.1137,3.3395,3.3395,3.4847,3.7264,3.7264,3.738,3.7535,3.6386,3.6119,3.6292,3.5785,3.5638,3.5715,3.6405,3.6467,3.6252,3.6252,3.5245,3.3966,3.3966,3.5784,3.7427,3.4745,3.4592,3.4966,3.345,3.3732,3.4779,3.6282,3.6698,3.7114,3.8674,3.9721,4.0356,4.0356,4.2309,4.4086,4.4391,4.5687,4.6777,4.7051,4.7226,4.748,4.791,0.0,0.0,0.0,0.0,0.0,0.0,4.7558,4.7187,0.0,0.0,0.0,0.0,0.0,0.0,4.8047,4.832,4.8535,4.8711,4.9687,5.0254,5.041,5.0254,4.9754,4.8913,4.8913,4.8913,4.8913,4.8913,4.8913,4.8913,4.8913,4.8913,4.8952,4.9355,4.9687,4.9902,4.9629,4.9707,4.9824,2.778,2.9768,3.1474,3.1664,3.1711,3.1711,3.1711,3.1711,3.1711,3.1711,3.141,3.1316,3.1631,3.1102,3.0755,3.0728,3.0755,3.0635,3.04,3.0373,3.0253,2.9927,2.9913,3.0047,3.0373,3.006,3.0047,3.0373,3.0047,2.9913,2.9913,2.9913,3.1093,3.3175,3.3175,3.4329,3.6313,3.6313,3.6313,3.614,3.3994,3.3324,3.3382,3.1533,3.0969,3.1216,3.1557,3.1711,3.1711,3.1711,3.1711,3.1711,3.1711,3.337,3.4872,3.263,3.3638,3.5556,3.5556,3.7267,3.9072,3.9254,3.9436,3.9527,3.9494,4.1259,4.2863,4.2863,4.4693,4.6308,4.6348,4.6348,4.6348,4.6348,4.668,4.707,4.748,4.7558,0.0,0.0,0.0,0.0,0.0,4.6797,4.7168,0.0,0.0,0.0,0.0,0.0,4.7617,4.8855,4.8933,4.9101,4.9531,4.998,5.041,5.0801,5.0371,4.9773,4.8952,4.8913,4.8913,4.8913,4.8913,4.8913,4.8913,4.8913,4.8913,4.8952,4.9394,4.9523,4.9523,4.9523,4.9523,4.9512,2.7384,2.8308,2.9338,3.1331,3.1711,3.1711,3.1711,3.1711,3.1711,3.1711,3.141,3.1169,3.1022,3.0675,3.0368,3.014,3.0327,3.0386,3.0047,3.002,2.9993,2.9913,2.9913,2.9953,3.002,2.9953,2.9953,3.002,2.9953,2.9913,2.9913,2.9913,3.0213,3.0736,3.0736,3.1048,3.1523,3.1523,3.1523,3.1479,3.0959,3.0928,3.1185,3.0905,3.0969,3.1216,3.1557,3.1711,3.1711,3.1711,3.1711,3.1711,3.1711,3.337,3.5184,3.4639,3.6205,3.8108,3.8108,3.8778,3.9895,4.1786,4.3676,4.4937,4.4636,4.5021,4.5417,4.5417,4.5895,4.6406,4.6674,4.6777,4.6777,4.6777,4.6831,4.6928,4.707,4.7363,4.7656,0.0,4.7812,4.7891,4.8268,4.8047,4.7812,0.0,0.0,4.8183,4.7754,4.8164,4.8581,4.8894,4.9199,4.9414,4.9484,5.0273,5.0703,5.0801,5.0371,4.9883,4.9355,4.907,4.8913,4.8913,4.8913,4.8913,4.8913,4.8913,4.8913,4.8991,4.9726,5.0019,5.0019,5.0019,5.0019,4.9922,2.3977,2.6168,2.826,2.9673,3.0786,3.1463,3.1463,3.1463,3.1423,3.1289,3.1129,3.0969,3.0808,3.0408,3.014,3.0114,3.014,3.0087,2.9927,2.9913,2.9913,2.9913,2.9913,2.9913,2.9913,2.9913,2.9913,2.9913,2.9913,2.9913,2.9913,2.9913,2.9913,2.9913,2.9913,2.9913,2.9913,2.9913,2.9913,2.9913,2.9913,3.01,3.0426,3.0587,3.0768,3.1062,3.1356,3.1463,3.149,3.1671,3.1711,3.1711,3.1711,3.337,3.5277,3.5277,3.7833,4.0672,4.0672,4.1765,4.3298,4.4893,4.6248,4.7168,4.6933,4.6894,4.6894,4.6894,4.6894,4.6578,4.5633,4.6428,4.6792,4.538,4.5208,4.563,4.6737,4.6152,4.6214,4.7735,4.793,4.8008,4.8307,4.8242,4.8027,4.7617,4.8164,0.0,4.7891,4.8691,4.916,4.916,4.959,4.9824,4.9824,5.0469,5.0801,5.0801,5.0566,5.0137,4.9465,4.9277,4.9043,4.8913,4.8913,4.9011,4.916,4.916,4.916,4.9238,4.9922,5.0176,5.0156,4.9961,5.0,5.0106,2.0432,2.4359,2.7818,2.8248,2.9857,3.1122,3.1176,3.1196,3.1076,3.0822,3.0755,3.0728,3.0728,3.0247,3.002,3.0319,3.006,2.9913,2.9913,2.9913,2.9913,2.9913,2.9913,2.9913,2.9913,2.9913,2.9913,2.9913,2.9913,2.9913,2.9913,2.9913,2.9913,2.9913,2.9913,2.9913,2.9913,2.9913,2.9913,2.9913,2.9913,3.0074,3.0346,3.0386,3.056,3.0768,3.1102,3.1176,3.1276,3.157,3.1711,3.1711,3.1711,3.337,3.5277,3.5277,3.8553,4.2111,4.2058,4.4212,4.6574,4.6999,4.7386,4.7656,4.7598,4.7578,4.7488,4.7108,4.7353,4.6702,4.3746,4.5359,4.6128,4.3152,4.2761,4.3669,4.6006,4.4617,4.4423,4.725,4.7637,4.7656,4.7623,4.791,4.7988,4.7695,4.8405,4.8698,4.8418,4.9121,4.9504,4.9629,5.0039,5.0312,5.0371,5.0723,5.0859,5.0801,5.0801,5.0391,4.9629,4.9504,4.9316,4.9011,4.9011,4.9141,4.9433,4.9445,4.9445,4.9473,4.998,5.0176,5.0137,4.9824,4.9922,5.0058,2.2297,2.5065,2.7791,3.0238,3.077,3.0942,3.1196,3.1022,3.0849,3.0795,3.0581,3.048,3.048,3.0127,2.994,2.998,2.994,2.9913,2.9913,2.9913,2.9913,2.9913,2.9913,2.9913,2.9913,2.9913,2.9913,2.9913,2.9913,2.9913,2.9913,2.9913,2.9913,2.9913,2.9913,2.9913,2.9913,2.9913,2.9913,2.9913,2.9913,2.994,3.0007,3.0306,3.044,3.0547,3.1036,3.1176,3.1276,3.157,3.1711,3.1711,3.1711,3.337,3.5277,3.5277,3.7503,3.9833,3.9606,4.1919,4.4472,4.4828,4.6495,4.8027,4.7656,4.7578,4.6973,4.4746,4.6076,4.6261,4.183,4.3117,4.3941,4.1031,4.0591,4.1371,4.3543,4.3824,4.4763,4.7289,4.7891,4.7969,4.7617,4.7637,4.7793,4.8086,4.8223,4.8613,4.9231,4.9406,4.9707,5.0058,5.0488,5.0879,5.123,5.1308,5.1152,5.0801,5.0801,5.0547,5.0058,4.9687,4.9492,4.9414,4.9414,4.9258,4.9031,4.9375,4.9297,4.9089,4.9863,5.0176,5.0215,5.0508,5.043,5.0098,2.2854,2.5144,2.7309,2.8669,2.9852,3.0654,3.0742,3.0648,3.0501,3.0341,3.0341,3.0346,3.014,2.9993,2.9913,2.9913,2.9913,2.9913,2.9913,2.9913,2.9913,2.9913,2.9913,2.9913,2.9913,2.9913,2.9913,2.9913,2.9913,2.9913,2.9913,2.9913,2.9913,2.9913,2.9913,2.9913,2.9913,2.9913,2.9913,2.9913,2.9913,2.9913,2.9953,3.0293,3.0306,3.0194,3.0782,3.0996,3.1036,3.133,3.153,3.1711,3.1711,3.2455,3.3398,3.3506,3.6339,3.9478,3.9739,4.0895,4.2188,4.2567,4.3568,4.4379,4.4199,4.4164,4.3837,4.2583,4.3304,4.3028,3.9419,4.0892,4.168,3.8703,3.9448,4.1056,4.2943,4.3605,4.4718,4.6978,4.7617,4.7891,4.791,4.791,4.8086,4.8535,4.86,4.873,4.9141,4.9394,4.9512,4.9519,5.0117,5.0664,5.1094,5.1094,5.1113,5.1133,5.1133,5.0918,5.0508,5.0078,4.9746,4.9484,4.9484,4.9414,4.9258,4.9707,4.9746,4.9676,5.0273,5.0508,5.0547,5.0723,5.0547,5.0117,2.3728,2.583,2.7628,2.7689,2.9128,3.0319,3.04,3.0346,3.0181,2.994,3.0114,3.0167,2.994,2.9913,2.9913,2.9913,2.9913,2.9913,2.9913,2.9913,2.9913,2.9913,2.9913,2.9913,2.9913,2.9913,2.9913,2.9913,2.9913,2.9913,2.9913,2.9913,2.9913,2.9913,2.9913,2.9913,2.9913,2.9913,2.9913,2.9913,2.9913,2.9913,2.9953,3.0293,3.0261,3.0181,3.0702,3.0942,3.1036,3.133,3.1583,3.1831,3.1898,3.1925,3.1965,3.2144,3.4918,3.8025,3.8592,3.9212,3.9787,4.019,4.0754,4.1187,4.1187,4.1187,4.1043,4.0416,4.0754,4.0223,3.6987,3.8539,3.9288,3.6265,3.7967,4.0328,4.2136,4.3204,4.457,4.6778,4.7383,4.7715,4.8027,4.8066,4.8242,4.8718,4.8757,4.8835,4.905,4.9238,4.9219,4.8913,4.9773,5.0332,5.0664,5.0762,5.0859,5.0948,5.1094,5.0918,5.0508,5.0273,4.9941,4.9484,4.9679,4.9648,4.9414,4.9961,5.0117,5.0078,5.0488,5.0723,5.082,5.0918,5.0625,5.0137,2.6005,2.799,2.979,3.01,3.0005,3.0047,3.036,3.0127,2.994,2.9913,2.994,2.994,2.9913,2.9913,2.9913,2.9913,2.9913,2.9913,2.9913,2.9913,2.9913,2.9913,2.9913,2.9913,2.9913,2.9913,2.9913,2.9913,2.9913,2.9913,2.9913,2.9913,2.9913,2.9913,2.9913,2.9913,2.9913,2.9913,2.9913,2.9913,2.9913,2.9913,2.9953,3.0293,3.056,3.0768,3.1076,3.137,3.165,3.1944,3.2051,3.2118,3.2447,3.2527,3.2527,3.2554,3.2986,3.3497,3.3538,3.5324,3.7218,3.7534,3.9399,4.1187,4.1187,4.1187,4.0513,3.8099,3.9496,3.9642,3.4621,3.5833,3.6653,3.374,3.5115,3.7407,3.9939,4.208,4.4367,4.7211,4.7558,4.7598,4.7617,4.7617,4.7793,4.8223,4.8262,4.8613,4.9387,4.9121,4.8933,4.8913,4.9773,5.0195,5.0215,5.0605,5.043,4.9668,5.0078,5.0039,4.9629,5.0,4.9941,4.9523,5.0371,5.0019,4.9011,4.9824,4.9941,4.9609,5.0058,5.0469,5.0859,5.125,5.0879,5.0223,2.8507,2.9272,2.9953,3.006,2.9993,2.9953,3.0074,2.9993,2.9913,2.9913,2.9913,2.9913,2.9913,2.9913,2.9913,2.9913,2.9913,2.9913,2.9913,2.9913,2.9913,2.9913,2.9913,2.9913,2.9913,2.9913,2.9913,2.9913,2.9913,2.9913,2.9913,2.9913,2.9913,2.9913,2.9913,2.9913,2.9913,2.9913,2.9913,2.9913,2.9913,2.9913,2.9967,3.0448,3.0474,3.0341,3.0996,3.1183,3.1169,3.1463,3.1797,3.2118,3.2238,3.2447,3.2634,3.2808,3.3013,3.324,3.324,3.3972,3.4765,3.4841,3.5635,3.6318,3.6163,3.6119,3.5782,3.4632,3.5161,3.5258,3.326,3.3737,3.4513,3.4907,3.7054,3.9503,4.1977,4.4435,4.6356,4.7469,4.7578,4.7676,4.7949,4.7969,4.8144,4.8574,4.8613,4.875,4.9101,4.8991,4.8913,4.8913,4.9453,4.9785,4.9785,5.0195,5.0254,4.9941,5.0098,5.0098,4.9922,4.9824,4.9824,4.9941,4.998,4.9726,4.9297,4.9629,4.9844,4.9941,5.0117,5.0586,5.1172,5.1074,5.0683,5.0137,2.9913,2.9913,2.9913,2.9913,2.9913,2.9913,2.9913,2.9913,2.9913,2.9913,2.9913,2.9913,2.9913,2.9913,2.9913,2.9913,2.9913,2.9913,2.9913,2.9913,2.9913,2.9913,2.9913,2.9913,2.9913,2.9913,2.9913,2.9913,2.9913,2.9913,2.9913,2.9913,2.9913,2.9913,2.9913,2.9967,3.0047,2.9953,2.9967,3.0047,2.9953,2.9967,3.0114,3.0702,3.0742,3.0555,3.1249,3.137,3.1236,3.1436,3.177,3.2118,3.2211,3.2487,3.2755,3.2862,3.3053,3.3253,3.316,3.3146,3.3187,3.336,3.3347,3.3227,3.3026,3.2906,3.2835,3.2634,3.2594,3.2594,3.2594,3.333,3.4399,3.5942,3.9176,4.1976,4.349,4.5966,4.7637,4.7754,4.7773,4.7949,4.8359,4.8418,4.8535,4.8874,4.8913,4.8913,4.8913,4.8913,4.8913,4.8913,4.916,4.9316,4.9316,4.9766,4.9902,4.9813,4.9813,4.9844,4.9961,4.9668,4.9766,5.0176,5.0,4.9738,4.9484,4.9668,4.9902,5.0176,5.0176,5.0683,5.1338,5.0957,5.0547,5.0117,2.9913,2.9913,2.9913,2.9913,2.9913,2.9913,2.9913,2.9913,2.9913,2.9913,2.9913,2.9913,2.9913,2.9913,2.9913,2.9913,2.9913,2.9913,2.9913,2.9913,2.9913,2.9913,2.9913,2.9913,2.9913,2.9913,2.9913,2.9913,2.9913,2.9913,2.9913,2.9913,2.9913,2.9913,2.9927,3.0087,3.0386,3.0047,3.01,3.0386,3.0047,3.01,3.0467,3.1009,3.141,3.1751,3.1998,3.2104,3.2091,3.2104,3.2104,3.2158,3.25,3.2795,3.2919,3.2674,3.2795,3.2969,3.2674,3.2594,3.2728,3.3253,3.3187,3.2973,3.2973,3.2795,3.2594,3.2581,3.2594,3.2643,3.2643,3.4915,3.6717,3.6307,4.0835,4.4263,4.382,4.5985,4.7734,4.8164,4.8223,4.8379,4.8855,4.8913,4.8913,4.8913,4.8913,4.8913,4.8913,4.8913,4.8913,4.8913,4.8913,4.8913,4.8913,4.9297,4.9297,4.8913,4.8913,4.9101,4.9531,4.9484,4.9766,5.0195,5.0625,5.0312,4.9523,5.0,5.0176,5.0176,5.0176,5.0683,5.1338,5.0957,5.0527,5.0117,2.9913,2.9913,2.9913,2.9913,2.9913,2.9913,2.9913,2.9913,2.9913,2.9913,2.9913,2.9913,2.9913,2.9913,2.9913,2.9913,2.9913,2.9913,2.9913,2.9913,2.9913,2.9913,2.9913,2.9913,2.9913,2.9913,2.9913,2.9913,2.9913,2.9913,2.9927,3.0127,3.0266,3.0234,3.0434,3.0581,3.0662,3.0568,3.0581,3.0662,3.0568,3.0581,3.0702,3.1076,3.1156,3.1116,3.1623,3.1664,3.1517,3.173,3.1931,3.2158,3.25,3.2648,3.2701,3.2621,3.2661,3.2701,3.2621,3.2594,3.2634,3.2808,3.2795,3.2674,3.2412,3.2291,3.2171,3.2019,3.3583,3.4984,3.4984,3.7314,3.9758,4.1344,4.2962,4.4691,4.6611,4.7534,4.8183,4.8659,4.8718,4.8757,4.8894,4.8913,4.8913,4.8913,4.8913,4.8913,4.8913,4.8913,4.8913,4.8913,4.8913,4.8913,4.8913,4.9031,4.9031,4.8913,4.8913,4.8972,4.9062,4.9375,4.959,4.9726,4.9863,4.9718,4.9512,4.9336,4.9656,5.0176,5.0176,5.0683,5.1299,5.0625,5.0293,5.0078,2.9913,2.9913,2.9913,2.9913,2.9913,2.9913,2.9913,2.9913,2.9913,2.9913,2.9913,2.9913,2.9913,2.9913,2.9913,2.9913,2.9913,2.9913,2.9913,2.9913,2.9913,2.9913,2.9913,2.9913,2.9913,3.0034,3.0034,2.9913,3.0034,3.0034,2.9927,3.0221,3.04,3.0426,3.0662,3.0862,3.0955,3.0849,3.0862,3.0955,3.0835,3.0862,3.0996,3.1289,3.1289,3.1196,3.1677,3.165,3.1423,3.161,3.1831,3.1957,3.2193,3.2326,3.2393,3.2286,3.2326,3.2393,3.2273,3.2246,3.2246,3.2246,3.234,3.2367,3.2144,3.2011,3.2164,3.2941,3.4668,3.6288,3.7258,3.9934,4.2429,4.3692,4.5004,4.6431,4.7956,4.8359,4.8555,4.8874,4.8913,4.8913,4.8913,4.8913,4.8913,4.8913,4.8913,4.8913,4.8913,4.8913,4.8913,4.8913,4.8913,4.8913,4.8913,4.8913,4.8913,4.8913,4.8913,4.8991,4.9121,4.9219,4.9453,4.9785,4.9562,4.9484,4.9465,4.9238,4.9551,5.0176,5.0176,5.0683,5.128,5.0488,5.0176,5.0106,2.9913,2.9913,2.9913,2.9913,2.9913,2.9913,2.9913,2.9913,2.9913,2.9913,2.9913,2.9913,2.9913,2.9913,2.9913,2.9913,2.9913,2.9913,2.9913,2.9913,2.9913,2.9913,2.9913,2.9927,2.9953,3.0221,3.0266,2.9953,3.0247,3.0261,3.0007,3.0301,3.048,3.0493,3.0742,3.1022,3.1249,3.0982,3.1022,3.1236,3.0982,3.1022,3.1289,3.157,3.1711,3.1751,3.1971,3.1891,3.1711,3.1711,3.1711,3.1711,3.1711,3.1851,3.2011,3.1791,3.1851,3.2011,3.1791,3.1711,3.1724,3.1751,3.1891,3.2064,3.2064,3.1864,3.2408,3.487,3.5904,3.7117,3.9604,4.2766,4.4863,4.4434,4.6906,4.8776,4.832,4.8613,4.8913,4.8913,4.8913,4.8913,4.8913,4.8913,4.8913,4.8913,4.8913,4.8913,4.8913,4.8913,4.8913,4.8913,4.8913,4.8913,4.8913,4.8913,4.8913,4.8913,4.8913,4.9101,4.9465,4.9101,4.9402,5.0098,4.9707,4.9465,4.9473,4.9473,4.9726,5.0117,5.0156,5.0664,5.1221,5.0469,5.0176,5.0106,2.9913,2.9913,2.9913,2.9913,2.9913,2.9913,2.9913,2.9913,2.9913,2.9913,2.9913,2.9913,2.9913,2.9913,2.9913,2.9913,2.9913,2.9913,2.9913,2.9913,2.9913,2.9913,2.9913,3.002,3.0306,3.0373,3.0373,3.0306,3.0555,3.0662,3.0608,3.0902,3.1036,3.1049,3.1343,3.1564,3.157,3.155,3.1564,3.157,3.155,3.1564,3.1583,3.1684,3.1711,3.1724,3.1791,3.1764,3.1711,3.1711,3.1711,3.1711,3.1711,3.1764,3.1805,3.1738,3.1764,3.1744,3.1738,3.1711,3.1764,3.1944,3.1891,3.1805,3.1805,3.1764,3.2476,3.5244,3.7742,4.022,4.2999,4.5964,4.7915,4.7819,4.8434,4.8874,4.8776,4.8855,4.8913,4.8913,4.8913,4.8913,4.8913,4.8913,4.8913,4.8913,4.8913,4.8913,4.8913,4.8913,4.8913,4.8913,4.8913,4.8913,4.8913,4.8913,4.8913,4.8913,4.8913,4.9101,4.9531,4.9433,4.9492,4.9668,4.9523,4.9336,4.905,4.905,4.9277,4.9707,5.0039,5.0488,5.0879,5.0371,5.0176,5.0106,2.9913,2.9913,2.9913,2.9913,2.9913,2.9913,2.9913,2.9913,2.9913,2.9913,2.9913,2.9913,2.9913,2.9913,2.9913,2.9913,2.9913,2.9913,2.9913,2.9913,2.9913,2.9913,2.9913,3.006,3.04,3.0547,3.0614,3.0614,3.0862,3.0929,3.0795,3.1089,3.1176,3.1189,3.153,3.1711,3.1711,3.1711,3.1711,3.1711,3.1711,3.1711,3.1711,3.1711,3.1711,3.1711,3.1711,3.1711,3.1711,3.1711,3.1711,3.1711,3.1711,3.1711,3.1711,3.1711,3.1711,3.1711,3.1711,3.177,3.1904,3.2064,3.3023,3.3617,3.2414,3.2032,3.3029,3.71,3.9315,4.1697,4.5594,4.7734,4.8913,4.8913,4.8913,4.8913,4.8913,4.8913,4.8913,4.8913,4.8913,4.8913,4.8913,4.8913,4.8913,4.8913,4.8913,4.8913,4.8913,4.8913,4.8913,4.8913,4.8913,4.8913,4.8913,4.8913,4.8913,4.8913,4.8913,4.9031,4.9219,4.9433,4.9414,4.9219,4.9433,4.9277,4.8913,4.8913,4.9285,4.9863,5.0098,5.043,5.0762,5.0332,4.9949,4.9519,2.9913,2.9913,2.9913,2.9913,2.9913,2.9913,2.9913,2.9913,2.9913,2.9913,2.9913,2.9913,2.9913,2.9913,2.9913,2.9913,2.9913,2.9913,2.9913,2.9913,2.9913,2.9913,2.9967,3.0127,3.048,3.0715,3.0862,3.0862,3.1156,3.1183,3.0942,3.1183,3.1303,3.1316,3.1557,3.1711,3.1711,3.1711,3.1711,3.1711,3.1711,3.1711,3.1711,3.1711,3.1711,3.1711,3.1711,3.1711,3.1711,3.1711,3.1711,3.1711,3.1711,3.1711,3.1711,3.1711,3.1711,3.1711,3.1711,3.1877,3.2201,3.2722,3.4603,3.6005,3.4428,3.3788,3.4789,3.9284,4.0821,4.28,4.7439,4.8659,4.8913,4.8913,4.8913,4.8913,4.8913,4.8913,4.8913,4.8913,4.8913,4.8913,4.8913,4.8913,4.8913,4.8913,4.8913,4.8913,4.8913,4.8913,4.8913,4.8913,4.8913,4.8913,4.8913,4.8913,4.8913,4.8913,4.8913,4.8952,4.9031,4.9277,4.9258,4.9031,4.9277,4.9199,4.8913,4.8913,4.9343,5.0008,5.0117,5.0351,5.0547,5.0195,4.9597,4.8913,2.9913,2.9913,2.9913,2.9913,2.9913,2.9913,2.9913,2.9913,2.9913,2.9913,2.9913,2.9913,2.9913,2.9913,2.9913,2.9913,2.9913,2.9913,2.9913,2.9913,2.9913,2.9913,3.0167,3.048,3.0728,3.1022,3.1169,3.1169,3.1463,3.1583,3.1604,3.1644,3.161,3.161,3.1698,3.1711,3.1711,3.1711,3.1711,3.1711,3.1711,3.1711,3.1711,3.1711,3.1711,3.1711,3.1711,3.1711,3.1711,3.1711,3.1711,3.1711,3.1711,3.1711,3.1711,3.1711,3.1711,3.1711,3.1711,3.1877,3.2674,3.5187,3.6137,3.702,3.9468,3.9625,3.9472,4.0398,4.2467,4.5028,4.8211,4.8855,4.8913,4.8913,4.8913,4.8913,4.8913,4.8913,4.8913,4.8913,4.8913,4.8913,4.8913,4.8913,4.8913,4.8913,4.8913,4.8913,4.8913,4.8913,4.8913,4.8913,4.8913,4.8913,4.8913,4.8913,4.8913,4.8913,4.8913,4.9062,4.9433,4.9101,4.9121,4.9414,4.9101,4.8952,4.8913,4.8913,4.8972,4.9148,4.993,4.998,4.964,4.9582,4.9297,4.8913,2.9913,2.9913,2.9913,2.9913,2.9913,2.9913,2.9913,2.9913,2.9913,2.9913,2.9913,2.9913,2.9913,2.9913,2.9913,2.9913,2.9913,2.9913,2.9913,2.9913,2.9913,2.9913,3.0207,3.0547,3.0782,3.1076,3.1303,3.1476,3.161,3.1711,3.1711,3.1711,3.1711,3.1711,3.1711,3.1711,3.1711,3.1711,3.1711,3.1711,3.1711,3.1711,3.1711,3.1711,3.1711,3.1711,3.1711,3.1711,3.1711,3.1711,3.1711,3.1751,3.1864,3.1797,3.1778,3.2112,3.2086,3.1944,3.2166,3.242,3.2905,3.4171,3.681,3.9084,3.9045,4.2178,4.4702,4.3391,4.401,4.5647,4.8393,4.8913,4.8913,4.8913,4.8913,4.8913,4.8913,4.8913,4.8913,4.8913,4.8913,4.8913,4.8913,4.8913,4.8913,4.8913,4.8913,4.8913,4.8913,4.8913,4.8913,4.8913,4.8913,4.8913,4.8913,4.8913,4.8913,4.8913,4.8913,4.9011,4.916,4.9199,4.9199,4.916,4.9199,4.9101,4.8913,4.8913,4.905,4.9277,4.9668,4.9707,4.9484,4.9484,4.9238,4.8913]},{"header":{"parameterUnit":"m.s-1","parameterCategory":1,"la1":30.6,"la2":28.766,"lo1":-90.7593,"lo2":-88.6598,"dx":0.0162,"dy":0.0183,"nx":116,"ny":114,"refTime":"2022-11-09T18:00:00:Z","depth":0,"parameterNumber":3,"parameterNumberName":"V-component_of_WINDS"},"data":[0.0,0.0,0.0,0.0,0.0,0.0,0.0,0.0,0.0,0.0,0.0,0.0,0.0,0.0,0.0,0.0,0.0,0.0,0.0,0.0,0.0,0.0,0.0,0.0,0.0,0.0,0.0,0.0,0.0,0.0,0.0,0.0,0.0,0.0,0.0,0.0,0.0,0.0,0.0,0.0,0.0,0.0,0.0,0.0,0.0,0.0,0.0,0.0,0.0,0.0,0.0,0.0,0.0,0.0,0.0,0.0,0.0,0.0,0.0,0.0,0.0,0.0,0.0,0.0,0.0,0.0,0.0,0.0,0.0,0.0,0.0,0.0,0.0,0.0,0.0,0.0,0.0,0.0,0.0,0.0,0.0,0.0,0.0,0.0,0.0,0.0,0.0,0.0,0.0,0.0,0.0,0.0,0.0,0.0,0.0,0.0,0.0,0.0,0.0,0.0,0.0,0.0,0.0,0.0,0.0,0.0,0.0,0.0,0.0,0.0,0.0,0.0,0.0,0.0,0.0,0.0,0.0,0.0,0.0,0.0,0.0,0.0,0.0,0.0,0.0,0.0,0.0,0.0,0.0,0.0,0.0,0.0,0.0,0.0,0.0,0.0,0.0,0.0,0.0,0.0,0.0,0.0,0.0,0.0,0.0,0.0,0.0,0.0,0.0,0.0,0.0,0.0,0.0,0.0,0.0,0.0,0.0,0.0,0.0,0.0,0.0,0.0,0.0,0.0,0.0,0.0,0.0,0.0,0.0,0.0,0.0,0.0,0.0,0.0,0.0,0.0,0.0,0.0,0.0,0.0,0.0,0.0,0.0,0.0,0.0,0.0,0.0,0.0,0.0,0.0,0.0,0.0,0.0,0.0,0.0,0.0,0.0,0.0,0.0,0.0,0.0,0.0,0.0,0.0,0.0,0.0,0.0,0.0,0.0,0.0,0.0,0.0,0.0,0.0,0.0,0.0,0.0,0.0,0.0,0.0,0.0,0.0,0.0,0.0,0.0,0.0,0.0,0.0,0.0,0.0,0.0,0.0,0.0,0.0,0.0,0.0,0.0,0.0,0.0,0.0,0.0,0.0,0.0,0.0,0.0,0.0,0.0,0.0,0.0,0.0,0.0,0.0,0.0,0.0,0.0,0.0,0.0,0.0,0.0,0.0,0.0,0.0,0.0,0.0,0.0,0.0,0.0,0.0,0.0,0.0,0.0,0.0,0.0,0.0,0.0,0.0,0.0,0.0,0.0,0.0,0.0,0.0,0.0,0.0,0.0,0.0,0.0,0.0,0.0,0.0,0.0,0.0,0.0,0.0,0.0,0.0,0.0,0.0,0.0,0.0,0.0,0.0,0.0,0.0,0.0,0.0,0.0,0.0,0.0,0.0,0.0,0.0,0.0,0.0,0.0,0.0,0.0,0.0,0.0,0.0,0.0,0.0,0.0,0.0,0.0,0.0,0.0,0.0,0.0,0.0,0.0,0.0,0.0,0.0,0.0,0.0,0.0,0.0,0.0,0.0,0.0,0.0,0.0,0.0,0.0,0.0,0.0,0.0,0.0,0.0,0.0,0.0,0.0,0.0,0.0,0.0,0.0,0.0,0.0,0.0,0.0,0.0,0.0,0.0,0.0,0.0,0.0,0.0,0.0,0.0,0.0,0.0,0.0,0.0,0.0,0.0,0.0,0.0,0.0,0.0,0.0,0.0,0.0,0.0,0.0,0.0,0.0,0.0,0.0,0.0,0.0,0.0,0.0,0.0,0.0,0.0,0.0,0.0,0.0,0.0,0.0,0.0,0.0,0.0,0.0,0.0,0.0,0.0,0.0,0.0,0.0,0.0,0.0,0.0,0.0,0.0,0.0,0.0,0.0,0.0,0.0,0.0,0.0,0.0,0.0,0.0,0.0,0.0,0.0,0.0,0.0,0.0,0.0,0.0,0.0,0.0,0.0,0.0,0.0,0.0,0.0,0.0,0.0,0.0,0.0,0.0,0.0,0.0,0.0,0.0,0.0,0.0,0.0,0.0,0.0,0.0,0.0,0.0,0.0,0.0,0.0,0.0,0.0,0.0,0.0,0.0,0.0,0.0,0.0,0.0,0.0,0.0,0.0,0.0,0.0,0.0,0.0,0.0,0.0,0.0,0.0,0.0,0.0,0.0,0.0,0.0,0.0,0.0,0.0,0.0,0.0,0.0,0.0,0.0,0.0,0.0,0.0,0.0,0.0,0.0,0.0,0.0,0.0,0.0,0.0,0.0,0.0,0.0,0.0,0.0,0.0,0.0,0.0,0.0,0.0,0.0,0.0,0.0,0.0,0.0,0.0,0.0,0.0,0.0,0.0,0.0,0.0,0.0,0.0,0.0,0.0,0.0,0.0,0.0,0.0,0.0,0.0,0.0,0.0,0.0,0.0,0.0,0.0,0.0,0.0,0.0,0.0,0.0,0.0,0.0,0.0,0.0,0.0,0.0,0.0,0.0,0.0,0.0,0.0,0.0,0.0,0.0,0.0,0.0,0.0,0.0,0.0,0.0,0.0,0.0,0.0,0.0,0.0,0.0,0.0,0.0,0.0,0.0,0.0,0.0,0.0,0.0,0.0,0.0,0.0,0.0,0.0,0.0,0.0,0.0,0.0,0.0,0.0,0.0,0.0,0.0,0.0,0.0,0.0,0.0,0.0,0.0,0.0,0.0,0.0,0.0,0.0,0.0,0.0,0.0,0.0,0.0,0.0,0.0,0.0,0.0,0.0,0.0,0.0,0.0,0.0,0.0,0.0,0.0,0.0,0.0,0.0,0.0,0.0,0.0,0.0,0.0,0.0,0.0,0.0,0.0,0.0,0.0,0.0,0.0,0.0,0.0,0.0,0.0,0.0,0.0,0.0,0.0,0.0,0.0,0.0,0.0,0.0,0.0,0.0,0.0,0.0,0.0,0.0,0.0,0.0,0.0,0.0,0.0,0.0,0.0,0.0,0.0,0.0,0.0,0.0,0.0,0.0,0.0,0.0,0.0,0.0,0.0,0.0,0.0,0.0,0.0,0.0,0.0,0.0,0.0,0.0,0.0,0.0,0.0,0.0,0.0,0.0,0.0,0.0,0.0,0.0,0.0,0.0,0.0,0.0,0.0,0.0,0.0,0.0,0.0,0.0,0.0,0.0,0.0,0.0,0.0,0.0,0.0,0.0,0.0,0.0,0.0,0.0,0.0,0.0,0.0,0.0,0.0,0.0,0.0,0.0,0.0,0.0,0.0,0.0,0.0,0.0,0.0,0.0,0.0,0.0,0.0,0.0,0.0,0.0,0.0,0.0,0.0,0.0,0.0,0.0,0.0,0.0,0.0,0.0,0.0,0.0,0.0,0.0,0.0,0.0,0.0,0.0,0.0,0.0,0.0,0.0,0.0,0.0,0.0,0.0,0.0,0.0,0.0,0.0,0.0,0.0,0.0,0.0,0.0,0.0,0.0,0.0,0.0,0.0,0.0,0.0,0.0,0.0,0.0,0.0,0.0,0.0,0.0,0.0,0.0,0.0,0.0,0.0,0.0,0.0,0.0,0.0,0.0,0.0,0.0,0.0,0.0,0.0,0.0,0.0,0.0,0.0,0.0,0.0,0.0,0.0,0.0,0.0,0.0,0.0,0.0,0.0,0.0,0.0,0.0,0.0,0.0,0.0,0.0,0.0,0.0,0.0,0.0,0.0,0.0,0.0,0.0,0.0,0.0,0.0,0.0,0.0,0.0,0.0,0.0,0.0,0.0,0.0,0.0,0.0,0.0,0.0,0.0,0.0,0.0,0.0,0.0,0.0,0.0,0.0,0.0,0.0,0.0,0.0,0.0,0.0,0.0,0.0,0.0,0.0,0.0,0.0,0.0,0.0,0.0,0.0,0.0,0.0,0.0,0.0,0.0,0.0,0.0,0.0,0.0,0.0,0.0,0.0,0.0,0.0,0.0,0.0,0.0,0.0,0.0,0.0,0.0,0.0,0.0,0.0,0.0,0.0,0.0,0.0,0.0,0.0,0.0,0.0,0.0,0.0,0.0,0.0,0.0,0.0,0.0,0.0,0.0,0.0,0.0,0.0,0.0,0.0,0.0,0.0,0.0,0.0,0.0,0.0,0.0,0.0,0.0,0.0,0.0,0.0,0.0,0.0,0.0,0.0,0.0,0.0,0.0,0.0,0.0,0.0,0.0,0.0,0.0,0.0,0.0,0.0,0.0,0.0,0.0,0.0,0.0,0.0,0.0,0.0,0.0,0.0,0.0,0.0,0.0,0.0,0.0,0.0,0.0,0.0,0.0,0.0,0.0,0.0,0.0,0.0,0.0,0.0,0.0,0.0,0.0,0.0,0.0,0.0,0.0,0.0,0.0,0.0,0.0,0.0,0.0,0.0,0.0,0.0,0.0,0.0,0.0,0.0,0.0,0.0,0.0,0.0,0.0,0.0,0.0,0.0,0.0,0.0,0.0,0.0,0.0,0.0,0.0,0.0,0.0,0.0,0.0,0.0,0.0,0.0,0.0,0.0,0.0,0.0,0.0,0.0,0.0,0.0,0.0,0.0,0.0,0.0,0.0,0.0,0.0,0.0,0.0,0.0,0.0,0.0,0.0,0.0,0.0,0.0,0.0,0.0,0.0,0.0,0.0,0.0,0.0,0.0,0.0,0.0,0.0,0.0,0.0,0.0,0.0,0.0,0.0,0.0,0.0,0.0,0.0,0.0,0.0,0.0,0.0,0.0,0.0,0.0,0.0,0.0,0.0,0.0,0.0,0.0,0.0,0.0,0.0,0.0,0.0,0.0,0.0,0.0,0.0,0.0,0.0,0.0,0.0,0.0,0.0,0.0,0.0,0.0,0.0,0.0,0.0,0.0,0.0,0.0,0.0,0.0,0.0,0.0,0.0,0.0,0.0,0.0,0.0,0.0,0.0,0.0,0.0,0.0,0.0,0.0,0.0,0.0,0.0,0.0,0.0,0.0,0.0,0.0,0.0,0.0,0.0,0.0,0.0,0.0,0.0,0.0,0.0,0.0,0.0,0.0,0.0,0.0,0.0,0.0,0.0,0.0,0.0,0.0,0.0,0.0,0.0,0.0,0.0,0.0,0.0,0.0,0.0,0.0,0.0,0.0,0.0,0.0,0.0,0.0,0.0,0.0,0.0,0.0,0.0,0.0,0.0,0.0,0.0,0.0,0.0,0.0,0.0,0.0,0.0,0.0,0.0,0.0,0.0,0.0,0.0,0.0,0.0,0.0,0.0,0.0,0.0,0.0,0.0,0.0,0.0,0.0,0.0,0.0,0.0,0.0,0.0,0.0,0.0,0.0,0.0,0.0,0.0,0.0,0.0,0.0,0.0,0.0,0.0,0.0,0.0,0.0,0.0,0.0,0.0,0.0,0.0,0.0,0.0,0.0,0.0,0.0,0.0,0.0,0.0,0.0,0.0,0.0,0.0,0.0,0.0,0.0,0.0,0.0,0.0,0.0,0.0,0.0,0.0,0.0,0.0,0.0,0.0,0.0,0.0,0.0,0.0,0.0,0.0,0.0,0.0,0.0,0.0,0.0,0.0,0.0,0.0,0.0,0.0,0.0,0.0,0.0,0.0,0.0,0.0,0.0,0.0,0.0,0.0,0.0,0.0,0.0,0.0,0.0,0.0,0.0,0.0,0.0,0.0,0.0,0.0,0.0,0.0,0.0,0.0,0.0,0.0,0.0,0.0,0.0,0.0,0.0,0.0,0.0,0.0,0.0,0.0,0.0,0.0,0.0,0.0,0.0,0.0,0.0,0.0,0.0,0.0,0.0,0.0,0.0,0.0,0.0,0.0,0.0,0.0,0.0,0.0,0.0,0.0,0.0,0.0,0.0,0.0,0.0,0.0,0.0,0.0,0.0,0.0,0.0,0.0,0.0,0.0,0.0,0.0,0.0,0.0,0.0,0.0,0.0,0.0,0.0,0.0,0.0,0.0,0.0,0.0,0.0,0.0,0.0,0.0,0.0,0.0,0.0,0.0,0.0,0.0,0.0,0.0,0.0,0.0,0.0,0.0,0.0,0.0,0.0,0.0,0.0,0.0,0.0,0.0,0.0,0.0,0.0,0.0,0.0,0.0,0.0,0.0,0.0,0.0,0.0,0.0,4.8565,4.7876,0.0,0.0,0.0,0.0,0.0,0.0,0.0,0.0,0.0,0.0,0.0,0.0,0.0,0.0,0.0,0.0,0.0,0.0,0.0,0.0,0.0,0.0,0.0,3.4737,3.5565,3.6836,3.6298,3.6142,3.6672,0.0,0.0,0.0,0.0,0.0,3.5628,3.5593,3.6046,3.695,3.7418,3.8218,3.9312,3.8066,3.7004,3.616,0.0,0.0,0.0,0.0,0.0,0.0,0.0,0.0,0.0,0.0,0.0,0.0,0.0,0.0,0.0,0.0,0.0,0.0,0.0,0.0,0.0,0.0,0.0,0.0,0.0,0.0,0.0,0.0,0.0,0.0,0.0,0.0,0.0,0.0,0.0,0.0,0.0,0.0,0.0,0.0,0.0,0.0,0.0,0.0,0.0,0.0,0.0,0.0,0.0,0.0,0.0,0.0,0.0,0.0,0.0,0.0,0.0,0.0,0.0,0.0,0.0,0.0,0.0,0.0,0.0,0.0,0.0,0.0,0.0,0.0,5.142,5.0574,0.0,0.0,0.0,0.0,0.0,0.0,0.0,0.0,0.0,0.0,0.0,0.0,0.0,0.0,0.0,0.0,0.0,0.0,0.0,0.0,0.0,3.4299,3.5162,3.652,3.7593,3.8135,3.7966,3.8002,3.8325,3.8379,0.0,0.0,3.8675,3.8695,3.8762,3.8763,3.9192,4.0049,4.0478,4.1067,4.1806,4.1808,4.1427,4.0603,3.932,0.0,0.0,0.0,0.0,0.0,0.0,0.0,0.0,0.0,0.0,0.0,0.0,0.0,0.0,0.0,0.0,0.0,0.0,0.0,0.0,0.0,0.0,0.0,0.0,0.0,0.0,0.0,0.0,0.0,0.0,0.0,0.0,0.0,0.0,0.0,0.0,0.0,0.0,0.0,0.0,0.0,0.0,0.0,0.0,0.0,0.0,0.0,0.0,0.0,0.0,0.0,0.0,0.0,0.0,0.0,0.0,0.0,0.0,0.0,0.0,0.0,0.0,0.0,5.3382,5.3687,5.3687,5.3687,5.4093,5.4702,5.345,5.2807,5.2604,5.1402,0.0,0.0,0.0,0.0,0.0,0.0,0.0,0.0,0.0,0.0,0.0,0.0,0.0,0.0,0.0,0.0,0.0,0.0,0.0,3.5456,3.6885,3.7428,3.8823,4.1816,4.104,4.0716,4.1367,4.1461,4.1235,4.0565,4.0526,4.0563,4.0623,4.0624,4.1046,4.185,4.3914,4.5328,4.6169,4.6797,4.6891,4.6306,4.1854,3.9628,3.9074,0.0,0.0,0.0,0.0,0.0,0.0,0.0,0.0,0.0,0.0,0.0,0.0,0.0,0.0,0.0,0.0,0.0,0.0,0.0,0.0,0.0,0.0,0.0,0.0,0.0,0.0,0.0,0.0,0.0,0.0,0.0,0.0,0.0,0.0,0.0,0.0,0.0,0.0,0.0,0.0,0.0,5.2463,5.3386,0.0,0.0,0.0,0.0,0.0,0.0,0.0,0.0,0.0,0.0,0.0,0.0,0.0,5.3594,5.3179,5.3923,5.4313,5.4313,5.4397,5.4431,5.4431,5.4431,5.4871,5.553,5.5327,0.0,5.4262,5.411,0.0,0.0,0.0,0.0,0.0,0.0,0.0,0.0,0.0,0.0,0.0,0.0,0.0,0.0,0.0,0.0,0.0,0.0,0.0,0.0,0.0,4.0258,4.167,4.3573,4.3678,4.3588,4.3406,4.3424,4.3102,4.2354,4.237,4.2459,4.2533,4.3002,4.3851,4.5103,4.648,4.7369,4.7759,4.7992,4.803,4.7772,4.5563,4.3774,4.2378,4.1641,0.0,0.0,0.0,0.0,0.0,0.0,0.0,0.0,0.0,0.0,0.0,0.0,0.0,0.0,0.0,0.0,0.0,0.0,0.0,0.0,0.0,0.0,0.0,0.0,0.0,0.0,0.0,0.0,0.0,0.0,0.0,0.0,0.0,0.0,0.0,0.0,0.0,0.0,0.0,5.2802,5.3408,5.3803,5.3672,5.3444,0.0,0.0,0.0,0.0,0.0,0.0,0.0,0.0,0.0,5.583,5.501,5.4845,5.5398,5.5706,5.6061,5.6506,5.6454,5.6445,5.6445,5.6445,5.663,5.6934,5.6934,5.6731,5.6377,5.5108,5.3954,5.2921,0.0,0.0,0.0,0.0,4.9678,4.8559,0.0,0.0,0.0,0.0,0.0,0.0,0.0,0.0,0.0,0.0,0.0,0.0,4.1525,4.3146,4.4492,4.5481,4.595,4.5903,4.5251,4.5195,4.4862,4.4127,4.4193,4.4396,4.4687,4.5891,4.7226,4.8588,4.9246,4.9552,4.9548,4.943,4.9389,4.9389,4.9159,4.77,4.5337,4.4974,4.3319,4.0742,0.0,0.0,0.0,0.0,0.0,0.0,0.0,0.0,0.0,0.0,0.0,0.0,0.0,0.0,0.0,0.0,0.0,0.0,0.0,0.0,0.0,0.0,0.0,0.0,0.0,0.0,0.0,0.0,0.0,0.0,0.0,0.0,0.0,0.0,0.0,0.0,0.0,5.445,5.461,5.4581,5.4568,5.4468,0.0,0.0,0.0,0.0,0.0,0.0,5.8253,5.7073,5.6802,5.7765,5.6689,5.6638,5.7771,5.7771,5.792,5.8263,5.8031,5.7829,5.7629,5.7847,5.7811,5.7629,5.8051,5.8219,5.8051,5.619,5.531,5.5108,5.4566,5.4363,5.4311,5.3919,5.2926,5.1817,0.0,0.0,0.0,0.0,0.0,0.0,0.0,0.0,0.0,0.0,0.0,4.2483,4.4304,4.5365,4.6635,4.8327,4.7761,4.7257,4.7095,4.7079,4.6734,4.6004,4.5971,4.6425,4.7383,4.9562,5.1097,5.1853,5.2602,5.2948,5.2948,5.2933,5.2928,5.289,5.2082,5.0132,4.7453,4.7432,4.6423,4.4647,4.2551,0.0,0.0,0.0,0.0,0.0,0.0,0.0,0.0,0.0,0.0,0.0,0.0,0.0,0.0,0.0,0.0,0.0,0.0,0.0,0.0,0.0,0.0,0.0,0.0,0.0,0.0,0.0,0.0,0.0,0.0,0.0,0.0,0.0,0.0,0.0,0.0,0.0,0.0,5.6744,5.6692,0.0,0.0,0.0,0.0,5.7813,5.7226,5.7471,5.9049,5.8329,5.8616,6.016,6.0142,6.0139,6.022,6.0244,5.9823,5.9025,5.8333,5.7586,5.6902,5.7637,5.7569,5.6954,5.8393,5.901,5.8878,5.8051,5.7306,5.6697,5.6664,5.663,5.6572,5.6098,5.5677,5.5272,0.0,0.0,0.0,3.9599,3.8619,3.7948,3.8222,3.8954,3.9675,4.0247,4.2316,4.4427,4.6175,4.7704,4.9247,5.0892,5.1256,5.0868,4.9678,4.9075,4.8405,4.7685,4.7199,4.7854,4.9857,5.1076,5.2153,5.307,5.3244,5.3375,5.3465,5.3465,5.3465,5.3426,5.3116,5.2429,5.1357,4.9543,4.7979,4.6554,4.4939,4.398,0.0,0.0,0.0,0.0,0.0,0.0,0.0,0.0,0.0,0.0,0.0,0.0,0.0,0.0,0.0,0.0,0.0,0.0,0.0,0.0,0.0,0.0,0.0,0.0,0.0,0.0,0.0,0.0,0.0,0.0,0.0,0.0,0.0,0.0,0.0,0.0,0.0,5.7969,5.7979,0.0,5.759,5.8022,5.8682,5.9501,5.9758,6.0382,6.1471,6.075,6.0567,6.1171,6.1159,6.1407,6.1942,6.1939,6.1773,6.1401,6.0629,5.9786,5.8949,5.9212,5.9175,5.8949,5.9484,5.9719,5.9708,5.9438,5.9167,5.893,5.893,5.8432,5.7745,5.7582,5.6518,5.5238,0.0,0.0,0.0,4.0142,3.9436,3.8923,3.9172,4.018,4.1338,4.2476,4.4611,4.6789,4.8768,5.0377,5.1679,5.2665,5.3238,5.2647,5.059,5.0459,4.9844,4.8569,4.8899,5.0001,5.1907,5.2672,5.3479,5.4397,5.4356,5.4391,5.449,5.449,5.449,5.4451,5.4181,5.4025,5.3898,5.1739,5.0349,4.9527,4.8166,4.7418,4.6877,0.0,0.0,0.0,0.0,0.0,0.0,0.0,0.0,0.0,0.0,0.0,0.0,0.0,0.0,0.0,0.0,0.0,0.0,0.0,0.0,0.0,0.0,0.0,0.0,0.0,0.0,0.0,0.0,0.0,0.0,0.0,0.0,0.0,0.0,5.8441,5.8681,5.8608,5.8969,5.9091,5.8839,5.9526,6.0334,6.1141,6.1704,6.2365,6.3196,6.2732,6.2548,6.2842,6.2842,6.2949,6.3165,6.3164,6.2865,6.2244,6.1726,6.0971,6.0133,6.0418,6.0381,6.0133,6.0656,6.0755,6.052,6.0757,6.0892,6.0825,6.0283,5.9527,5.8659,5.8267,5.7289,5.6319,0.0,0.0,4.125,4.125,4.0547,4.0232,4.0947,4.1095,4.2325,4.5607,4.763,4.9675,5.2108,5.3254,5.377,5.3688,5.3539,5.2434,4.9924,5.1252,5.1105,4.8734,5.1154,5.2847,5.3444,5.4417,5.5249,5.5966,5.6161,5.6241,5.6285,5.6285,5.6285,5.6246,5.5395,5.5047,5.4969,5.4118,5.377,5.3631,5.2217,5.1387,5.0769,0.0,0.0,0.0,0.0,0.0,0.0,0.0,0.0,0.0,0.0,0.0,0.0,0.0,0.0,0.0,0.0,0.0,0.0,0.0,0.0,0.0,0.0,0.0,0.0,0.0,0.0,0.0,0.0,0.0,0.0,0.0,0.0,0.0,5.9503,5.9734,5.9679,5.8882,5.9788,6.0529,6.0529,6.1227,6.2034,6.2829,6.2866,6.3246,6.4103,6.4114,6.4468,6.5251,6.5286,6.4817,6.3942,6.3949,6.31,6.1484,6.1484,6.1038,6.022,6.104,6.095,6.0272,6.1796,6.2064,6.14,6.211,6.24,6.2245,6.0757,5.9915,5.9407,5.8226,5.8227,5.8857,4.207,4.207,4.207,4.207,4.1875,4.1797,4.199,4.363,4.5386,4.6942,4.9139,5.1268,5.317,5.4117,5.478,5.5236,5.5211,5.4684,5.3379,5.315,5.2499,5.1293,5.3079,5.4185,5.4347,5.5188,5.6086,5.6993,5.7206,5.7678,5.8383,5.8383,5.8383,5.8344,5.811,5.8032,5.7993,5.776,5.7643,5.7402,5.4271,5.2968,5.2708,0.0,0.0,0.0,0.0,0.0,0.0,0.0,0.0,0.0,0.0,0.0,0.0,0.0,0.0,0.0,0.0,0.0,0.0,0.0,0.0,0.0,0.0,0.0,0.0,0.0,0.0,0.0,0.0,0.0,0.0,0.0,6.1795,6.2422,6.1591,6.1778,6.2142,6.2523,6.2867,6.3062,6.3062,6.3796,6.4371,6.4591,6.4591,6.4701,6.4971,6.4321,6.4376,6.5275,6.4592,6.4378,6.475,6.4715,6.4131,6.306,6.306,6.2602,6.1791,6.2028,6.1989,6.1791,6.2231,6.2295,6.211,6.2333,6.24,6.2367,6.1907,6.1153,6.0247,5.993,5.9922,6.0118,4.2275,4.2586,4.2818,4.2818,4.2873,4.3038,4.3351,4.5302,4.7332,4.8895,5.0916,5.2833,5.4504,5.5049,5.5465,5.5796,5.5816,5.532,5.4227,5.3733,5.3589,5.3799,5.5044,5.59,5.6184,5.7061,5.7951,5.8919,5.917,5.9608,6.0145,6.0233,6.0234,6.0234,6.0234,6.0234,6.0234,6.0234,6.0234,6.0078,5.7859,5.6324,5.5258,5.458,5.3896,5.3143,5.2066,5.1767,5.176,5.1258,0.0,0.0,0.0,0.0,0.0,0.0,0.0,0.0,0.0,0.0,0.0,0.0,0.0,0.0,0.0,0.0,0.0,0.0,0.0,0.0,0.0,0.0,0.0,0.0,6.3456,6.4433,6.4114,6.396,6.3906,6.4103,6.4383,6.4604,6.4604,6.5031,6.5288,6.5288,6.5632,6.5647,6.5227,6.5033,6.5222,6.5733,6.4818,6.4538,6.5059,6.4671,6.4025,6.3162,6.3162,6.3064,6.2854,6.2854,6.3024,6.3328,6.3328,6.3328,6.3328,6.3328,6.3328,6.326,0.0,0.0,0.0,0.0,6.1529,6.1593,4.2402,4.3024,4.3566,4.3566,4.3723,4.4122,4.4942,4.6649,4.8671,5.1136,5.2803,5.4268,5.5742,5.5895,5.5839,5.573,5.5696,5.5176,5.3944,5.405,5.4789,5.6272,5.7052,5.7829,5.8555,5.9428,6.0274,6.1159,6.1463,6.169,6.1808,6.1946,6.1992,6.1992,6.1992,6.1992,6.1992,6.1992,6.1992,6.1992,6.1992,6.0462,5.8115,5.7947,5.6887,5.5483,5.5468,5.4837,5.3997,5.4088,0.0,0.0,0.0,0.0,0.0,0.0,0.0,0.0,0.0,0.0,0.0,0.0,0.0,0.0,0.0,0.0,0.0,0.0,0.0,0.0,0.0,0.0,0.0,0.0,6.4691,6.6259,6.6481,6.5962,6.5264,6.447,6.5007,6.5435,6.5435,6.5508,6.5582,6.5582,6.6219,6.624,6.5314,6.5881,0.0,0.0,0.0,6.4925,6.508,6.4233,6.3402,6.2651,6.2651,6.299,6.3612,6.3612,6.4005,6.4613,6.4613,6.4613,6.4613,6.4613,6.4647,6.458,6.3193,6.2393,6.2106,6.2767,6.2999,6.3183,4.4275,4.4314,4.4468,4.4468,4.503,4.5739,4.6586,4.8768,5.0989,5.2901,5.3938,5.4863,5.5803,5.5793,5.5728,5.5714,5.5784,5.6068,5.6604,5.7208,5.797,5.8932,5.9011,5.9452,6.0287,6.0616,6.1164,6.2063,6.2364,6.2903,6.3608,6.3743,6.3789,6.3789,6.3789,6.3789,6.3789,6.3789,6.3789,6.3789,6.3789,6.2656,6.0895,6.0776,6.0084,5.9176,5.9056,5.8454,5.7783,5.8359,5.7847,5.7082,5.7625,5.7357,0.0,0.0,0.0,0.0,0.0,0.0,0.0,0.0,0.0,0.0,0.0,0.0,0.0,0.0,0.0,0.0,0.0,0.0,0.0,6.5168,6.6445,6.7172,6.6562,6.6916,6.693,6.6109,6.6182,6.6256,6.6256,6.6843,6.726,6.726,6.737,6.708,6.6196,6.5593,6.5529,6.6155,6.4602,6.4404,6.5724,6.4883,6.4341,6.4174,6.4174,0.0,6.4377,6.4377,6.4478,6.4613,6.4613,6.4613,6.4613,6.4613,6.4952,6.5412,6.4512,6.412,6.407,6.4205,6.4239,6.4314,4.6384,4.6415,4.6415,4.6415,4.6797,4.7544,4.8863,5.0452,5.2159,5.3909,5.4752,5.535,5.5745,5.5363,5.5247,5.567,5.6636,5.7393,5.7917,5.9063,5.9914,6.0223,6.0591,6.1396,6.2666,6.3185,6.4062,6.5341,6.5599,6.5933,6.6368,6.6516,6.6604,6.6604,6.6604,6.6604,6.6608,6.6728,6.6739,6.6742,6.6835,6.6367,6.5351,6.3118,6.1433,6.0297,6.0234,5.9612,5.8936,5.9727,5.9655,5.9361,6.0021,5.9978,5.9639,0.0,0.0,0.0,0.0,0.0,0.0,0.0,0.0,0.0,0.0,0.0,0.0,0.0,0.0,6.2677,6.2917,0.0,6.5718,6.6186,6.7089,6.7554,6.715,6.7444,6.7407,6.6586,6.6843,6.7113,6.7113,6.748,6.77,6.77,6.7623,6.7206,6.6304,6.5718,6.5636,6.6003,6.4727,6.4653,6.5877,6.5048,6.4613,6.4613,6.4613,6.4783,6.5155,6.5527,6.5899,6.6271,6.6677,6.6846,6.6846,6.6846,6.7083,6.7354,6.7015,6.6609,6.6305,6.6711,6.6846,6.6846,4.8432,4.8625,4.8509,4.8159,4.8347,4.9038,5.0635,5.1702,5.2893,5.4444,5.5253,5.5708,5.5708,5.5126,5.4998,5.5666,5.7545,5.8729,5.8734,6.0576,6.1734,6.1793,6.2595,6.3788,6.532,6.6013,6.7051,6.8391,6.8547,6.8607,6.8612,6.8804,6.8893,6.8893,6.8893,6.8893,6.8903,6.9075,6.9157,6.9165,6.9271,6.9325,6.9012,6.5496,6.3196,6.1872,6.1872,6.1232,6.0491,6.1196,6.1335,6.1325,6.1834,6.1956,6.1911,6.1824,6.1166,0.0,0.0,0.0,0.0,0.0,0.0,0.0,0.0,6.2323,6.3006,6.3,6.411,6.4951,6.4632,6.5755,6.6769,6.6953,6.7504,6.7994,6.8141,6.8178,6.7921,6.7283,6.7614,6.7994,6.8141,6.8178,6.8178,6.8178,6.8066,6.7507,6.638,6.623,6.6078,6.5872,6.5309,6.5439,6.6282,6.5731,6.5459,6.5459,6.5459,6.5797,6.6393,6.6981,6.759,6.8166,6.8808,6.9113,6.9113,6.9113,6.918,6.9316,6.9316,6.9079,6.8808,6.9011,6.9113,6.9113,5.0245,5.0399,4.9938,4.8355,4.8759,4.959,5.0558,5.205,5.3435,5.4398,5.5224,5.5708,5.5708,5.5631,5.5648,5.5866,5.8022,5.9428,5.9572,6.2463,6.4543,6.5288,6.6096,6.6974,6.7968,6.8084,6.8199,6.8391,6.8547,6.8607,6.8612,6.8804,6.8893,6.8893,6.8893,6.8893,6.8893,6.8916,6.8923,6.8926,6.8945,6.8954,6.8912,6.8442,6.7748,6.7053,6.7053,6.6501,6.5753,6.584,6.5775,6.5661,6.5549,6.5461,6.5331,6.5333,6.4705,6.3897,6.3314,6.3589,6.4191,6.4833,6.5863,6.6505,0.0,6.5497,6.5589,6.5597,6.5989,6.6261,6.6232,6.6966,6.7811,6.8531,6.8715,6.9009,6.9743,6.9816,6.9779,6.9706,6.9155,6.9045,6.9743,6.9816,6.9816,6.9816,6.982,6.9052,6.7279,6.7162,6.6696,6.5739,6.6266,6.6922,6.7658,6.8298,6.8605,6.8605,6.8605,6.8639,6.8707,6.8808,6.8876,6.8977,6.9079,6.9113,6.9113,6.9113,6.9485,7.0082,7.0082,7.0804,7.1684,6.9789,6.9113,6.9113,5.1211,5.1015,5.0476,4.9745,4.9899,5.0438,5.1279,5.2428,5.351,5.4395,5.5208,5.5708,5.5708,5.5708,5.5586,5.5214,5.8287,6.0514,6.1184,6.4243,6.6436,6.7321,6.7667,6.8244,6.9129,6.9161,6.9398,6.986,6.9919,6.9942,6.9942,7.0026,7.0043,7.0043,7.0043,7.0043,7.0054,7.0176,7.0235,7.0248,7.0377,7.042,7.041,7.0287,7.0062,6.9572,6.7648,6.6429,0.0,6.632,6.6438,6.6464,6.7307,6.6848,6.6174,6.7109,6.6051,6.4859,6.5968,6.7023,6.7773,6.777,6.7871,6.7841,6.716,6.6986,6.6973,6.6999,6.7481,6.7907,6.7907,6.8531,6.9192,6.9522,6.9596,6.9706,7.0036,7.011,7.0257,7.072,7.0499,7.0243,7.011,7.011,7.0293,7.0756,7.0719,7.0522,7.021,6.9599,6.9014,6.8581,6.8289,6.8301,6.8605,6.8944,6.9113,6.9113,6.9113,6.9113,6.9113,6.9553,7.0195,7.1007,7.1007,7.1244,7.165,7.165,7.1842,7.2146,7.2146,7.2518,7.2868,7.1515,7.1278,7.1582,5.1032,5.0933,5.0707,5.0707,5.0707,5.0899,5.1467,5.2274,5.3082,5.3703,5.4511,5.5088,5.5324,5.5362,5.5247,5.5015,5.8322,6.0867,6.1823,6.5166,6.7475,6.8353,6.8853,6.9391,7.0014,7.0014,7.0321,7.0898,7.0898,7.0898,7.0898,7.0898,7.0898,7.0898,7.0898,7.0898,7.0919,7.1044,7.1137,7.112,7.1048,7.0999,7.0943,7.056,7.0292,6.9788,6.7699,6.6605,6.6107,6.6325,6.6312,6.6435,6.7551,6.7217,6.6653,6.8001,6.7165,6.6277,6.8572,6.9524,6.9891,7.0056,6.9783,6.9311,6.8803,6.8678,6.8641,6.8398,6.8825,6.9229,6.9229,6.9706,7.0183,7.0403,7.044,7.0513,7.0734,7.077,7.1064,7.1872,7.1967,7.1835,7.1468,7.1211,7.1431,7.2224,7.2182,7.2307,7.2608,7.1853,7.1144,7.0625,7.0064,6.9675,6.9417,6.9823,7.0026,7.0026,7.0229,7.0297,7.0331,7.0894,7.1684,7.2699,7.2699,7.3003,7.35,7.35,7.3398,7.3195,7.3195,7.3331,7.3432,7.2665,7.2732,7.3105,4.9384,5.013,5.0707,5.0707,5.0707,5.0707,5.0745,5.1433,5.1962,5.1962,5.2736,5.3587,5.4434,5.4549,5.4824,5.5604,5.8055,5.9902,6.0798,6.4749,6.7475,6.8353,6.9975,7.0821,7.086,7.086,7.0898,7.0898,7.0898,7.0898,7.0898,7.0898,7.0898,7.0898,7.0898,7.0898,7.0898,7.0912,7.0912,7.0842,7.0079,6.9739,6.9655,6.8796,6.7949,6.7352,6.8285,6.8617,6.8383,6.6902,6.6259,6.6103,6.6176,6.6598,6.7225,6.8129,6.8516,6.9035,7.0764,7.028,6.9754,7.1563,7.205,7.1924,7.1328,7.1197,7.0977,7.0183,7.0036,7.0073,7.0073,7.0073,7.0367,7.1123,7.127,7.1527,7.2312,7.2422,7.2716,7.3538,7.3634,7.3927,7.4683,7.4037,7.3927,7.472,7.4778,7.4393,7.3504,7.3441,7.2566,7.0665,7.1273,7.1165,7.0184,7.1582,7.2293,7.2326,7.3003,7.3364,7.3364,7.3398,7.3432,7.3466,7.3466,7.35,7.35,7.35,7.3071,7.2428,7.2428,7.2868,7.3432,7.2665,7.2428,7.2428,5.1802,5.1924,5.2037,5.2321,5.2356,5.2356,5.2356,5.2082,5.212,5.2697,5.3972,0.0,0.0,0.0,0.0,0.0,5.755,5.9319,6.0704,6.4249,6.6936,6.8353,7.0014,7.0898,7.0898,7.0539,7.0362,7.0362,7.0362,7.0362,7.0362,7.0748,7.0898,7.0898,7.0898,7.0591,7.009,7.009,6.9783,6.9199,6.893,6.8853,6.8814,6.8507,6.7859,6.6994,0.0,6.5996,6.5897,6.5384,6.5158,6.5301,6.642,6.6536,6.6506,6.7553,6.9242,7.0979,7.2104,7.2186,7.222,7.3441,7.2659,7.1554,7.1363,7.0866,7.044,7.0146,7.0513,7.0903,7.0903,7.1321,7.1945,7.2753,7.2899,7.3156,7.3986,7.4096,7.4169,7.4478,7.4515,7.4808,7.5616,7.4992,7.4845,7.5652,7.5689,7.5788,7.6,7.524,7.4444,7.3811,7.3222,7.2733,7.2383,7.2891,7.3105,7.3105,7.3375,7.35,7.35,7.35,7.3747,7.4221,7.4221,7.4221,7.4221,7.4221,7.4086,7.3883,7.3883,7.4322,7.4931,7.4661,7.4289,7.3713,5.219,5.2342,5.2447,5.2678,5.2752,0.0,0.0,0.0,0.0,0.0,0.0,0.0,0.0,0.0,0.0,0.0,0.0,5.8309,5.9996,6.2581,6.4783,6.646,6.7883,6.8618,6.8618,6.8269,6.8221,6.8517,6.8812,6.9107,6.9373,6.975,6.9918,6.9879,6.9581,6.9276,6.8935,6.8935,6.8744,6.8353,6.7737,6.7513,6.7436,6.6814,6.6051,0.0,6.4095,6.3512,6.3243,6.3243,6.3316,6.3627,6.4708,6.5377,6.6162,6.806,6.995,7.167,7.2796,7.2857,7.2791,7.3633,7.2554,7.138,7.1674,7.1321,7.0954,7.0954,7.1358,7.1711,7.1711,7.2386,7.301,7.323,7.3487,7.3891,7.4404,7.4478,7.4698,7.527,7.5322,7.5763,7.69,7.6533,7.646,7.6937,7.6974,7.7165,7.76,7.684,7.6057,7.5279,7.4477,7.3844,7.35,7.3747,7.4018,7.4312,7.4312,7.4312,7.4312,7.4559,7.4965,7.5439,7.5439,7.5439,7.5405,7.51,7.4864,7.4603,7.4603,7.4897,7.527,7.4999,7.4796,7.4434,5.0748,5.1465,5.2,0.0,0.0,0.0,0.0,0.0,0.0,0.0,0.0,0.0,0.0,0.0,0.0,0.0,0.0,0.0,5.8542,5.9902,6.1364,6.2942,6.3952,6.4415,6.4301,6.4274,6.4624,6.5389,6.6172,6.6955,6.7728,6.7795,6.7805,6.7805,6.7069,6.6962,6.7403,6.7403,6.7676,6.8007,6.6397,6.5788,6.5628,6.4006,6.2897,6.221,6.221,6.166,6.0873,6.0873,6.1202,6.1584,6.1622,6.3562,6.6404,6.9539,7.0713,7.1318,7.2855,7.2358,7.16,7.2386,7.1967,7.1564,7.2349,7.2496,7.2496,7.2496,7.2496,7.2496,7.2496,7.3156,7.345,7.2753,7.3303,7.3832,7.3891,7.3942,7.4529,7.6056,7.6276,7.69,7.8516,7.8631,7.86,7.8636,7.86,7.8488,7.8222,7.8135,7.716,7.5119,7.5025,7.4572,7.3635,7.4322,7.4999,7.5642,7.5676,7.5709,7.5777,7.6555,7.6893,7.6893,7.6893,7.686,7.6724,7.5946,7.5236,7.4603,7.4603,7.4603,7.4593,7.3849,7.4052,7.4661,0.0,0.0,0.0,0.0,0.0,0.0,0.0,0.0,0.0,0.0,0.0,0.0,0.0,0.0,0.0,0.0,0.0,0.0,5.6404,5.8555,5.9996,6.0437,6.2458,6.3005,6.1754,6.1356,6.1247,6.1462,6.1649,6.2163,6.2977,6.3418,6.3942,6.4519,6.4301,6.4456,6.4825,6.4825,6.4736,6.4545,6.4122,6.4359,6.4897,6.4436,6.4128,6.3974,6.3974,6.3187,6.2135,6.2075,6.3519,6.5436,6.6088,6.7341,6.8737,6.9642,7.0944,7.2176,7.2581,7.2882,7.312,7.334,7.2789,7.2261,7.2459,7.2496,7.2496,7.2496,7.2496,7.2496,7.2496,7.3156,7.3817,7.4206,7.4955,7.5689,7.6298,7.6937,7.7488,7.7892,7.8479,7.9008,7.9449,7.8761,7.8536,7.917,7.8645,7.827,7.8223,7.7197,7.6377,7.5838,7.5629,7.5406,7.5134,7.5337,7.5236,7.4897,7.5439,7.6014,7.6589,7.6826,7.6893,7.6893,7.6893,7.6251,7.5168,7.4965,7.4796,7.4603,7.4603,7.4931,7.5405,7.5202,7.527,7.5439,0.0,0.0,0.0,0.0,0.0,0.0,0.0,0.0,0.0,0.0,0.0,0.0,0.0,0.0,0.0,0.0,0.0,0.0,0.0,5.6032,5.6911,5.7257,5.8632,5.895,5.7997,5.7357,5.7359,5.8063,5.8063,5.8646,5.9784,6.0153,6.0648,6.1243,6.1243,6.1798,6.2773,6.2773,6.2961,0.0,0.0,6.3281,6.3974,6.3628,6.3572,6.374,6.374,6.3877,6.4181,6.486,6.569,6.6694,6.8392,6.9088,6.9577,7.1022,7.1959,7.2569,7.2936,7.334,7.3611,7.3266,7.2826,7.2496,7.2496,7.2496,7.2496,7.2496,7.2496,7.2606,7.2973,7.367,7.4368,7.483,7.5858,7.6775,7.7252,7.8075,7.8736,7.9066,7.9522,7.9636,7.9152,7.8985,7.8702,7.8256,7.7751,7.7456,7.7337,7.6279,7.5586,7.5445,7.5317,7.5371,7.5709,7.5709,7.5506,7.51,7.5506,7.5946,7.6386,7.6758,7.6893,7.6893,7.6893,7.642,7.5574,7.5236,7.51,7.51,7.51,7.5337,7.5709,7.5709,7.5709,7.5709,0.0,0.0,0.0,0.0,0.0,0.0,0.0,0.0,0.0,5.4242,5.4351,5.4351,0.0,0.0,0.0,0.0,0.0,0.0,0.0,0.0,5.3287,5.3885,5.4032,5.3995,5.3775,5.3078,5.3408,5.4814,5.4814,5.5585,5.7042,5.7042,5.7335,5.7891,5.7952,5.898,6.0715,6.0921,6.1649,6.2637,6.2,6.2233,6.2887,0.0,6.2184,6.2703,6.2829,6.4312,6.6421,6.7924,6.7752,6.7283,6.965,7.0,7.0073,7.2753,7.3046,7.2642,7.334,7.3523,7.3377,7.2679,7.2496,7.2496,7.2496,7.2496,7.2496,7.2496,7.2496,7.2716,7.3413,7.4294,7.4903,7.4903,7.6335,7.7472,7.7472,7.8332,7.9176,7.989,7.9831,7.942,7.8599,7.9134,7.8754,7.6914,7.6647,7.6453,7.621,7.5544,7.5065,7.4752,7.4762,7.4999,7.554,7.5642,7.5642,7.5574,7.5642,7.5743,7.5879,7.6589,7.6893,7.6893,7.6893,7.6893,7.6826,7.6014,7.5743,7.5845,7.5743,7.5709,7.5709,7.5709,7.5709,7.5709,0.0,0.0,0.0,0.0,0.0,0.0,0.0,0.0,0.0,0.0,5.343,5.343,0.0,0.0,0.0,0.0,0.0,0.0,0.0,0.0,0.0,5.1463,5.205,5.1803,5.0445,5.0298,5.0372,5.0639,5.0639,5.1106,5.205,5.205,5.28,5.4154,5.4479,5.5749,5.774,5.8805,5.9362,5.9613,5.9866,6.0408,6.1093,6.063,0.0,0.0,6.4063,6.5541,6.7167,6.8386,6.993,7.1462,7.1937,7.2422,7.2863,7.2753,7.2606,7.2532,7.2679,7.2716,7.2679,7.2532,7.2496,7.2496,7.2496,7.2496,7.2496,7.2496,7.2496,7.2532,7.2679,7.3927,7.4903,7.4903,7.6864,7.8369,7.8369,7.9653,8.0645,8.0791,8.0072,7.9735,8.0136,7.8936,7.789,7.724,7.6598,7.6255,7.6201,7.5812,7.5573,7.5506,7.5506,7.527,7.4796,7.5405,7.5405,7.4796,7.5405,7.6048,7.669,7.6826,7.6893,7.6893,7.6893,7.6893,7.6826,7.6014,7.6082,7.6623,7.5946,7.5709,7.5709,7.5709,7.5709,7.5709,0.0,0.0,0.0,0.0,0.0,0.0,0.0,5.3801,5.3959,5.4399,5.4436,5.4142,5.3287,5.2847,5.2454,0.0,0.0,0.0,0.0,0.0,0.0,5.0188,5.0555,5.0372,4.961,4.916,4.916,4.961,0.0,4.9334,5.0188,5.0188,5.0925,5.2295,5.2912,5.4337,5.6358,5.7382,5.8075,5.8516,5.872,5.9596,6.062,6.0007,0.0,0.0,6.4661,6.6088,6.759,6.8566,7.0243,7.2004,7.2863,7.3083,7.3083,7.312,7.2826,7.2496,7.2496,7.2496,7.2496,7.2496,7.2496,7.2496,7.2496,7.2496,7.2496,7.2496,7.2496,7.2642,7.3046,7.4111,7.505,7.5454,7.7598,7.9213,7.9213,8.0608,8.1636,8.1636,8.1582,8.0909,7.929,7.9215,7.8144,7.5535,7.5844,7.591,7.5412,7.5225,7.5134,7.5134,7.5506,7.554,7.5168,7.5506,7.5506,7.5168,7.554,7.5912,7.6284,7.6284,7.6284,7.6284,7.6284,7.6284,7.6251,7.5845,7.5912,7.6251,7.5845,7.5709,7.5709,7.5709,7.5709,7.5709,0.0,0.0,0.0,0.0,0.0,0.0,5.4052,5.4129,5.4503,5.5453,5.5474,5.488,5.3607,5.3287,5.2884,0.0,0.0,0.0,0.0,0.0,0.0,0.0,0.0,4.9307,4.9307,0.0,0.0,4.9307,4.8636,0.0,0.0,0.0,0.0,0.0,5.2027,5.3441,5.5358,5.6442,5.7255,0.0,0.0,5.9095,6.006,0.0,0.0,0.0,0.0,6.5962,6.7357,6.8531,6.9729,7.105,7.2459,7.2716,7.2606,7.3266,7.301,7.2496,7.2496,7.2496,7.2496,7.2496,7.2496,7.2496,7.2496,7.2496,7.2496,7.2496,7.2496,7.2753,7.356,7.4368,7.5197,7.6203,7.8295,7.9853,8.0036,8.1452,8.237,8.2223,8.2571,8.1648,7.8697,7.9381,7.8512,7.4942,7.5709,7.5898,7.4877,7.4864,7.4864,7.4864,7.5405,7.5709,7.5709,7.5709,7.5709,7.5709,7.5709,7.5709,7.5709,7.5709,7.5709,7.5709,7.5709,7.5811,7.5946,7.5777,7.5811,7.5946,7.5777,7.5709,7.5709,7.5709,7.5709,7.5709,0.0,0.0,0.0,0.0,0.0,0.0,5.3385,5.3339,5.3855,5.5397,5.5036,5.4519,5.4298,5.3654,5.2884,0.0,0.0,0.0,0.0,0.0,0.0,0.0,0.0,0.0,0.0,0.0,0.0,4.8406,4.8333,0.0,0.0,0.0,0.0,0.0,0.0,5.2425,5.4111,5.6081,0.0,0.0,0.0,0.0,0.0,0.0,0.0,0.0,0.0,6.4751,6.5875,6.8164,6.8995,6.9265,7.0146,7.1394,7.2496,7.2606,7.2569,7.2496,7.2496,7.2496,7.2496,7.2496,7.2496,7.2496,7.2496,7.2496,7.2496,7.2496,7.2496,7.2753,7.356,7.4368,7.5417,7.6959,7.8662,8.0073,8.0791,8.2296,8.303,8.2296,8.1478,8.0768,8.0369,7.8938,7.8193,7.8473,7.7682,7.6734,7.5645,7.5608,7.5608,7.5608,7.5676,7.5709,7.5709,7.5709,7.5709,7.5709,7.5709,7.5709,7.5709,7.5709,7.5709,7.5709,7.5709,7.6115,7.6724,7.6014,7.6115,7.6724,7.598,7.5709,7.5709,7.5709,7.5709,7.5709,0.0,0.0,0.0,0.0,0.0,0.0,5.3872,5.3553,5.4,5.6046,5.5303,5.4713,5.5078,5.4399,5.3408,5.2097,0.0,0.0,0.0,0.0,0.0,0.0,0.0,0.0,0.0,0.0,4.9087,4.9087,4.9554,0.0,0.0,0.0,0.0,0.0,0.0,5.3101,5.4256,5.5562,0.0,0.0,0.0,0.0,0.0,0.0,0.0,0.0,0.0,0.0,6.6256,6.7687,6.8164,6.8238,6.8545,6.9412,7.0499,7.149,7.1784,7.1857,7.2386,7.2496,7.2496,7.2496,7.2151,7.1894,7.2386,7.2114,7.1931,7.2422,7.2899,7.3303,7.3648,7.4735,7.5968,7.7142,7.8699,8.0073,8.0901,8.239,8.3087,8.2296,8.2693,8.2408,8.075,8.0363,7.9581,7.8077,7.7541,7.6837,7.5747,7.5709,7.5709,7.5709,7.5709,7.5709,7.5709,7.5709,7.5709,7.5709,7.5709,7.5709,7.5709,7.5709,7.5709,7.5709,7.5709,7.6149,7.6826,7.6014,7.6183,7.6826,7.6014,7.5709,7.5709,7.5709,7.5709,7.5709,0.0,0.0,0.0,0.0,0.0,5.2991,5.3422,5.3035,5.3514,5.5832,5.481,5.4254,5.513,5.4509,5.348,5.2148,5.1297,0.0,0.0,0.0,0.0,0.0,0.0,0.0,0.0,0.0,4.9968,4.9968,5.0508,5.0802,0.0,0.0,0.0,0.0,0.0,0.0,0.0,0.0,0.0,0.0,0.0,0.0,0.0,0.0,0.0,0.0,0.0,0.0,0.0,0.0,0.0,6.77,6.77,6.7904,6.846,7.0113,7.094,7.149,7.2275,7.2679,7.2899,7.3156,7.2408,7.1857,7.2679,7.2041,7.1527,7.2349,7.312,7.378,7.4001,7.5175,7.6533,7.7839,7.9029,8.0147,8.1195,8.2737,8.3471,8.2663,8.3765,8.3769,8.1614,8.1455,8.0433,7.7984,7.7476,7.6994,7.6196,7.5889,7.5709,7.5709,7.5709,7.5709,7.5709,7.5709,7.5709,7.5709,7.5709,7.5709,7.5709,7.5709,7.5709,7.5709,7.5709,7.6149,7.6826,7.6014,7.6183,7.6826,7.6284,7.6048,7.6082,7.6284,7.6386,7.6386,0.0,0.0,0.0,0.0,0.0,0.0,5.1416,5.1269,5.2026,5.4334,5.322,5.2784,5.4269,5.3691,5.2915,5.2171,5.131,0.0,0.0,0.0,0.0,0.0,0.0,0.0,0.0,0.0,5.0802,5.0802,5.0802,5.0802,5.0802,5.0802,5.1673,5.3177,0.0,0.0,0.0,0.0,0.0,0.0,0.0,0.0,6.1496,0.0,0.0,0.0,0.0,0.0,0.0,0.0,0.0,0.0,0.0,6.7117,6.6763,6.8421,7.0059,7.149,7.2275,7.3083,7.3891,7.4683,7.3656,7.2716,7.3487,7.2459,7.1527,7.2349,7.312,7.3927,7.472,7.5542,7.69,7.9376,7.9779,8.0367,8.1966,8.3581,8.4278,8.3491,8.4132,8.4278,8.3438,8.1685,8.018,7.9063,7.7949,7.7314,7.7292,7.6289,7.5709,7.5709,7.5709,7.5709,7.5709,7.5709,7.5709,7.5709,7.5709,7.5709,7.5709,7.5709,7.5709,7.5709,7.5709,7.6149,7.6826,7.6014,7.6183,7.6893,7.6893,7.6893,7.6961,7.7705,7.8,7.8,0.0,0.0,0.0,0.0,0.0,0.0,5.051,4.9965,5.0252,5.1898,5.1294,5.1439,5.339,5.3361,5.3124,5.2882,5.1649,0.0,0.0,0.0,0.0,0.0,0.0,0.0,0.0,5.1463,5.2443,5.2443,5.3555,5.408,5.408,5.4656,5.4876,5.484,5.5416,5.593,0.0,0.0,0.0,0.0,0.0,6.1704,6.2389,0.0,0.0,0.0,0.0,0.0,0.0,0.0,0.0,0.0,0.0,0.0,0.0,6.7041,6.7949,6.9062,7.0497,7.1064,7.1431,7.2224,7.1637,7.1211,7.2569,7.2041,7.1527,7.2349,7.3597,7.4588,7.483,7.6004,7.7546,7.9486,7.9816,8.055,8.2737,8.3454,8.3675,8.3418,8.3141,8.2847,8.259,8.1375,8.0459,8.0107,7.9083,7.8119,7.7358,7.6994,7.6439,7.5699,7.5709,7.5709,7.5709,7.5709,7.5709,7.5709,7.5709,7.5709,7.5709,7.5709,7.5709,7.5743,7.6284,7.6961,7.7638,7.7367,7.7705,7.8348,7.7841,7.7638,7.7671,7.7933,7.8,7.8,0.0,0.0,0.0,0.0,0.0,0.0,4.9323,4.8771,4.8872,5.002,5.0259,5.0963,5.2569,5.3031,5.3197,5.3219,5.2365,0.0,0.0,0.0,0.0,0.0,0.0,0.0,5.0482,5.2564,5.3948,5.4572,5.5574,5.6051,5.6051,5.6565,5.6528,5.6051,5.6602,5.6957,0.0,0.0,0.0,0.0,6.1594,6.2365,6.2793,0.0,0.0,0.0,0.0,0.0,0.0,0.0,0.0,0.0,0.0,0.0,0.0,0.0,6.7235,6.7876,6.9238,7.0301,7.1284,7.2371,7.2055,7.1798,7.312,7.2555,7.1894,7.2422,7.3766,7.4903,7.4903,7.6225,7.7839,7.9522,7.9816,8.0495,8.2469,8.3383,8.3858,8.3858,8.2766,8.1941,8.1613,8.0623,7.9994,7.9994,7.8983,7.8055,7.7358,7.6927,7.6404,7.5733,7.5709,7.5709,7.5709,7.5709,7.5709,7.5709,7.5709,7.5709,7.5709,7.6014,7.6149,7.6183,7.6961,7.7739,0.0,7.8111,7.8416,7.9034,7.8585,7.8416,7.845,7.872,7.8822,7.8822,0.0,0.0,0.0,0.0,0.0,0.0,0.0,4.7735,4.7926,4.8569,4.9901,5.1112,5.1815,5.2674,5.3244,5.3375,0.0,0.0,0.0,0.0,0.0,0.0,0.0,0.0,5.206,5.3702,5.5317,5.6811,5.6847,5.6884,5.6884,5.6884,5.6884,5.6884,5.6884,5.7299,5.8107,5.9722,6.0419,6.0529,6.2132,6.2793,0.0,0.0,0.0,0.0,0.0,0.0,0.0,0.0,0.0,0.0,0.0,0.0,0.0,0.0,0.0,0.0,0.0,7.0534,7.2679,7.4169,7.4037,7.3744,7.4536,7.3619,0.0,7.2496,7.3839,7.4977,7.4903,7.6225,7.7839,7.9449,7.9779,8.0279,8.1636,8.3475,8.4612,8.4415,8.2847,8.1508,8.0786,7.9652,7.9063,7.9222,7.8119,7.7411,7.7411,7.6404,7.5771,7.5709,7.5709,7.5709,7.5709,7.5743,7.5743,7.5709,7.5811,7.5845,7.5811,7.6623,7.6961,7.7029,7.7739,7.8483,7.9034,7.8416,7.8551,7.9194,7.9194,7.9194,7.9236,7.9938,8.0209,8.0209,0.0,0.0,0.0,0.0,0.0,0.0,0.0,0.0,0.0,0.0,4.8766,5.0312,5.0998,5.2333,5.3478,0.0,0.0,0.0,0.0,0.0,0.0,0.0,0.0,0.0,5.292,5.5097,5.6407,5.6811,5.7409,5.7703,5.7703,5.7703,5.7703,5.7703,5.7703,5.7813,5.8107,5.9722,6.0419,6.0529,6.2132,6.2793,0.0,0.0,0.0,0.0,6.3576,6.4053,0.0,0.0,0.0,0.0,0.0,0.0,0.0,0.0,6.7595,6.777,6.8564,0.0,7.0734,7.1138,7.1541,7.2078,0.0,7.3266,7.323,7.2642,7.4258,7.5616,7.5014,7.6225,7.7656,7.8699,7.9412,8.0544,8.2693,8.4437,8.4757,8.265,8.2033,8.1798,8.1821,8.0107,7.9672,8.1317,7.9672,7.8618,7.8618,7.752,7.6554,7.5757,7.5709,7.5709,7.5709,7.6318,7.6318,7.5709,7.6893,7.7164,7.6657,7.7401,7.7739,7.7773,7.8517,7.8957,7.9135,7.9532,7.9803,7.9938,7.9938,7.9938,7.9972,8.0141,8.0209,8.0209,0.0,0.0,0.0,0.0,0.0,0.0,0.0,0.0,0.0,0.0,0.0,4.9935,5.0735,5.2223,0.0,0.0,0.0,0.0,0.0,0.0,0.0,0.0,0.0,5.3922,5.4289,5.593,5.7178,5.7912,5.8731,5.8914,5.8547,5.8951,5.8694,5.7997,5.7997,5.8217,5.8609,5.9857,6.0603,6.108,6.2316,0.0,0.0,0.0,0.0,0.0,6.3796,6.4347,0.0,6.6072,6.6733,6.7173,0.0,0.0,0.0,0.0,6.8997,6.9398,6.9834,7.058,7.1284,7.1651,7.2349,7.3142,7.3964,7.4184,7.4221,7.4184,7.5469,7.6518,7.6078,7.7326,7.8589,7.9066,8.0147,8.1599,8.3654,8.35,8.2845,8.185,8.1453,8.1092,8.0786,8.0126,8.0013,8.0677,7.9633,7.8781,7.8266,7.716,7.6483,7.6275,7.6251,7.6251,7.6251,7.669,7.686,7.6758,7.7594,7.7773,7.7435,7.8179,7.8483,7.8551,7.9634,7.9938,7.9667,8.0412,8.0513,8.0209,8.0209,8.0209,8.0209,8.0209,8.0209,8.0209,0.0,0.0,0.0,0.0,0.0,0.0,0.0,0.0,0.0,0.0,0.0,0.0,0.0,0.0,0.0,0.0,0.0,0.0,0.0,0.0,0.0,0.0,5.4986,5.5201,5.5874,5.661,5.7655,5.9013,5.982,5.9857,5.9196,5.9893,5.9428,5.7997,5.7997,5.8437,5.9269,6.004,6.086,6.1667,6.2462,0.0,0.0,0.0,0.0,0.0,0.0,0.0,0.0,6.6402,6.721,6.7981,6.8678,0.0,0.0,0.0,0.0,0.0,7.1747,7.2445,7.3156,7.3597,7.4404,7.5234,7.5799,7.5579,7.5417,7.5983,7.6848,7.7509,7.7509,7.8662,7.9658,7.9698,8.1014,8.2574,8.4072,8.2215,8.0974,8.1623,8.1144,8.0437,7.9591,8.0144,8.02,7.9302,7.9083,7.8515,7.7345,7.6391,7.6183,7.6893,7.6995,7.713,7.7232,7.7232,7.7502,7.8,7.8237,7.828,7.8179,7.8923,7.9295,7.9363,8.0581,8.0784,8.0242,8.0851,8.075,8.0209,8.0209,8.0209,8.0209,8.0209,8.0209,8.0209,0.0,0.0,0.0,0.0,0.0,0.0,0.0,0.0,0.0,0.0,0.0,0.0,0.0,0.0,0.0,0.0,0.0,0.0,0.0,0.0,0.0,5.8658,5.762,5.7076,5.7225,5.7593,5.7923,5.818,5.8976,5.9306,5.9196,5.9343,5.8902,5.7997,5.7997,5.8437,5.9269,6.004,6.086,6.1667,6.2462,0.0,0.0,0.0,0.0,0.0,0.0,0.0,0.0,6.726,6.8054,6.8752,6.8862,0.0,0.0,0.0,0.0,0.0,7.3802,7.494,7.5249,7.4001,7.4808,7.5763,7.5197,7.6041,7.6775,7.6203,7.7341,7.8405,7.8405,7.8626,7.8922,7.9318,8.0477,8.1677,8.2608,8.318,8.2936,8.148,8.1483,8.1635,8.1683,8.1054,8.0514,8.0366,7.9497,7.8515,7.7345,7.6914,7.6758,7.6893,7.7502,7.8111,7.8788,7.8788,7.8517,7.8034,7.9261,7.9532,7.8957,7.9701,8.004,8.004,8.0276,8.031,8.0209,8.031,8.031,8.0209,8.0209,8.0209,8.0209,8.0209,8.0209,8.0209,0.0,0.0,0.0,0.0,0.0,0.0,0.0,0.0,0.0,0.0,0.0,0.0,0.0,0.0,0.0,0.0,0.0,0.0,0.0,0.0,5.9688,5.9407,5.8847,5.8418,5.8164,5.8486,5.8646,5.8646,5.9905,6.026,5.982,5.9416,5.8756,5.8033,5.8437,5.9086,5.9893,6.0713,6.152,6.2291,0.0,0.0,0.0,0.0,0.0,0.0,0.0,0.0,0.0,0.0,6.9229,6.9633,7.0059,0.0,0.0,0.0,0.0,0.0,7.4353,7.5784,7.6665,7.6423,7.69,7.7598,7.8075,7.8442,7.8772,7.9286,8.0021,8.0534,8.0534,8.0901,8.1415,8.2055,8.1794,8.186,8.2788,8.2028,8.123,8.0912,8.1047,8.0965,8.0531,8.055,8.0088,7.8887,7.837,7.7793,7.7136,7.6968,7.7266,7.8077,7.8416,7.8957,7.9701,7.9701,7.9532,7.9194,7.987,8.0006,7.9701,8.004,8.0209,8.0209,8.0615,8.0547,8.0242,8.0615,8.0547,8.0209,8.0209,8.0209,8.0209,8.0209,8.0445,8.0784,0.0,0.0,0.0,0.0,0.0,0.0,0.0,0.0,0.0,0.0,0.0,0.0,0.0,0.0,0.0,0.0,0.0,0.0,0.0,5.9787,5.9893,5.9415,5.9284,5.9047,5.8723,5.9028,5.9196,5.9196,6.0823,6.1263,6.0676,5.9857,5.9159,5.8584,5.9013,5.9747,6.0713,6.1337,6.2071,6.2793,0.0,0.0,0.0,0.0,0.0,0.0,0.0,0.0,0.0,0.0,0.0,0.0,0.0,0.0,0.0,7.2312,7.2496,7.2899,7.4683,7.5931,7.7069,7.8516,7.8883,7.9176,8.0424,8.0257,8.022,8.1636,8.2076,8.2186,8.2186,8.2423,8.2999,8.4138,8.2393,8.1466,8.3055,8.0972,7.9566,8.0375,8.0548,8.0199,7.9103,7.9746,7.9419,7.7433,7.7487,7.7387,7.6932,7.7232,7.7942,7.9034,7.9295,7.9634,8.0175,8.0209,8.0209,8.0209,8.0209,8.0209,8.0209,8.0209,8.0209,8.0242,8.0784,8.0716,8.0242,8.0784,8.0716,8.0209,8.0209,8.031,8.0445,8.0445,8.0919,8.1562,0.0,0.0,0.0,0.0,0.0,0.0,0.0,0.0,0.0,0.0,0.0,0.0,0.0,0.0,0.0,0.0,0.0,0.0,5.8825,5.9631,5.9893,5.9415,5.8999,5.8716,5.8713,5.9028,5.9196,5.9196,6.0823,6.1569,6.1484,6.0676,6.026,6.0187,5.9526,6.004,6.1533,6.1569,6.2071,6.2793,6.2793,0.0,0.0,0.0,0.0,0.0,0.0,0.0,0.0,0.0,0.0,0.0,0.0,0.0,7.2422,7.2496,7.2496,7.301,7.5359,7.5542,7.5821,7.8935,7.9706,7.9743,7.9853,7.9853,8.0036,8.0901,8.1672,8.2186,8.2186,8.1181,8.1022,8.3149,8.0561,7.9384,8.2503,8.1243,8.006,8.0142,8.0422,8.0199,7.9103,7.9063,7.8618,7.7367,7.7972,7.7972,7.6966,7.8213,7.8966,7.9101,7.9769,8.0141,8.0209,8.0209,8.0209,8.0209,8.0209,8.0209,8.0209,8.0209,8.0209,8.0209,8.0242,8.0242,8.0209,8.0242,8.0242,8.0209,8.0209,8.0615,8.1215,8.1215,8.1697,8.234,0.0,0.0,0.0,0.0,0.0,0.0,0.0,0.0,0.0,0.0,0.0,0.0,0.0,0.0,0.0,0.0,0.0,0.0,5.8415,5.9195,5.945,5.8999,5.8786,5.8549,5.8271,5.9361,6.0187,6.0676,6.1814,6.2108,6.1594,6.13,6.0896,6.0419,6.0603,6.1043,6.1643,6.2144,6.2499,6.2793,6.2793,6.2793,0.0,0.0,0.0,0.0,0.0,0.0,0.0,0.0,7.1798,7.2041,7.2041,7.2275,7.2496,7.2496,7.2496,7.2936,7.483,7.6276,7.7488,7.8736,8.0167,8.1285,8.1285,8.1672,8.215,8.2427,8.3544,8.3944,8.2315,8.2336,8.2469,8.1814,8.097,8.0843,8.2281,8.1291,8.0668,8.131,8.0324,7.9439,7.9043,7.8827,7.8511,7.813,7.8814,7.9268,7.9324,7.9827,8.0052,7.9794,8.004,8.0209,8.0209,8.0209,8.0209,8.0209,8.0209,8.0209,8.0209,8.0209,8.0209,8.0209,8.0209,8.0209,8.0209,8.0209,8.0209,8.0242,8.0682,8.1054,8.1384,8.1799,8.2441,8.3084,0.0,0.0,0.0,0.0,0.0,0.0,0.0,0.0,0.0,0.0,0.0,0.0,0.0,0.0,0.0,0.0,0.0,0.0,5.7586,5.8565,5.898,5.8513,5.8492,5.8459,5.8375,5.9465,6.0407,6.1227,6.2279,6.2499,6.1961,6.1704,6.1594,6.1557,6.1594,6.1887,6.2414,6.2683,6.2793,6.2829,6.3086,6.3196,0.0,0.0,0.0,0.0,0.0,0.0,0.0,0.0,7.2496,7.2496,7.2496,7.2496,7.2496,7.2496,7.2863,7.356,7.4903,7.6533,7.8002,7.8772,8.0021,8.1269,8.2039,8.2627,8.3161,8.3675,8.4242,8.4256,8.2973,8.274,8.2358,8.1342,8.1037,8.1218,8.2058,8.1264,8.0875,8.1613,8.0107,7.8968,7.8846,7.865,7.8663,7.8928,7.9633,8.0269,8.0755,8.0696,8.0467,8.02,8.0209,8.0209,8.0209,8.0209,8.0209,8.0209,8.0209,8.0209,8.0209,8.0209,8.0209,8.0209,8.0209,8.0209,8.0209,8.0445,8.0682,8.0953,8.1426,8.1765,8.2035,8.2577,8.3219,8.3862,0.0,0.0,0.0,0.0,0.0,0.0,0.0,0.0,0.0,0.0,0.0,0.0,0.0,0.0,0.0,0.0,0.0,0.0,5.6262,5.7762,5.8466,5.8031,5.7997,5.8364,5.9159,5.9196,5.96,6.0419,6.2022,6.2793,6.2793,6.1998,6.2524,6.4029,6.2377,6.2561,6.4029,6.3172,6.2793,6.2866,6.3759,6.4103,6.4286,0.0,0.0,0.0,0.0,0.0,0.0,0.0,7.2496,7.2496,7.2496,7.2496,7.2532,7.2496,7.3619,7.5087,7.5873,7.6093,7.6717,7.9192,7.9213,7.9286,8.1672,8.2223,8.2663,8.4278,8.3324,8.27,8.4298,8.1753,8.0041,8.1892,8.0422,7.9749,8.1902,8.1301,8.0641,8.0641,7.9688,7.8894,7.8578,7.8581,7.895,7.9691,8.0396,8.0847,8.0847,8.0443,8.0234,8.0209,8.0209,8.0209,8.0209,8.0209,8.0209,8.0209,8.0209,8.0209,8.0209,8.0209,8.0209,8.0209,8.0209,8.0209,8.0276,8.1012,8.1731,8.2408,8.2408,8.2881,8.349,8.3524,8.3964,8.4614,0.0,0.0,0.0,0.0,0.0,0.0,0.0,0.0,0.0,0.0,0.0,0.0,0.0,0.0,0.0,0.0,0.0,0.0,5.5818,5.624,5.6717,5.7152,5.7152,5.7519,5.8327,5.9465,6.0456,6.1227,6.2279,6.2793,6.2793,6.3172,6.3282,6.3196,6.3319,6.3282,6.3172,6.2903,6.2793,6.2866,6.3759,6.4103,6.4286,0.0,0.0,0.0,0.0,0.0,0.0,0.0,0.0,0.0,7.2496,7.3303,7.3949,7.2826,7.4037,7.5689,7.5344,7.6937,7.8898,7.9633,8.1305,8.2994,8.3728,8.3471,8.3508,8.5123,8.5049,8.433,8.2955,8.2287,8.1563,8.049,8.0189,8.0605,8.1985,8.2395,8.2555,8.2555,8.2106,8.1772,8.1675,8.1467,8.1767,8.2774,8.2821,8.2773,8.2773,8.191,8.1039,8.0234,8.0209,8.0209,8.0209,8.0209,8.0209,8.0209,8.0209,8.0209,8.0209,8.0209,8.0209,8.0242,8.075,8.0953,8.1021,8.1765,8.2205,8.2475,8.2983,8.3321,8.3558,8.4099,8.4411,8.4614,0.0,0.0,0.0,0.0,0.0,0.0,0.0,0.0,0.0,0.0,5.5277,5.6164,0.0,0.0,0.0,0.0,0.0,0.0,5.5644,5.5915,5.6308,5.6774,5.7398,5.8132,5.8951,6.0236,6.1117,6.1606,6.2389,6.2976,6.3306,6.4163,6.4457,6.4297,6.4824,6.4751,6.4261,6.393,6.3967,6.431,6.4824,6.5448,6.6145,0.0,0.0,0.0,0.0,0.0,0.0,0.0,0.0,0.0,7.2496,7.3193,7.3876,7.356,7.5175,7.7121,7.7304,7.925,8.1305,8.1636,8.3177,8.4682,8.5013,8.4939,8.4996,8.5673,8.527,8.4383,8.2806,8.2355,8.1829,8.0773,8.0956,8.1566,8.2544,8.3087,8.3528,8.3821,8.3337,8.3133,8.3403,8.3278,8.3574,8.4556,8.3983,8.3621,8.3621,8.2083,8.0917,8.02,8.0209,8.0209,8.0209,8.0209,8.0209,8.0209,8.0209,8.0344,8.0615,8.031,8.0344,8.0682,8.1426,8.19,8.2205,8.2644,8.3016,8.3295,8.3761,8.3964,8.3998,8.4444,8.4614,8.4614,0.0,0.0,4.7819,0.0,0.0,0.0,0.0,0.0,0.0,5.3324,5.4766,5.5989,0.0,0.0,0.0,5.6737,5.6627,5.6271,5.5548,5.6198,5.6627,5.6774,5.8425,5.9673,6.0493,6.1227,6.1667,6.1826,6.2536,6.3319,6.4139,6.5007,6.5778,6.6402,6.6476,6.6476,6.6366,6.5692,6.5852,6.6512,6.6659,6.7577,6.9009,6.9889,0.0,0.0,0.0,0.0,0.0,0.0,0.0,0.0,7.2606,7.2716,7.312,7.45,7.6717,7.8993,8.0388,8.1986,8.3491,8.4389,8.4719,8.4976,8.5637,8.6371,8.6664,8.5857,8.4535,8.3491,8.3418,8.2207,8.1452,8.2186,8.2296,8.259,8.3381,8.3564,8.3895,8.4609,8.3899,8.3606,8.4273,8.4438,8.4708,8.5261,8.4248,8.3557,8.3471,8.1355,8.0209,8.0209,8.0209,8.0209,8.0209,8.0209,8.0242,8.031,8.031,8.0682,8.1384,8.0648,8.075,8.1554,8.2205,8.2915,8.3592,8.3592,8.3998,8.4614,8.4614,8.4614,8.4614,8.4614,8.4614,8.4614,0.0,0.0,4.916,4.9537,0.0,0.0,0.0,0.0,5.4179,5.4997,5.5941,5.6602,5.6774,5.6957,0.0,5.5941,5.528,5.484,5.4656,5.4803,5.5464,5.6737,5.8939,6.0529,6.13,6.152,6.223,6.3552,6.3723,6.3919,6.4139,6.5558,6.5999,6.5582,6.6219,6.6145,6.5582,6.6035,6.6329,6.6623,6.7871,6.8605,6.9068,7.0499,7.116,0.0,0.0,0.0,0.0,0.0,0.0,0.0,7.323,7.4294,7.5285,7.4977,7.7121,7.9486,7.9176,8.0755,8.281,8.4242,8.5563,8.6371,8.5894,8.593,8.582,8.5013,8.4572,8.4168,8.3528,8.3124,8.2941,8.3087,8.3124,8.3418,8.4242,8.4903,8.5343,8.5527,8.5905,8.6185,8.6351,8.6405,8.6101,8.5355,8.4248,8.3212,8.23,8.0941,8.0209,8.0209,8.0209,8.0209,8.0209,8.0209,8.0479,8.108,8.108,8.1426,8.2137,8.1393,8.1765,8.305,8.3186,8.3693,8.4343,8.4343,8.4444,8.4614,8.4614,8.4614,8.4614,8.4614,8.4614,8.4614,0.0,0.0,0.0,0.0,0.0,0.0,0.0,0.0,5.4546,5.4961,5.5721,5.6381,5.6737,5.6455,0.0,0.0,5.4851,5.4399,5.4399,5.4766,5.6051,5.8437,6.0089,6.1337,6.2144,6.2181,6.2805,6.4103,6.4494,6.4861,6.5264,6.6489,6.6843,6.6476,6.7283,6.721,6.6512,6.732,6.7871,6.8311,6.9155,6.9926,7.066,7.1123,7.1527,7.1931,7.2349,0.0,0.0,0.0,0.0,0.0,0.0,0.0,7.5028,7.5359,7.7268,7.9412,8.0131,8.1782,8.3728,8.5343,8.639,8.6763,8.5772,8.54,8.4967,8.4004,8.39,8.3785,8.2994,8.3124,8.3381,8.3381,8.3711,8.4278,8.5049,8.5527,8.593,8.6334,8.6738,8.6978,8.6978,8.65,8.5954,8.5336,8.3734,8.2527,8.1922,8.0795,8.0209,8.0209,8.0209,8.0209,8.0209,8.0547,8.0919,8.1317,8.1663,8.2205,8.2915,8.2509,8.2746,8.3524,8.3862,8.4242,8.4614,8.4614,8.4614,8.4614,8.4614,8.4614,8.4614,8.4614,8.4614,8.4614,0.0,0.0,0.0,0.0,0.0,0.0,0.0,0.0,0.0,5.462,5.5328,5.6014,5.6528,5.5868,5.5328,0.0,0.0,0.0,5.4179,5.5328,5.7336,6.0272,6.13,6.2108,6.2793,6.2793,6.3306,6.431,6.4971,6.5778,6.6733,6.7407,6.77,6.7737,6.8385,6.8311,6.7774,6.8715,6.9486,7.011,7.0403,7.1321,7.2422,7.1747,7.1931,7.2496,7.2496,7.2496,7.2496,7.2496,0.0,0.0,0.0,0.0,7.4001,7.5469,7.7084,7.8846,8.1012,8.3067,8.4976,8.6611,8.6904,8.6458,8.5201,8.4627,8.4008,8.2757,8.286,8.3014,8.2517,8.2957,8.3491,8.3748,8.4389,8.5086,8.5894,8.6004,8.6172,8.6658,8.6714,8.6643,8.6446,8.575,8.5143,8.4733,8.3329,8.2244,8.1629,8.0892,8.0426,8.0209,8.0209,8.0209,8.0209,8.0784,8.1249,8.1494,8.2374,8.3118,8.3693,8.3693,8.3693,8.3727,8.4343,8.4614,8.4614,8.4614,8.4614,8.4614,8.4614,8.4614,8.4614,8.4614,8.4614,8.4614,0.0,0.0,0.0,0.0,0.0,0.0,0.0,0.0,0.0,0.0,5.6124,5.6418,5.5805,5.5023,5.4289,5.3581,5.3434,5.3361,5.3361,0.0,0.0,6.0309,6.1838,6.2683,6.2793,6.2793,6.3563,6.5141,6.5251,6.6072,6.7554,6.7664,6.77,6.77,6.7811,6.7811,6.7811,6.9302,7.0,7.022,7.1615,7.2312,7.2496,7.2386,7.2422,7.2496,7.2496,7.2496,7.2496,7.2496,7.2496,0.0,0.0,0.0,7.3891,7.4808,7.6225,7.7693,7.8772,8.1782,8.4976,8.6611,8.6481,8.5487,8.3718,8.3443,8.3056,8.1292,8.1675,8.2553,8.3124,8.3344,8.3858,8.5233,8.5563,8.593,8.6738,8.6848,8.6497,8.5619,8.5525,8.5143,8.4165,8.4793,8.4492,8.2504,8.3902,8.3543,8.0591,8.1222,8.1222,8.0225,8.0209,8.0209,8.0209,8.031,8.0987,8.2272,8.3633,8.4343,8.4444,8.4444,8.4444,8.4444,8.4546,8.4614,8.4614,8.4614,8.4614,8.4614,8.4614,8.4614,8.4614,8.4614,8.4614,8.4614,0.0,0.0,0.0,0.0,0.0,0.0,0.0,0.0,0.0,0.0,0.0,5.5989,5.5658,5.4876,5.4069,5.3287,5.3214,5.3581,5.4473,5.6308,5.8253,6.0297,6.152,6.2352,6.2793,6.2793,6.3637,6.5288,6.5288,6.6109,6.77,6.77,6.77,6.77,6.77,6.77,6.7811,6.9426,7.011,7.022,7.1835,7.3046,7.3692,7.2334,7.2665,7.3619,7.1798,7.1431,7.1821,7.1821,7.1821,7.1967,7.2789,0.0,0.0,0.0,7.4683,7.6555,7.9213,8.2223,8.4976,8.6611,8.6407,8.5413,8.3934,8.303,8.2215,8.1168,8.0981,8.1509,8.3124,8.4132,8.4976,8.5673,8.6187,8.6591,8.6941,8.6978,8.6802,8.6301,8.6265,8.6064,8.5544,8.5391,8.4872,8.3881,8.413,8.367,8.2175,8.1968,8.1676,8.1174,8.0542,8.0209,8.0209,8.1021,8.2171,8.3633,8.4275,8.4614,8.4614,8.4614,8.4614,8.4614,8.4614,8.4614,8.4614,8.4614,8.4614,8.4614,8.4614,8.4614,8.4614,8.4614,8.4614,8.4614,0.0,0.0,0.0,0.0,0.0,0.0,0.0,0.0,0.0,0.0,0.0,5.5585,5.5585,0.0,0.0,0.0,5.3214,5.3801,5.5218,5.6051,5.7483,5.9685,6.075,6.1667,6.2462,6.2683,6.3637,6.5288,6.5288,6.6109,6.77,6.77,6.7811,6.7994,6.7811,6.7811,6.8104,6.9486,7.022,7.055,7.2386,7.3839,7.4757,7.3362,7.3949,7.5124,7.2092,7.1394,7.1821,7.1197,7.0977,7.1087,7.1688,7.2292,0.0,0.0,0.0,7.4945,7.8618,8.1428,8.3737,8.5583,8.5739,8.5124,8.3723,8.2583,8.1585,8.0709,8.047,8.105,8.317,8.4543,8.5508,8.6006,8.6628,8.6978,8.6978,8.6978,8.6891,8.6589,8.6553,8.6464,8.6138,8.5619,8.5182,8.4872,8.4613,8.4207,8.3642,8.3081,8.2504,8.1898,8.1077,8.0594,8.0479,8.1934,8.3253,8.4309,8.4512,8.4614,8.4614,8.4614,8.4614,8.4614,8.4614,8.4614,8.4614,8.4614,8.4614,8.4614,8.4614,8.4614,8.4614,8.4614,8.4614,8.4614,0.0,0.0,0.0,0.0,0.0,0.0,0.0,0.0,0.0,0.0,0.0,5.5585,5.5585,5.4876,5.4069,5.3287,5.3214,5.3544,5.4399,5.5218,5.6393,5.8033,5.9648,0.0,6.163,6.2389,6.3637,6.5288,6.5288,6.6109,6.77,6.77,6.8091,6.8788,6.8031,6.8128,6.8898,6.9743,7.055,7.1454,7.3802,7.483,7.505,7.6445,7.7069,7.6848,7.4404,7.3538,7.3244,7.0917,7.0146,7.0183,7.022,7.0157,7.0096,0.0,0.0,0.0,7.5212,7.7773,8.0316,8.2703,8.3987,8.411,8.204,8.1672,8.1215,7.9064,8.0055,8.181,8.3701,8.4144,8.4788,8.6618,8.6978,8.6978,8.6978,8.6978,8.6589,8.5525,8.541,8.4967,8.3895,8.4693,8.4832,8.379,8.5637,8.5862,8.3727,8.4573,8.413,8.1968,8.1829,8.1627,8.1249,8.2712,8.349,8.3558,8.4275,8.4614,8.4614,8.4614,8.4614,8.4614,8.4614,8.4614,8.4614,8.4614,8.4614,8.4614,8.4614,8.4614,8.4614,8.4614,8.4614,8.4614,0.0,0.0,0.0,0.0,0.0,0.0,0.0,0.0,0.0,0.0,0.0,0.0,0.0,5.5328,5.462,5.3324,5.3214,5.3765,5.5071,5.5438,5.6796,5.9428,6.0089,6.1031,6.2352,6.3209,6.42,6.5288,6.5815,6.6623,6.77,6.77,6.7847,6.8141,6.7847,6.8435,6.9706,6.9963,7.055,7.1527,7.3913,7.5858,7.7231,7.6717,7.8185,7.9984,0.0,0.0,0.0,7.3487,7.2165,0.0,0.0,6.9901,7.055,6.9937,7.0469,7.1797,7.4192,7.5893,7.7691,8.0584,8.1532,8.1695,8.1404,8.0823,8.0279,8.0001,7.9891,8.0662,8.3306,8.4378,8.5348,8.6765,8.6978,8.6978,8.6978,8.6978,8.6856,8.6446,8.6374,8.6247,8.5806,8.6138,8.6098,8.543,8.6374,8.652,8.5466,8.5353,8.4593,8.306,8.2719,8.2407,8.2002,8.2543,8.3016,8.3524,8.4242,8.4614,8.4614,8.4614,8.4614,8.4614,8.4614,8.4614,8.4614,8.4614,8.4614,8.4614,8.4614,8.4614,8.4614,8.4614,8.4614,8.4614,0.0,0.0,0.0,0.0,0.0,5.7802,5.8327,5.7483,5.7005,5.7545,0.0,0.0,0.0,0.0,5.5464,5.4106,5.3995,5.4473,5.5548,5.5842,5.7079,5.9501,6.0126,6.1043,6.2365,6.2952,6.3943,6.5288,6.5558,6.6366,6.77,6.77,6.7847,6.8091,6.8091,6.8862,7.011,7.0403,7.0991,7.1967,7.494,7.646,7.6974,7.7231,7.8516,7.98,0.0,0.0,0.0,0.0,0.0,0.0,0.0,6.9561,6.958,6.8914,6.9263,7.0244,7.18,7.3425,7.5336,7.7943,7.921,8.0004,8.0612,8.0181,7.9741,8.0093,7.9885,8.0471,8.3115,8.4532,8.5657,8.6802,8.6978,8.6978,8.6978,8.6978,8.6978,8.6978,8.6978,8.6978,8.6978,8.6978,8.6898,8.6624,8.6828,8.688,8.6605,8.6134,8.5162,8.3663,8.3091,8.2685,8.2408,8.2889,8.3362,8.3896,8.4377,8.4614,8.4614,8.4614,8.4614,8.4614,8.4614,8.4614,8.4614,8.4614,8.4614,8.4614,8.4614,8.4614,8.4614,8.4614,8.4614,8.4614,0.0,0.0,0.0,0.0,5.9269,5.9233,5.9269,5.9269,5.9233,5.9233,0.0,0.0,0.0,0.0,0.0,5.5732,5.5695,5.5695,5.5695,5.6492,5.7288,5.807,5.9648,6.086,6.163,6.1679,6.2842,6.5288,6.4567,6.5424,6.7737,6.7774,6.8201,6.8935,6.8972,6.9412,7.0183,7.0977,7.1747,7.2863,7.6864,7.6644,7.4309,7.8311,7.8405,0.0,7.6356,7.6818,0.0,0.0,0.0,0.0,0.0,6.8887,6.6926,6.6833,6.732,6.7861,0.0,0.0,0.0,7.4683,7.6997,7.9017,7.9453,7.9566,7.9534,7.917,8.0004,8.1362,8.3266,8.4532,8.5657,8.6802,8.6978,8.6978,8.6978,8.6978,8.6978,8.6978,8.6978,8.6978,8.6978,8.6978,8.7014,8.698,8.6997,8.7014,8.698,8.6925,8.5879,8.3642,8.2834,8.24,8.2408,8.3889,8.4599,8.458,8.458,8.4614,8.4614,8.4614,8.4614,8.4614,8.4614,8.4614,8.4614,8.4614,8.4614,8.4614,8.4614,8.4614,8.4614,8.4614,8.4614,8.4614,0.0,0.0,0.0,6.0933,6.0456,6.0272,6.086,6.0456,6.0077,0.0,0.0,0.0,5.8976,5.8143,5.7593,5.7373,5.7886,5.8205,5.8205,5.9501,6.0382,6.0603,6.1594,6.2242,6.2462,6.3099,6.4016,6.5288,6.6219,6.732,6.8568,6.9155,6.9559,6.9779,7.0389,7.0756,7.0977,7.1197,7.1747,7.2716,7.4992,7.679,0.0,0.0,0.0,0.0,0.0,8.1291,8.0333,0.0,7.6384,7.2863,0.0,6.7566,6.6167,6.6659,6.6927,6.7218,6.776,0.0,0.0,0.0,0.0,0.0,7.5765,7.6865,7.7938,7.8871,8.0004,8.1362,8.3266,8.4532,8.5657,8.6802,8.6978,8.6978,8.6978,8.6978,8.6978,8.6978,8.6978,8.6978,8.6978,8.6978,8.688,8.6603,8.6829,8.6863,8.6584,8.529,8.4123,8.3205,8.3015,8.2741,8.2408,8.4197,8.4676,8.3828,8.4343,8.4614,8.4614,8.4614,8.4614,8.4614,8.4614,8.4614,8.4614,8.4614,8.4614,8.4614,8.4614,8.4614,8.4614,8.4614,8.4614,8.4614,0.0,0.0,6.3135,6.3135,6.2768,6.2622,6.3062,6.2768,6.2426,0.0,0.0,0.0,6.0848,6.026,6.0015,6.0015,6.0444,6.0701,6.0701,6.1594,6.2108,6.2108,6.2536,6.2976,6.3319,6.3466,6.431,6.5802,6.6733,6.776,6.8921,6.9706,7.011,7.0146,7.094,7.1307,7.1307,7.1674,7.2078,7.2753,7.5726,0.0,0.0,7.9834,8.1304,0.0,0.0,0.0,7.971,8.0514,7.767,0.0,0.0,0.0,6.7175,6.687,6.7265,6.7793,6.7861,6.8368,6.9147,7.0364,0.0,0.0,7.51,7.6251,7.7537,7.9805,8.1159,8.2467,8.4017,8.522,8.6247,8.6891,8.7288,8.7399,8.7051,8.6978,8.7124,8.7472,8.7198,8.7124,8.7472,8.7198,8.6897,8.6664,8.6881,8.6682,8.5983,8.3982,8.3005,8.3236,8.3462,8.3411,8.3089,8.488,8.5158,8.3964,8.4377,8.4614,8.4614,8.4614,8.4614,8.4614,8.4614,8.4614,8.4614,8.4614,8.4614,8.4614,8.4614,8.4614,8.4614,8.4614,8.4614,8.4614,0.0,0.0,6.5288,6.5288,6.5288,6.5288,6.5288,6.5288,6.5288,0.0,6.4751,6.4127,6.3527,6.3417,6.3343,6.3343,6.3343,6.3306,6.3233,6.3306,6.3233,6.2976,6.3123,6.3503,6.4103,6.3429,6.4187,6.6512,6.6696,6.754,6.9045,6.9963,7.0367,7.0403,7.1087,7.1417,7.149,7.2006,7.2402,7.3069,7.7458,7.6918,0.0,0.0,7.871,7.6494,7.8595,7.8558,7.7976,8.0783,7.8947,0.0,0.0,0.0,0.0,6.7974,6.8502,6.9467,6.8468,6.9206,7.0371,7.0928,7.1616,0.0,7.5642,7.6352,7.7298,8.0419,8.2079,8.3258,8.4496,8.581,8.669,8.674,8.7472,8.7839,8.7215,8.7198,8.7528,8.8243,8.7675,8.7545,8.828,8.7619,8.7124,8.7124,8.7051,8.6464,8.5182,8.3177,8.2449,8.3318,8.3903,8.4149,8.4036,8.5589,8.5786,8.4614,8.4614,8.4614,8.4614,8.4614,8.4614,8.4614,8.4614,8.4614,8.4614,8.4614,8.4614,8.4614,8.4614,8.4614,8.4614,8.4614,8.4614,8.4614,6.4897,6.5178,6.5288,6.5288,6.5288,6.5288,6.5288,6.5288,6.5288,6.5288,6.5742,6.6476,6.7614,6.7136,6.6746,6.6746,6.6746,6.6476,6.5815,6.6366,6.5888,6.3906,6.5081,6.5264,6.4139,6.4567,6.5375,6.6512,6.7797,6.8935,6.9889,7.1358,7.2018,7.2055,7.2202,7.2275,7.2196,7.0984,7.1861,7.4102,7.5058,7.5638,7.6259,7.9041,8.1434,8.3249,8.2815,8.3081,8.3304,0.0,7.9996,7.869,0.0,0.0,0.0,7.1918,7.2196,7.2957,7.0684,7.0283,0.0,0.0,0.0,0.0,7.2124,7.2868,7.3783,7.5633,7.7397,7.914,8.0881,8.313,8.4828,8.504,8.6297,8.7435,8.7912,8.8519,8.8996,8.9143,8.9033,8.8996,8.9143,8.8463,8.7986,8.7986,8.7362,8.6083,8.4062,8.35,8.2783,8.1806,8.3352,8.3989,8.3636,8.5455,8.5786,8.4614,8.4614,8.4614,8.4614,8.4614,8.4614,8.4614,8.4614,8.4614,8.4614,8.4614,8.4614,8.4614,8.4614,8.4614,8.4614,8.4614,8.4614,8.4614,6.5815,6.6219,6.6512,6.6512,6.6512,6.6512,6.6512,6.6843,6.7086,6.7086,6.7797,6.8605,6.9412,6.9119,6.8912,6.8912,6.8912,6.8728,6.8311,6.8311,6.776,6.6549,6.688,6.6916,6.6512,6.688,6.7504,6.8311,6.9522,7.0279,7.0734,7.1945,7.3156,7.4221,7.2642,7.2775,7.4118,7.1698,7.1459,7.2875,7.435,0.0,7.8549,8.0883,8.2907,8.4391,8.3832,8.3979,8.4114,8.1907,8.083,0.0,0.0,7.7915,7.6998,0.0,7.403,7.4312,0.0,0.0,0.0,7.079,0.0,0.0,0.0,7.2935,7.3525,7.5561,7.7051,7.8467,7.9958,8.1335,8.2525,8.3417,8.4252,8.5211,8.6328,8.7833,8.9106,8.9877,8.9657,8.9546,8.995,8.9253,8.8776,8.8776,8.7541,8.5988,8.4294,8.3257,8.2569,8.2149,8.3469,8.4253,8.4334,8.5723,8.5786,8.4614,8.4614,8.4614,8.4614,8.4614,8.4614,8.4614,8.4614,8.4614,8.4614,8.4614,8.4614,8.4614,8.4614,8.4614,8.4614,8.4614,8.4614,8.4614,6.6733,6.726,6.77,6.77,6.7847,6.7921,6.7921,6.8605,6.9192,6.9325,7.0073,7.0624,7.077,7.1064,7.1174,7.1027,7.1174,7.0991,7.0367,6.9889,6.9398,6.8921,6.8421,6.8458,6.9119,6.9119,6.9449,7.011,7.0903,7.1307,7.1307,7.1967,7.3303,7.5102,7.2958,7.3179,7.5014,7.2702,7.2033,7.2637,0.0,7.6749,7.8948,8.1824,8.3053,8.3297,8.4008,8.4268,8.4089,8.2882,8.2052,8.1545,8.1725,8.0694,0.0,0.0,0.0,0.0,0.0,0.0,0.0,0.0,0.0,7.1954,0.0,0.0,0.0,7.5974,7.7071,7.8001,7.9281,7.9649,8.0185,8.1588,8.199,8.2613,8.3968,8.6188,8.8251,8.9844,8.9659,8.9657,9.0317,8.9422,8.891,8.9039,8.7494,8.5896,8.4537,8.3199,8.25,8.2673,8.3421,8.4111,8.4634,8.5579,8.5498,8.4377,8.4512,8.4614,8.4614,8.4614,8.4614,8.4614,8.4614,8.4614,8.4614,8.4614,8.4614,8.4614,8.4614,8.4614,8.4614,8.4614,8.4614,8.4614,6.7554,6.7627,6.77,6.77,6.8274,6.8752,6.8752,6.9449,7.022,7.094,7.1711,7.2496,7.3193,7.4551,7.5139,7.4426,7.5028,7.4221,7.1344,7.1747,7.1138,6.9009,6.9486,6.9853,6.9963,6.9963,7.0,7.011,7.0903,7.1307,7.1307,7.138,7.1564,7.1931,7.3692,7.3509,7.1924,7.2922,7.4858,7.7199,7.6002,7.4803,0.0,7.8701,8.1026,8.2334,8.5482,8.6589,8.6387,0.0,8.4694,8.4713,0.0,8.219,8.2553,7.8044,0.0,0.0,0.0,0.0,0.0,0.0,7.2326,0.0,0.0,0.0,7.1808,7.2745,0.0,0.0,0.0,0.0,0.0,7.9216,8.0056,8.0841,8.1671,8.4075,8.6287,8.784,8.8819,8.9436,8.9546,8.7902,8.7114,8.7762,8.6997,8.5549,8.3323,8.4003,8.3552,8.1588,8.2199,8.264,8.2716,8.4107,8.4401,8.3625,8.4275,8.4614,8.4614,8.4614,8.4614,8.4614,8.4614,8.4614,8.4614,8.4614,8.4614,8.4614,8.4614,8.4614,8.4614,8.4614,8.4614,8.4614,6.77,6.77,6.7847,6.8311,6.8678,6.9082,6.9522,7.0293,7.1087,7.1894,7.1857,7.1931,7.2275,7.2496,7.3046,0.0,0.0,7.4111,0.0,0.0,7.2606,6.9706,7.0807,7.1284,7.0807,7.1248,7.1505,7.1505,7.1835,7.2004,7.2004,7.2004,7.2738,7.4096,7.4647,7.5395,7.6188,7.5405,7.6056,7.7582,0.0,7.6119,0.0,8.1129,8.3761,8.4988,8.6435,8.6978,8.6904,0.0,8.5182,0.0,0.0,0.0,0.0,0.0,0.0,0.0,0.0,0.0,0.0,0.0,0.0,0.0,7.2124,0.0,7.1515,0.0,0.0,0.0,0.0,0.0,0.0,0.0,7.7335,0.0,0.0,0.0,8.2926,8.5156,0.0,8.7511,8.6856,8.6445,8.6314,8.6671,8.6365,8.5426,8.3795,8.374,8.3179,8.1985,8.2238,8.2611,8.305,8.4072,8.4444,8.414,8.4444,8.4614,8.4614,8.4614,8.4614,8.4614,8.4614,8.4614,8.4614,8.4614,8.4614,8.4614,8.4614,8.4614,8.4614,8.4614,8.4614,8.4614,6.8017,6.8017,6.8201,6.8788,6.9252,6.9839,7.0624,7.1248,7.1821,7.2422,7.2202,7.1857,7.1637,7.2129,0.0,0.0,7.5175,7.5322,0.0,0.0,7.4059,7.2165,7.2129,0.0,7.2591,7.2532,7.2386,7.2165,7.2386,7.2496,7.2496,7.2275,7.323,7.5102,7.494,7.635,7.8715,7.7598,7.7855,7.8977,7.8977,7.9185,7.9875,8.3447,8.57,8.6943,8.6661,8.6536,8.6409,8.5683,8.4259,0.0,8.3627,0.0,8.026,0.0,0.0,0.0,7.5667,0.0,0.0,0.0,0.0,0.0,0.0,0.0,0.0,0.0,0.0,0.0,0.0,0.0,0.0,0.0,0.0,7.527,0.0,0.0,0.0,0.0,0.0,0.0,0.0,8.4382,8.4608,8.5432,8.5246,8.4808,8.4038,8.3763,8.3178,8.2129,8.2712,8.2983,8.2881,8.4268,8.4742,8.4275,8.4512,8.4614,8.4614,8.4614,8.4614,8.4614,8.4614,8.4614,8.4614,8.4614,8.4614,8.4614,8.4614,8.4614,8.4614,8.4614,8.4614,8.4614,6.8862,6.8862,6.8848,6.8885,7.0169,7.149,7.2312,7.2459,7.2459,7.2496,7.3156,7.334,0.0,0.0,0.0,0.0,0.0,7.9433,7.624,0.0,7.5564,0.0,0.0,7.2775,0.0,7.367,7.2129,7.1344,7.2129,7.2496,7.2496,7.1711,7.1784,7.2679,7.4206,7.5395,7.6387,7.8715,8.1048,8.3197,8.3197,8.3949,8.4925,0.0,8.4942,8.6873,8.575,0.0,0.0,8.2262,8.1836,0.0,0.0,0.0,0.0,0.0,0.0,0.0,0.0,0.0,0.0,7.4075,0.0,0.0,0.0,0.0,7.2563,0.0,0.0,0.0,0.0,0.0,0.0,0.0,0.0,0.0,0.0,0.0,0.0,0.0,0.0,0.0,0.0,8.1401,8.1124,0.0,8.3587,8.329,8.3512,8.4617,8.4029,8.141,8.3422,8.3524,8.1384,8.4295,8.5012,8.3524,8.4242,8.4614,8.4614,8.4614,8.4614,8.4614,8.4614,8.4614,8.4614,8.4614,8.4614,8.4614,8.4614,8.4614,8.4614,8.4614,8.4614,8.4614,7.0375,7.1006,7.1366,7.0606,7.128,7.2469,7.4237,7.4024,7.4285,0.0,7.5469,0.0,0.0,7.7817,7.8741,0.0,0.0,8.0145,7.8461,7.7732,0.0,0.0,0.0,7.3413,0.0,7.3193,7.2386,7.2092,7.2386,7.2496,7.2496,7.2224,7.2239,7.2606,7.4735,7.6754,7.8641,8.0021,8.2003,0.0,0.0,8.3356,8.3894,0.0,8.4705,8.4709,8.4309,8.4186,0.0,8.3089,8.2153,8.1342,8.1297,8.0202,7.8913,7.8913,7.8657,7.8213,7.7435,0.0,7.7807,7.554,0.0,0.0,0.0,0.0,0.0,0.0,0.0,0.0,0.0,0.0,0.0,0.0,0.0,0.0,0.0,0.0,0.0,0.0,0.0,0.0,0.0,0.0,0.0,0.0,8.2681,0.0,8.3483,8.3865,8.3679,8.2772,8.3016,8.3016,8.2746,8.3761,8.4505,8.5039,8.5249,8.5384,8.5384,8.5384,8.5114,8.4614,8.4614,8.4614,8.4614,8.4614,8.4614,8.4614,8.4614,8.4614,8.4614,8.4614,8.4614,8.4614,7.1831,7.2883,7.3402,7.1886,7.2571,7.3951,7.5716,7.5798,0.0,0.0,7.759,0.0,7.9207,0.0,7.994,0.0,8.1265,8.0874,8.0027,7.884,0.0,7.7524,7.5873,0.0,0.0,0.0,7.4368,7.378,7.3487,7.323,7.2936,7.2936,7.2936,7.301,7.4845,7.7378,8.0257,8.0461,8.2296,0.0,0.0,8.2517,0.0,0.0,8.2942,8.2432,0.0,8.2594,8.2528,8.2142,8.1355,8.0665,8.1146,8.0122,7.8855,7.9363,7.916,7.872,7.845,7.8754,0.0,7.6623,7.6521,0.0,7.4086,0.0,0.0,0.0,0.0,0.0,0.0,0.0,0.0,0.0,0.0,0.0,0.0,0.0,0.0,0.0,0.0,0.0,0.0,0.0,0.0,0.0,0.0,0.0,0.0,8.3761,8.3659,8.3118,8.3422,8.3693,8.3896,8.4437,8.5215,8.6196,8.5953,8.5817,8.579,8.5486,8.5114,8.4614,8.4614,8.4614,8.4614,8.4614,8.4614,8.4614,8.4614,8.4614,8.4614,8.4614,8.4614,8.4614,7.3387,7.4509,7.4975,7.2906,7.4232,7.5901,7.6738,7.7668,7.8537,0.0,7.9505,7.9641,7.9788,8.1082,8.1679,8.0847,8.1653,8.1792,8.0982,7.8788,0.0,0.0,7.9197,7.894,8.2113,0.0,0.0,0.0,7.527,7.4478,7.3758,7.3685,7.367,7.378,7.4492,7.7081,8.0858,8.0092,8.2035,8.5467,8.3591,8.1536,7.9576,7.9635,7.9788,8.0073,8.0504,8.0663,8.0478,7.941,7.9532,8.0141,8.0141,8.0209,8.0242,8.0242,8.0276,8.0175,7.9439,7.9236,7.8923,7.7435,7.7063,0.0,0.0,0.0,7.6995,0.0,0.0,0.0,0.0,0.0,0.0,0.0,0.0,0.0,0.0,0.0,0.0,0.0,0.0,0.0,0.0,0.0,0.0,0.0,0.0,0.0,0.0,8.4174,8.3903,8.2577,8.4573,8.5351,8.4614,8.6034,8.6812,8.6907,8.6196,8.5851,8.5851,8.5046,8.4647,8.4614,8.4614,8.4614,8.4614,8.4647,8.4647,8.4614,8.4647,8.4647,8.4614,8.4614,8.4614,8.4614,7.6608,7.6836,7.7179,7.7325,7.7198,7.7341,7.796,7.9352,0.0,0.0,8.2657,8.393,8.5213,8.5693,8.5647,8.4947,8.4677,0.0,0.0,0.0,0.0,8.3014,8.1142,8.0718,8.215,7.9213,0.0,7.6995,7.4992,7.4221,7.4588,7.3377,7.345,7.4558,7.3956,7.5949,7.9717,7.928,8.0769,8.318,8.1289,7.9526,7.8019,0.0,7.7439,7.6291,7.8061,7.8725,7.8676,7.8369,7.8754,7.9397,7.9397,8.0141,8.1021,8.1021,8.1393,8.1799,8.1596,8.1562,8.1224,7.9735,7.9363,7.8855,0.0,0.0,0.0,0.0,0.0,0.0,0.0,0.0,0.0,0.0,0.0,0.0,0.0,0.0,0.0,0.0,0.0,0.0,0.0,0.0,0.0,0.0,0.0,0.0,0.0,0.0,8.3862,8.4039,8.4065,8.4268,8.4614,8.4986,8.5763,8.6907,8.6704,8.6636,8.6602,8.5824,8.5182,8.4614,8.4614,8.4614,8.4647,8.5249,8.5148,8.4647,8.5249,8.5148,8.4614,8.4614,8.4614,8.4614,7.8884,7.8519,7.8592,7.9523,7.9484,7.9437,7.9736,8.092,8.2186,8.33,8.3779,0.0,8.6709,8.6689,8.6538,8.6503,8.5851,0.0,8.3814,0.0,0.0,8.3895,8.3398,8.3471,8.4278,8.215,0.0,7.9417,0.0,7.5506,7.4867,7.3517,7.3187,7.3739,7.3729,7.5352,7.8178,7.9096,7.9758,8.0139,7.908,7.7843,0.0,7.6911,7.6183,7.5303,7.6927,7.7502,7.757,7.7899,7.8686,7.96,7.96,8.0581,8.1731,8.1418,8.1832,8.2408,8.2408,8.2408,8.2137,8.0953,8.0682,8.0276,7.8686,7.8991,7.9363,0.0,7.8754,0.0,0.0,0.0,0.0,0.0,0.0,0.0,0.0,0.0,0.0,0.0,0.0,0.0,0.0,0.0,0.0,0.0,0.0,0.0,0.0,0.0,8.3355,8.4099,8.3422,8.3693,8.5114,8.4783,8.5358,8.6907,8.6569,8.6433,8.6399,8.5621,8.5046,8.4614,8.4614,8.4783,8.5182,8.5587,8.552,8.5148,8.5249,8.5012,8.4614,8.4614,8.4614,8.4614,8.0591,7.9994,7.9771,8.0367,8.1104,8.1596,8.1638,8.2409,8.341,8.448,0.0,8.4143,8.61,8.5879,8.5801,8.6414,0.0,8.5276,8.4466,8.4615,8.4756,8.4756,8.5527,8.6261,8.6978,8.6114,0.0,0.0,0.0,7.7223,7.4979,7.3763,7.2919,7.2509,7.3611,7.4957,7.6619,7.8718,7.8713,7.7244,7.7105,7.6599,7.5845,7.5845,7.5912,7.6082,7.6792,7.6961,7.6995,7.7764,7.8957,8.0209,8.0209,8.1291,8.2441,8.1765,8.2103,8.2712,8.2712,8.2644,8.2374,8.1629,8.1359,8.1114,8.0378,8.0209,8.0209,8.0209,7.9701,7.9853,0.0,0.0,0.0,0.0,0.0,0.0,0.0,0.0,0.0,0.0,0.0,0.0,0.0,0.0,0.0,0.0,0.0,0.0,0.0,0.0,8.2577,8.3625,8.2949,8.349,8.5479,8.5012,8.5425,8.6771,8.6095,8.5851,8.5892,8.5012,8.4614,8.4614,8.4614,8.5012,8.5655,8.5784,8.5817,8.5723,8.4884,8.4614,8.4614,8.4614,8.4614,8.4614,8.2502,8.2278,8.1882,8.1022,8.1845,8.2683,8.2837,8.3925,8.4327,8.3301,8.478,8.6103,8.648,8.6468,8.6209,8.5791,8.5655,0.0,0.0,0.0,0.0,8.56,8.6371,8.6885,8.6978,8.5563,8.3948,0.0,0.0,7.6729,7.5593,7.3261,7.2794,7.3876,7.3277,7.4059,7.589,7.63,7.6661,7.6924,7.6245,7.6272,7.669,7.669,7.7063,7.7628,7.7739,7.7401,7.6995,7.7764,7.8957,8.0209,8.0209,8.1629,8.3287,8.3152,8.3659,8.4208,8.4208,8.3795,8.3118,8.2408,8.1731,8.1114,8.0378,8.0209,8.0209,8.0209,8.0107,8.022,8.1015,0.0,0.0,0.0,0.0,0.0,0.0,0.0,0.0,0.0,0.0,0.0,0.0,0.0,0.0,0.0,0.0,0.0,0.0,0.0,8.1765,0.0,8.3693,8.349,0.0,0.0,8.5723,8.5993,8.5885,8.6095,8.667,8.5222,8.4614,8.4614,8.4614,8.4681,8.485,8.552,8.5817,8.5723,8.4884,8.4614,8.4614,8.4614,8.4614,8.4614,8.4855,8.3573,8.2446,8.2279,8.2712,8.312,8.3281,8.4461,8.5047,8.4205,8.4591,8.5214,8.5943,8.613,8.6226,8.6317,8.6306,8.6181,8.5874,8.6224,8.6224,8.582,8.6591,0.0,8.6371,8.604,8.4866,8.281,0.0,7.7928,7.577,7.3564,7.2662,7.2928,7.3047,7.3878,7.5168,7.554,7.5912,7.6251,7.5845,7.6183,7.6893,7.6893,7.7604,7.8619,7.8991,7.916,7.916,7.9126,7.987,8.0818,8.1224,8.2611,8.3998,8.3625,8.4031,8.4512,8.4133,8.3761,8.3219,8.2103,8.1562,8.1114,8.0378,8.0656,8.1077,8.1077,8.1545,8.1944,8.1778,8.1129,0.0,0.0,0.0,0.0,0.0,0.0,0.0,0.0,0.0,0.0,0.0,0.0,0.0,0.0,0.0,0.0,0.0,0.0,8.1562,0.0,0.0,0.0,8.4065,0.0,8.4809,8.5182,8.5182,8.5384,8.5662,8.4918,8.4614,8.4614,8.4614,8.5053,8.5797,8.6196,8.6129,8.5784,8.5384,8.4979,8.4647,8.508,8.4979,8.4614,8.6476,8.4547,8.3104,8.3564,8.3577,8.3586,8.3864,8.4886,8.5574,8.5436,8.4512,8.44,8.5686,8.5947,8.6297,8.6941,8.6978,8.6978,8.6978,8.6978,8.6738,8.6077,8.6518,8.6444,8.582,8.6407,8.5673,0.0,0.0,7.9344,7.6275,7.4259,7.2906,7.2119,7.3316,7.4137,7.4661,7.5236,7.5676,7.5946,7.5946,7.6521,7.7401,7.7536,7.8416,7.9667,8.0412,8.1021,8.146,8.1021,8.1291,8.1866,8.2441,8.3531,8.4444,8.3727,8.393,8.4208,8.349,8.3152,8.2824,8.1885,8.1519,8.1322,8.098,8.164,8.2232,8.2232,8.3296,8.3803,8.2482,8.2383,0.0,0.0,0.0,0.0,0.0,0.0,0.0,0.0,0.0,0.0,0.0,0.0,0.0,0.0,0.0,0.0,8.1832,0.0,0.0,0.0,0.0,8.2956,8.4106,0.0,8.4133,8.485,8.4681,8.4783,8.5087,8.4749,8.4614,8.4614,8.4614,8.529,8.6433,8.6433,8.6061,8.5554,8.5723,8.5418,8.4918,8.5554,8.5384,8.4817,8.6105,8.5578,8.527,8.4609,8.4492,8.4709,8.547,8.5685,8.5752,8.5762,8.5628,8.5891,8.6767,8.6882,8.6904,8.6978,8.6978,8.6978,8.6978,8.6978,8.6978,8.6885,8.6261,8.5874,8.58,8.5857,8.5086,0.0,0.0,7.9792,7.7934,7.5381,7.4014,7.3712,7.4583,7.4827,7.4603,7.4671,7.5506,7.6792,7.6792,7.7638,7.8991,7.9634,8.0378,8.119,8.1934,8.2238,8.2408,8.2983,8.3219,8.3321,8.3389,8.3964,8.4444,8.3727,8.3558,8.3456,8.2712,8.2002,8.1732,8.2621,8.2345,8.2118,8.306,8.335,8.345,8.345,8.4942,8.5141,8.1621,8.3981,8.5287,0.0,0.0,0.0,0.0,0.0,0.0,0.0,0.0,0.0,0.0,0.0,0.0,0.0,7.8822,0.0,0.0,0.0,0.0,8.3524,8.2813,8.2475,8.2584,8.3836,8.4911,8.5655,8.4945,8.5324,8.6636,8.5222,8.4614,8.4614,8.4614,8.4681,8.4817,8.4817,8.4783,8.4783,8.552,8.5723,8.5689,8.5757,8.5723,8.5587,8.7295,8.6396,8.5857,8.6004,8.5637,8.56,8.6407,8.6518,8.6518,8.6518,8.6518,8.6628,8.6941,8.6978,8.6978,8.6978,8.6978,8.6978,8.6978,8.6554,8.6077,8.56,8.5233,8.4866,8.4389,8.5306,8.5233,0.0,0.0,0.0,7.9666,7.7595,7.6138,7.5292,7.5625,7.5865,7.598,7.598,7.6589,7.7502,7.7063,7.7502,7.8517,7.9261,8.0006,8.0784,8.1968,8.2408,8.2441,8.2746,8.3118,8.349,8.349,8.3693,8.3919,8.3864,8.3875,8.3851,8.3795,8.3578,8.3346,8.3356,8.3116,8.306,8.3514,8.4145,8.4613,8.4613,8.5618,8.6161,8.5071,8.4883,8.4983,8.5217,0.0,0.0,0.0,0.0,0.0,0.0,0.0,0.0,0.0,0.0,0.0,0.0,0.0,0.0,0.0,0.0,0.0,8.278,0.0,8.305,8.305,8.4573,8.5486,8.5817,8.5452,8.5621,8.6196,8.5087,8.4614,8.4614,8.5114,8.5046,8.4647,8.5114,8.5046,8.4681,8.5486,8.5817,8.5817,8.5817,8.5817,8.5655,8.782,8.6882,8.6334,8.6904,8.6518,8.6334,8.6904,8.6978,8.6978,8.6978,8.6978,8.6978,8.6978,8.6978,8.6978,8.6978,8.6978,8.6904,8.6664,8.6114,8.5416,8.4646,8.4389,0.0,8.3748,8.4646,8.4939,8.4609,8.3581,0.0,8.1106,7.9709,7.8182,7.667,7.6936,7.6832,7.6555,7.6555,7.6961,7.7653,7.7438,7.7819,7.8617,7.9898,8.0728,8.1379,8.2864,8.3379,8.3379,8.3379,8.3756,8.4118,8.3781,8.39,8.417,8.4261,8.4275,8.4285,8.4352,8.4378,8.4322,8.4127,8.4124,8.4207,8.4512,8.5201,8.5676,8.5355,8.5477,8.5769,8.6171,8.4661,8.3911,8.5601,0.0,0.0,0.0,0.0,0.0,0.0,0.0,0.0,0.0,0.0,0.0,0.0,0.0,0.0,0.0,0.0,0.0,0.0,0.0,0.0,8.349,8.5039,8.5892,8.6095,8.5892,8.5892,8.6095,8.5053,8.4614,8.4614,8.5215,8.5114,8.4647,8.5215,8.5114,8.4681,8.5723,8.5993,8.5851,8.6027,8.5993,8.5655,8.7183,8.6995,8.6978,8.6978,8.6978,8.6978,8.6978,8.6978,8.6978,8.6978,8.6978,8.6978,8.6978,8.6978,8.6978,8.6978,8.6978,8.6664,8.5857,8.58,8.5416,0.0,0.0,8.3785,8.4572,8.3821,8.3821,8.4609,0.0,0.0,8.217,8.1362,7.984,7.7826,7.8609,7.7736,7.5709,7.5709,7.6183,7.7014,7.8064,7.892,7.9876,8.2462,8.3436,8.3648,8.5203,8.5768,8.5768,8.5768,8.5768,8.5569,8.4436,8.4879,8.5649,8.4915,8.4689,8.4512,8.3812,8.3621,8.3874,8.5006,8.5278,8.5563,8.6714,8.696,8.6679,8.5525,8.4411,8.3524,8.3114,8.3053,8.2383,8.0587,0.0,0.0,0.0,0.0,0.0,0.0,0.0,0.0,0.0,0.0,0.0,0.0,0.0,0.0,0.0,0.0,0.0,8.3422,8.349,0.0,8.349,8.5039,8.6163,8.6907,8.6129,8.6163,8.6839,8.529,8.4614,8.4614,8.4614,8.4614,8.4614,8.4614,8.4614,8.4749,8.6298,8.6433,8.5892,8.6636,8.6433,8.5655,8.7046,8.6978,8.6978,8.6978,8.6978,8.6978,8.6978,8.6978,8.6978,8.6978,8.6978,8.6811,8.6224,8.6664,8.6775,8.6224,8.6187,8.5857,8.5013,8.4462,8.4042,8.3785,8.303,8.27,8.2957,8.3234,8.3528,8.3785,8.3287,8.2737,8.2186,8.1929,8.1039,7.9711,7.9962,7.9566,7.871,7.871,7.9142,7.9828,7.9634,8.0049,8.0901,8.2249,8.2786,8.3019,8.4498,8.4746,8.4286,8.4286,8.4816,8.5406,8.5023,8.4982,8.5074,8.5121,8.5092,8.5215,8.5785,8.5935,8.5806,8.541,8.5297,8.5182,8.4789,8.4673,8.4573,8.4227,8.322,8.2544,8.2927,8.2345,8.1832,8.174,8.2306,0.0,0.0,0.0,0.0,0.0,0.0,0.0,0.0,8.1671,0.0,0.0,0.0,0.0,0.0,0.0,0.0,0.0,8.3253,0.0,8.349,8.552,8.667,8.6907,8.667,8.6129,8.5324,8.4817,8.4614,8.4614,8.4614,8.4614,8.4614,8.4614,8.4614,8.4681,8.5757,8.6298,8.6535,8.623,8.6332,8.6366,8.7411,8.718,8.6978,8.6978,8.6978,8.6978,8.6978,8.6978,8.6978,8.6978,8.6738,8.6481,8.6261,8.6151,8.5894,8.538,8.5343,8.5013,8.4205,8.3675,8.3271,8.2957,8.248,8.2333,8.2627,8.2847,8.3104,8.3381,8.3104,8.27,8.2186,8.2186,8.1647,8.0623,8.0623,8.0262,7.9686,7.9686,7.9934,8.0379,8.0305,8.0768,8.1632,8.2793,8.3451,8.3885,8.5119,8.5263,8.4888,8.4888,8.5353,8.5954,8.5954,8.5467,8.5059,8.5726,8.5619,8.5468,8.6156,8.6046,8.5544,8.4832,8.4653,8.4472,8.3769,8.3277,8.2972,8.2972,8.2037,8.1407,8.1864,8.1372,8.1021,8.1494,8.1799,8.2238,8.2983,0.0,0.0,0.0,0.0,0.0,0.0,8.2374,8.1731,0.0,0.0,0.0,0.0,0.0,0.0,8.3219,8.3693,8.4065,8.437,8.6061,8.7042,8.7313,8.7042,8.6068,8.4614,8.4614,8.4614,8.4614,8.4614,8.4614,8.4614,8.4614,8.4614,8.4681,8.5486,8.6061,8.6433,8.596,8.6095,8.6298,8.8107,8.7538,8.7064,8.6995,8.6978,8.6978,8.6978,8.6978,8.6978,8.6978,8.6297,8.604,8.6757,8.5453,8.4499,8.4425,8.4499,8.4168,8.3381,8.3308,8.2977,8.2223,8.2186,8.2553,8.3308,8.259,8.2553,8.3308,8.2553,8.2186,8.2186,8.2186,8.1664,8.0714,8.0714,8.0144,7.9222,7.9222,7.9222,7.9302,8.0329,8.1201,8.2106,8.392,8.5086,8.5911,8.6701,8.6978,8.6978,8.6978,8.6978,8.6978,8.6978,8.6229,8.5506,8.6553,8.6083,8.5182,8.5182,8.4447,8.367,8.3585,8.3499,8.3456,8.3385,8.2527,8.1793,8.1793,8.0941,8.0209,8.0276,8.0276,8.0276,8.0276,8.0851,8.1528,8.2238,8.2374,0.0,0.0,0.0,0.0,0.0,8.1054,8.1697,0.0,0.0,0.0,0.0,0.0,8.2475,8.4512,8.4647,8.5046,8.579,8.6569,8.7313,8.7989,8.7245,8.6102,8.4681,8.4614,8.4614,8.4614,8.4614,8.4614,8.4614,8.4614,8.4614,8.4681,8.5554,8.5885,8.5885,8.5885,8.5885,8.5757,8.819,8.7939,8.7683,8.7115,8.6978,8.6978,8.6978,8.6978,8.6978,8.6978,8.6297,8.5637,8.5233,8.4278,8.3434,8.281,8.3324,8.3344,8.2553,8.248,8.2406,8.2186,8.2186,8.2296,8.248,8.2296,8.2296,8.248,8.2296,8.2186,8.2186,8.2186,8.2035,8.1799,8.1799,8.1681,8.1457,8.1457,8.1457,8.1474,8.1715,8.2311,8.3132,8.4195,8.5086,8.5911,8.6701,8.6978,8.6978,8.6978,8.6978,8.6978,8.6978,8.6229,8.5336,8.5601,8.4908,8.3985,8.3985,8.4237,8.4233,8.3354,8.2468,8.1699,8.1151,8.0804,8.0582,8.0582,8.0401,8.0378,8.0945,8.1021,8.1021,8.1021,8.1215,8.1384,8.1528,8.2035,8.2543,0.0,8.2813,8.2949,8.3498,8.3219,8.2813,0.0,0.0,8.3456,8.2712,8.3422,8.4039,8.458,8.5215,8.5587,8.5817,8.7076,8.782,8.7989,8.7245,8.6399,8.5486,8.4884,8.4614,8.4614,8.4614,8.4614,8.4614,8.4614,8.4614,8.4749,8.6129,8.6636,8.6636,8.6636,8.6636,8.6467,8.9095,8.8518,8.7954,8.757,8.6936,8.6444,8.6444,8.6444,8.6334,8.5967,8.5527,8.5086,8.4646,8.3544,8.281,8.2737,8.281,8.2663,8.2223,8.2186,8.2186,8.2186,8.2186,8.2186,8.2186,8.2186,8.2186,8.2186,8.2186,8.2186,8.2186,8.2186,8.2186,8.2186,8.2186,8.2186,8.2186,8.2186,8.2186,8.2186,8.2186,8.27,8.3454,8.3895,8.4535,8.5343,8.6151,8.6444,8.6518,8.6867,8.6978,8.6978,8.6978,8.6229,8.5297,8.5297,8.4109,8.2817,8.2817,8.2972,8.3064,8.2791,8.2266,8.1697,8.1291,8.1224,8.1224,8.1224,8.1224,8.1495,8.243,8.2165,8.1868,8.2079,8.2085,8.1896,8.136,8.2096,8.2733,8.2993,8.3016,8.3152,8.3565,8.3558,8.3186,8.2475,8.3422,0.0,8.2949,8.4336,8.5148,8.5148,8.5892,8.6298,8.6298,8.7414,8.7989,8.7989,8.7583,8.6839,8.5784,8.5351,8.4945,8.4614,8.4614,8.4783,8.5148,8.5148,8.5148,8.5283,8.6467,8.6907,8.6873,8.6535,8.6602,8.6677,8.9614,8.8587,8.7726,8.7753,8.6558,8.5654,8.58,8.571,8.538,8.4682,8.4499,8.4425,8.4425,8.3104,8.248,8.3161,8.259,8.2186,8.2186,8.2186,8.2186,8.2186,8.2186,8.2186,8.2186,8.2186,8.2186,8.2186,8.2186,8.2186,8.2186,8.2186,8.2186,8.2186,8.2186,8.2186,8.2186,8.2186,8.2186,8.2186,8.2186,8.2627,8.3234,8.3344,8.3821,8.4535,8.5453,8.58,8.593,8.6738,8.6978,8.6978,8.6978,8.6229,8.5297,8.5297,8.3868,8.2314,8.221,8.1961,8.1902,8.2649,8.2698,8.2543,8.2441,8.2408,8.2459,8.2632,8.2537,8.2862,8.4372,8.365,8.3004,8.3448,8.3473,8.3002,8.173,8.2496,8.3,8.2461,8.2509,8.2543,8.2382,8.2983,8.3118,8.2611,8.3734,8.4242,8.3862,8.508,8.5851,8.596,8.667,8.7144,8.7245,8.7854,8.8091,8.7989,8.7989,8.7279,8.596,8.5851,8.5418,8.4783,8.4783,8.5114,8.5621,8.575,8.575,8.5689,8.6569,8.6907,8.6839,8.6298,8.6467,8.6704,8.7396,8.652,8.6012,8.6135,8.5407,8.5013,8.571,8.5233,8.4756,8.4609,8.4022,8.3601,8.3601,8.2774,8.226,8.237,8.226,8.2186,8.2186,8.2186,8.2186,8.2186,8.2186,8.2186,8.2186,8.2186,8.2186,8.2186,8.2186,8.2186,8.2186,8.2186,8.2186,8.2186,8.2186,8.2186,8.2186,8.2186,8.2186,8.2186,8.2186,8.226,8.2443,8.3124,8.3491,8.3785,8.527,8.58,8.593,8.6738,8.6978,8.6978,8.6978,8.6229,8.5297,8.5297,8.4855,8.4219,8.3505,8.3506,8.3859,8.4643,8.4096,8.3186,8.2543,8.2408,8.2709,8.3713,8.3123,8.3243,8.6121,8.5659,8.4975,8.5422,8.5459,8.4823,8.298,8.3406,8.3527,8.2529,8.2949,8.3084,8.2475,8.2509,8.278,8.3287,8.3524,8.42,8.5378,8.5682,8.6095,8.6704,8.7448,8.8125,8.8734,8.8869,8.8598,8.7989,8.7989,8.755,8.6704,8.6061,8.5723,8.5587,8.5587,8.5317,8.4817,8.552,8.5384,8.4918,8.6366,8.6907,8.6974,8.7482,8.7347,8.6771,8.6807,8.6091,8.5634,8.5682,8.4739,8.4078,8.4462,8.4205,8.3801,8.3361,8.3361,8.3234,8.281,8.2406,8.2186,8.2186,8.2186,8.2186,8.2186,8.2186,8.2186,8.2186,8.2186,8.2186,8.2186,8.2186,8.2186,8.2186,8.2186,8.2186,8.2186,8.2186,8.2186,8.2186,8.2186,8.2186,8.2186,8.2186,8.2186,8.2186,8.2186,8.2186,8.2296,8.3087,8.3124,8.2957,8.4572,8.5159,8.527,8.6077,8.6628,8.6978,8.6978,8.6661,8.6302,8.6721,8.5869,8.4903,8.5342,8.5617,8.5902,8.6674,8.6437,8.5936,8.5589,8.552,8.5688,8.6231,8.5914,8.6184,8.8278,8.7692,8.7017,8.7442,8.6937,8.5714,8.338,8.3653,8.3551,8.1987,8.2475,8.2949,8.2983,8.2983,8.3287,8.4065,8.4072,8.4403,8.5114,8.5554,8.5757,8.5662,8.6805,8.7753,8.8497,8.8497,8.8531,8.8564,8.8564,8.8192,8.7482,8.6738,8.6163,8.5817,8.5817,8.5587,8.5317,8.6095,8.6163,8.5933,8.7076,8.7482,8.755,8.7854,8.755,8.6805,8.5924,8.5316,8.4874,8.506,8.3999,8.3161,8.3381,8.3234,8.292,8.226,8.2737,8.2884,8.226,8.2186,8.2186,8.2186,8.2186,8.2186,8.2186,8.2186,8.2186,8.2186,8.2186,8.2186,8.2186,8.2186,8.2186,8.2186,8.2186,8.2186,8.2186,8.2186,8.2186,8.2186,8.2186,8.2186,8.2186,8.2186,8.2186,8.2186,8.2186,8.2186,8.2296,8.3087,8.3141,8.292,8.4352,8.5013,8.527,8.6077,8.6775,8.7308,8.7491,8.7565,8.7675,8.8316,8.7383,8.6418,8.7577,8.7686,8.7684,8.8445,8.8402,8.8201,8.8201,8.8201,8.8268,8.8557,8.8402,8.8645,9.0127,8.9432,8.8764,8.9199,8.8105,8.636,8.4053,8.3773,8.3276,8.1741,8.2069,8.2644,8.3186,8.3253,8.3558,8.4275,8.4343,8.4478,8.485,8.5283,8.5249,8.4614,8.6102,8.7177,8.7753,8.7922,8.8091,8.8355,8.8497,8.8192,8.7482,8.7076,8.6501,8.5817,8.6156,8.5993,8.5587,8.6535,8.6805,8.6738,8.7448,8.7854,8.8023,8.8192,8.7685,8.6839,8.3587,8.2902,8.2688,8.3407,8.2859,8.2553,8.3271,8.2774,8.226,8.2186,8.226,8.226,8.2186,8.2186,8.2186,8.2186,8.2186,8.2186,8.2186,8.2186,8.2186,8.2186,8.2186,8.2186,8.2186,8.2186,8.2186,8.2186,8.2186,8.2186,8.2186,8.2186,8.2186,8.2186,8.2186,8.2186,8.2186,8.2186,8.2186,8.2186,8.2186,8.2186,8.2296,8.3087,8.3821,8.4535,8.538,8.6187,8.6958,8.7766,8.8059,8.8243,8.8996,8.9216,8.9216,8.929,8.9714,9.0191,9.0301,8.9533,8.889,8.9647,8.9014,8.8201,8.8201,8.8201,8.8513,8.962,8.8971,8.8906,9.123,9.0676,9.0011,9.0392,8.886,8.7198,8.5895,8.4169,8.2897,8.2393,8.2374,8.2441,8.2475,8.2475,8.278,8.3524,8.3592,8.42,8.5648,8.508,8.4647,8.4614,8.6102,8.6941,8.6974,8.7651,8.7347,8.6027,8.6738,8.667,8.596,8.6602,8.6501,8.5885,8.7245,8.6636,8.4783,8.6298,8.6501,8.5926,8.6704,8.7414,8.8091,8.8767,8.8125,8.6879,8.2643,8.2375,8.2296,8.259,8.2406,8.2296,8.2627,8.2406,8.2186,8.2186,8.2186,8.2186,8.2186,8.2186,8.2186,8.2186,8.2186,8.2186,8.2186,8.2186,8.2186,8.2186,8.2186,8.2186,8.2186,8.2186,8.2186,8.2186,8.2186,8.2186,8.2186,8.2186,8.2186,8.2186,8.2186,8.2186,8.2186,8.2186,8.2186,8.2186,8.2186,8.2186,8.2333,8.3654,8.3728,8.3361,8.5159,8.5673,8.5637,8.6444,8.7362,8.8243,8.8573,8.8996,8.951,8.9987,9.0702,9.1326,9.1326,9.1015,9.0715,9.1062,9.0754,9.0315,8.9788,8.9679,8.9688,8.9636,8.9262,8.9223,9.0154,8.9935,8.9472,8.89,8.756,8.6182,8.5005,8.3569,8.2564,8.2426,8.2408,8.2577,8.305,8.3084,8.3389,8.4133,8.42,8.4437,8.5046,8.4749,8.4614,8.4614,8.5655,8.623,8.623,8.6941,8.7042,8.6501,8.6771,8.6771,8.6467,8.6298,8.6298,8.6501,8.6569,8.6129,8.5384,8.596,8.6332,8.6501,8.6805,8.7617,8.8632,8.8463,8.7786,8.6839,8.2186,8.2186,8.2186,8.2186,8.2186,8.2186,8.2186,8.2186,8.2186,8.2186,8.2186,8.2186,8.2186,8.2186,8.2186,8.2186,8.2186,8.2186,8.2186,8.2186,8.2186,8.2186,8.2186,8.2186,8.2186,8.2186,8.2186,8.2186,8.2186,8.2186,8.2186,8.2186,8.2186,8.2186,8.2186,8.2333,8.2553,8.2296,8.2333,8.2553,8.2296,8.2333,8.2737,8.4352,8.4462,8.3948,8.5857,8.6187,8.582,8.6371,8.7288,8.8243,8.85,8.9106,8.984,9.0134,9.0812,9.1363,9.1106,9.1069,9.1179,9.1657,9.162,9.1289,9.0739,9.0408,9.006,8.951,8.94,8.94,8.94,8.9295,8.8888,8.7854,8.6589,8.5354,8.4329,8.3139,8.2509,8.2712,8.2746,8.305,8.3761,8.3862,8.4065,8.4546,8.4614,8.4614,8.4614,8.4614,8.4614,8.4614,8.5148,8.5418,8.5418,8.6196,8.6433,8.6169,8.6169,8.6332,8.6535,8.6027,8.6196,8.6907,8.6602,8.6257,8.5817,8.6027,8.6433,8.6907,8.6907,8.7786,8.9032,8.826,8.755,8.6805,8.2186,8.2186,8.2186,8.2186,8.2186,8.2186,8.2186,8.2186,8.2186,8.2186,8.2186,8.2186,8.2186,8.2186,8.2186,8.2186,8.2186,8.2186,8.2186,8.2186,8.2186,8.2186,8.2186,8.2186,8.2186,8.2186,8.2186,8.2186,8.2186,8.2186,8.2186,8.2186,8.2186,8.2186,8.2223,8.2663,8.3344,8.2553,8.27,8.3344,8.2553,8.27,8.3564,8.5196,8.6297,8.7088,8.7912,8.8206,8.8169,8.8206,8.8206,8.8353,8.9143,8.995,9.0445,8.962,8.995,9.0427,8.962,8.94,8.9767,9.1363,9.1179,9.0592,9.0592,8.995,8.94,8.9363,8.94,8.9382,8.9382,8.9065,8.8506,8.7788,8.6338,8.5028,8.429,8.3173,8.2678,8.3422,8.3524,8.3795,8.4512,8.4614,8.4614,8.4614,8.4614,8.4614,8.4614,8.4614,8.4614,8.4614,8.4614,8.4614,8.4614,8.5384,8.5384,8.4614,8.4614,8.5046,8.579,8.5817,8.6196,8.6941,8.7685,8.7144,8.5885,8.6602,8.6907,8.6907,8.6907,8.7786,8.9032,8.826,8.7516,8.6805,8.2186,8.2186,8.2186,8.2186,8.2186,8.2186,8.2186,8.2186,8.2186,8.2186,8.2186,8.2186,8.2186,8.2186,8.2186,8.2186,8.2186,8.2186,8.2186,8.2186,8.2186,8.2186,8.2186,8.2186,8.2186,8.2186,8.2186,8.2186,8.2186,8.2186,8.2223,8.2774,8.3014,8.3067,8.3618,8.4022,8.4242,8.3985,8.4022,8.4242,8.3985,8.4022,8.4352,8.538,8.56,8.549,8.6885,8.6995,8.6591,8.7178,8.7729,8.8353,8.9143,8.9546,8.9693,8.9473,8.9583,8.9693,8.9473,8.94,8.951,8.9987,8.995,8.962,8.905,8.872,8.839,8.7822,8.7486,8.7273,8.7273,8.6982,8.6366,8.5358,8.4774,8.4274,8.3764,8.3378,8.3456,8.4174,8.4275,8.4343,8.458,8.4614,8.4614,8.4614,8.4614,8.4614,8.4614,8.4614,8.4614,8.4614,8.4614,8.4614,8.4614,8.4817,8.4817,8.4614,8.4614,8.4715,8.4979,8.552,8.5892,8.6129,8.6366,8.6224,8.5757,8.5452,8.5899,8.6907,8.6907,8.7786,8.8965,8.7685,8.711,8.6738,8.2186,8.2186,8.2186,8.2186,8.2186,8.2186,8.2186,8.2186,8.2186,8.2186,8.2186,8.2186,8.2186,8.2186,8.2186,8.2186,8.2186,8.2186,8.2186,8.2186,8.2186,8.2186,8.2186,8.2186,8.2186,8.2517,8.2517,8.2186,8.2517,8.2517,8.2223,8.303,8.3381,8.3454,8.4242,8.4792,8.5049,8.4756,8.4792,8.5049,8.4719,8.4792,8.5159,8.5967,8.5967,8.571,8.7031,8.6958,8.6334,8.6848,8.7308,8.7802,8.8299,8.8666,8.8849,8.8556,8.8666,8.8849,8.8519,8.8445,8.8445,8.8445,8.8702,8.8776,8.8316,8.7949,8.7477,8.6519,8.6347,8.6273,8.5815,8.5639,8.5217,8.4268,8.4196,8.4087,8.3587,8.3761,8.4099,8.4546,8.4614,8.4614,8.4614,8.4614,8.4614,8.4614,8.4614,8.4614,8.4614,8.4614,8.4614,8.4614,8.4614,8.4614,8.4614,8.4614,8.4614,8.4614,8.4614,8.4749,8.508,8.5249,8.5655,8.623,8.5953,8.5817,8.5784,8.5283,8.5824,8.6907,8.6907,8.7786,8.8931,8.7448,8.6907,8.6677,8.2186,8.2186,8.2186,8.2186,8.2186,8.2186,8.2186,8.2186,8.2186,8.2186,8.2186,8.2186,8.2186,8.2186,8.2186,8.2186,8.2186,8.2186,8.2186,8.2186,8.2186,8.2186,8.2186,8.2223,8.2296,8.303,8.3014,8.2296,8.3104,8.3141,8.2443,8.3251,8.3601,8.3638,8.4462,8.5233,8.5857,8.5123,8.5233,8.582,8.5123,8.5233,8.5967,8.6738,8.6978,8.7088,8.7839,8.7619,8.6978,8.6978,8.6978,8.6978,8.6978,8.7509,8.7949,8.7198,8.7509,8.7949,8.7198,8.6978,8.7014,8.7088,8.7619,8.8096,8.8096,8.7545,8.6679,8.5633,8.5883,8.6004,8.4931,8.4961,8.4934,8.4233,8.4404,8.4377,8.3693,8.42,8.4614,8.4614,8.4614,8.4614,8.4614,8.4614,8.4614,8.4614,8.4614,8.4614,8.4614,8.4614,8.4614,8.4614,8.4614,8.4614,8.4614,8.4614,8.4614,8.4614,8.4614,8.5046,8.5784,8.5046,8.5459,8.6771,8.6095,8.5784,8.5689,8.5689,8.6129,8.6805,8.6873,8.7753,8.8829,8.7414,8.6907,8.6677,8.2186,8.2186,8.2186,8.2186,8.2186,8.2186,8.2186,8.2186,8.2186,8.2186,8.2186,8.2186,8.2186,8.2186,8.2186,8.2186,8.2186,8.2186,8.2186,8.2186,8.2186,8.2186,8.2186,8.248,8.3124,8.3308,8.3308,8.3124,8.3948,8.4242,8.4095,8.4903,8.527,8.5306,8.6114,8.6574,8.6738,8.6537,8.6574,8.6738,8.6537,8.6574,8.6775,8.6904,8.6978,8.7014,8.7198,8.7124,8.6978,8.6978,8.6978,8.6978,8.6978,8.7124,8.7234,8.7051,8.7124,8.7215,8.7051,8.6978,8.7124,8.7766,8.7619,8.7234,8.7234,8.7124,8.6862,8.6282,8.603,8.5764,8.5193,8.4876,8.4689,8.452,8.4529,8.4546,8.4377,8.4512,8.4614,8.4614,8.4614,8.4614,8.4614,8.4614,8.4614,8.4614,8.4614,8.4614,8.4614,8.4614,8.4614,8.4614,8.4614,8.4614,8.4614,8.4614,8.4614,8.4614,8.4614,8.5046,8.579,8.5621,8.5723,8.6027,8.5885,8.5452,8.485,8.485,8.5351,8.6095,8.667,8.7448,8.8125,8.7245,8.6907,8.6677,8.2186,8.2186,8.2186,8.2186,8.2186,8.2186,8.2186,8.2186,8.2186,8.2186,8.2186,8.2186,8.2186,8.2186,8.2186,8.2186,8.2186,8.2186,8.2186,8.2186,8.2186,8.2186,8.2186,8.259,8.3381,8.3785,8.3968,8.3968,8.4792,8.4976,8.4609,8.5416,8.58,8.5837,8.6628,8.6978,8.6978,8.6978,8.6978,8.6978,8.6978,8.6978,8.6978,8.6978,8.6978,8.6978,8.6978,8.6978,8.6978,8.6978,8.6978,8.6978,8.6978,8.6978,8.6978,8.6978,8.6978,8.6978,8.6978,8.7288,8.7655,8.8096,8.7741,8.7432,8.801,8.7858,8.7321,8.6352,8.6268,8.5968,8.4633,8.4478,8.4614,8.4614,8.4614,8.4614,8.4614,8.4614,8.4614,8.4614,8.4614,8.4614,8.4614,8.4614,8.4614,8.4614,8.4614,8.4614,8.4614,8.4614,8.4614,8.4614,8.4614,8.4614,8.4614,8.4614,8.4614,8.4614,8.4614,8.4817,8.5249,8.5621,8.5587,8.5249,8.5621,8.5351,8.4614,8.4614,8.5256,8.6366,8.6771,8.7347,8.7922,8.7177,8.6406,8.5662,8.2186,8.2186,8.2186,8.2186,8.2186,8.2186,8.2186,8.2186,8.2186,8.2186,8.2186,8.2186,8.2186,8.2186,8.2186,8.2186,8.2186,8.2186,8.2186,8.2186,8.2186,8.2186,8.2333,8.2774,8.3601,8.4389,8.4792,8.4792,8.56,8.5673,8.5013,8.5673,8.6004,8.604,8.6701,8.6978,8.6978,8.6978,8.6978,8.6978,8.6978,8.6978,8.6978,8.6978,8.6978,8.6978,8.6978,8.6978,8.6978,8.6978,8.6978,8.6978,8.6978,8.6978,8.6978,8.6978,8.6978,8.6978,8.6978,8.7582,8.8171,8.8104,8.7844,8.787,8.8961,8.8454,8.7477,8.6325,8.6431,8.6079,8.4061,8.4174,8.4614,8.4614,8.4614,8.4614,8.4614,8.4614,8.4614,8.4614,8.4614,8.4614,8.4614,8.4614,8.4614,8.4614,8.4614,8.4614,8.4614,8.4614,8.4614,8.4614,8.4614,8.4614,8.4614,8.4614,8.4614,8.4614,8.4614,8.4681,8.4817,8.5351,8.5317,8.4817,8.5351,8.5215,8.4614,8.4614,8.5358,8.6507,8.6805,8.7211,8.755,8.6941,8.5797,8.4614,8.2186,8.2186,8.2186,8.2186,8.2186,8.2186,8.2186,8.2186,8.2186,8.2186,8.2186,8.2186,8.2186,8.2186,8.2186,8.2186,8.2186,8.2186,8.2186,8.2186,8.2186,8.2186,8.2884,8.3601,8.4425,8.5233,8.5637,8.5637,8.6444,8.6775,8.6684,8.6794,8.6848,8.6848,8.6941,8.6978,8.6978,8.6978,8.6978,8.6978,8.6978,8.6978,8.6978,8.6978,8.6978,8.6978,8.6978,8.6978,8.6978,8.6978,8.6978,8.6978,8.6978,8.6978,8.6978,8.6978,8.6978,8.6978,8.6978,8.7582,8.8122,8.778,8.7647,8.7744,8.8257,8.72,8.6239,8.6758,8.6114,8.5245,8.4566,8.4512,8.4614,8.4614,8.4614,8.4614,8.4614,8.4614,8.4614,8.4614,8.4614,8.4614,8.4614,8.4614,8.4614,8.4614,8.4614,8.4614,8.4614,8.4614,8.4614,8.4614,8.4614,8.4614,8.4614,8.4614,8.4614,8.4614,8.4614,8.4979,8.5621,8.5046,8.508,8.5587,8.5046,8.4681,8.4614,8.4614,8.4715,8.5019,8.6372,8.6569,8.6088,8.5987,8.5384,8.4614,8.2186,8.2186,8.2186,8.2186,8.2186,8.2186,8.2186,8.2186,8.2186,8.2186,8.2186,8.2186,8.2186,8.2186,8.2186,8.2186,8.2186,8.2186,8.2186,8.2186,8.2186,8.2186,8.2994,8.3785,8.4572,8.538,8.6004,8.6481,8.6848,8.6978,8.6978,8.6978,8.6978,8.6978,8.6978,8.6978,8.6978,8.6978,8.6978,8.6978,8.6978,8.6978,8.6978,8.6978,8.6978,8.6978,8.6978,8.6978,8.6978,8.6978,8.6978,8.7088,8.7545,8.7362,8.7161,8.8078,8.8005,8.7766,8.8225,8.8923,8.9494,8.9311,8.8594,8.8171,8.8999,8.708,8.5416,8.6439,8.6257,8.5624,8.4777,8.4614,8.4614,8.4614,8.4614,8.4614,8.4614,8.4614,8.4614,8.4614,8.4614,8.4614,8.4614,8.4614,8.4614,8.4614,8.4614,8.4614,8.4614,8.4614,8.4614,8.4614,8.4614,8.4614,8.4614,8.4614,8.4614,8.4614,8.4614,8.4783,8.5148,8.5215,8.5215,8.5148,8.5215,8.5046,8.4614,8.4614,8.485,8.5351,8.6027,8.6095,8.5817,8.5817,8.5283,8.4614]}]]